<?xml version="1.0" encoding="UTF-8" standalone="no" ?>
<gpx xmlns="http://www.topografix.com/GPX/1/1" xmlns:xsi="http://www.w3.org/2001/XMLSchema-instance" xsi:schemaLocation="http://www.topografix.com/GPX/1/1 http://www.topografix.com/GPX/1/1/gpx.xsd" version="1.1" creator="VisuGPX - https://www.visugpx.com">
  <metadata>
    <name>PlCy-P17</name>
  </metadata>
  <trk>
    <name><![CDATA[PlCy-P17]]></name>
    <trkseg>
      <trkpt lat="48.02083" lon="-4.21822">
        <ele>142.37008176595</ele>
        <time>2022-01-14T20:10:14.000Z</time>
      </trkpt>
      <trkpt lat="48.02048" lon="-4.21738">
        <ele>142.98578866753</ele>
        <time>2022-01-14T20:10:14.011Z</time>
      </trkpt>
      <trkpt lat="48.02" lon="-4.21635">
        <ele>144.80185414429</ele>
        <time>2022-01-14T20:10:14.035Z</time>
      </trkpt>
      <trkpt lat="48.01951" lon="-4.21533">
        <ele>146.89295951442</ele>
        <time>2022-01-14T20:10:14.073Z</time>
      </trkpt>
      <trkpt lat="48.01953" lon="-4.21528">
        <ele>148.56687724725</ele>
        <time>2022-01-14T20:10:14.111Z</time>
      </trkpt>
      <trkpt lat="48.01951" lon="-4.2152">
        <ele>149.77959904052</ele>
        <time>2022-01-14T20:10:14.150Z</time>
      </trkpt>
      <trkpt lat="48.01944" lon="-4.21516">
        <ele>150.65469256923</ele>
        <time>2022-01-14T20:10:14.190Z</time>
      </trkpt>
      <trkpt lat="48.01907" lon="-4.21435">
        <ele>151.50892366724</ele>
        <time>2022-01-14T20:10:14.241Z</time>
      </trkpt>
      <trkpt lat="48.0187" lon="-4.21354">
        <ele>152.06688838997</ele>
        <time>2022-01-14T20:10:14.302Z</time>
      </trkpt>
      <trkpt lat="48.01871" lon="-4.21344">
        <ele>152.52927923285</ele>
        <time>2022-01-14T20:10:14.364Z</time>
      </trkpt>
      <trkpt lat="48.01864" lon="-4.21339">
        <ele>152.93362941904</ele>
        <time>2022-01-14T20:10:14.428Z</time>
      </trkpt>
      <trkpt lat="48.01827" lon="-4.21266">
        <ele>153.56414817051</ele>
        <time>2022-01-14T20:10:14.502Z</time>
      </trkpt>
      <trkpt lat="48.01789" lon="-4.21193">
        <ele>154.27686552458</ele>
        <time>2022-01-14T20:10:14.585Z</time>
      </trkpt>
      <trkpt lat="48.0175" lon="-4.21108">
        <ele>155.07941362013</ele>
        <time>2022-01-14T20:10:14.680Z</time>
      </trkpt>
      <trkpt lat="48.01723" lon="-4.21042">
        <ele>155.62175476328</ele>
        <time>2022-01-14T20:10:14.783Z</time>
      </trkpt>
      <trkpt lat="48.01696" lon="-4.20977">
        <ele>155.84293358482</ele>
        <time>2022-01-14T20:10:14.894Z</time>
      </trkpt>
      <trkpt lat="48.01651" lon="-4.20884">
        <ele>155.94523451292</ele>
        <time>2022-01-14T20:10:15.017Z</time>
      </trkpt>
      <trkpt lat="48.01605" lon="-4.20792">
        <ele>156.01577326821</ele>
        <time>2022-01-14T20:10:15.153Z</time>
      </trkpt>
      <trkpt lat="48.01557" lon="-4.20691">
        <ele>155.85809895978</ele>
        <time>2022-01-14T20:10:15.302Z</time>
      </trkpt>
      <trkpt lat="48.0151" lon="-4.2059">
        <ele>155.53425721544</ele>
        <time>2022-01-14T20:10:15.464Z</time>
      </trkpt>
      <trkpt lat="48.01462" lon="-4.20489">
        <ele>155.00574901308</ele>
        <time>2022-01-14T20:10:15.639Z</time>
      </trkpt>
      <trkpt lat="48.01433" lon="-4.20428">
        <ele>154.27122482012</ele>
        <time>2022-01-14T20:10:15.822Z</time>
      </trkpt>
      <trkpt lat="48.01427" lon="-4.20432">
        <ele>153.54468551108</ele>
        <time>2022-01-14T20:10:16.007Z</time>
      </trkpt>
      <trkpt lat="48.01422" lon="-4.2043">
        <ele>152.80464730023</ele>
        <time>2022-01-14T20:10:16.192Z</time>
      </trkpt>
      <trkpt lat="48.01418" lon="-4.20413">
        <ele>152.07314190787</ele>
        <time>2022-01-14T20:10:16.379Z</time>
      </trkpt>
      <trkpt lat="48.01422" lon="-4.20406">
        <ele>151.4270556488</ele>
        <time>2022-01-14T20:10:16.567Z</time>
      </trkpt>
      <trkpt lat="48.0139" lon="-4.20345">
        <ele>150.7977201652</ele>
        <time>2022-01-14T20:10:16.764Z</time>
      </trkpt>
      <trkpt lat="48.01351" lon="-4.20277">
        <ele>150.0850791258</ele>
        <time>2022-01-14T20:10:16.970Z</time>
      </trkpt>
      <trkpt lat="48.01317" lon="-4.20228">
        <ele>149.42815410669</ele>
        <time>2022-01-14T20:10:17.184Z</time>
      </trkpt>
      <trkpt lat="48.01303" lon="-4.20202">
        <ele>148.98286280532</ele>
        <time>2022-01-14T20:10:17.401Z</time>
      </trkpt>
      <trkpt lat="48.01292" lon="-4.20176">
        <ele>148.69058123569</ele>
        <time>2022-01-14T20:10:17.622Z</time>
      </trkpt>
      <trkpt lat="48.01286" lon="-4.20155">
        <ele>148.46368987874</ele>
        <time>2022-01-14T20:10:17.845Z</time>
      </trkpt>
      <trkpt lat="48.0127" lon="-4.20054">
        <ele>148.26259801168</ele>
        <time>2022-01-14T20:10:18.079Z</time>
      </trkpt>
      <trkpt lat="48.01254" lon="-4.19952">
        <ele>148.15790988817</ele>
        <time>2022-01-14T20:10:18.325Z</time>
      </trkpt>
      <trkpt lat="48.01238" lon="-4.19851">
        <ele>148.00587796987</ele>
        <time>2022-01-14T20:10:18.582Z</time>
      </trkpt>
      <trkpt lat="48.01227" lon="-4.198">
        <ele>147.69698515682</ele>
        <time>2022-01-14T20:10:18.844Z</time>
      </trkpt>
      <trkpt lat="48.0122" lon="-4.19761">
        <ele>147.24494657686</ele>
        <time>2022-01-14T20:10:19.111Z</time>
      </trkpt>
      <trkpt lat="48.01215" lon="-4.19752">
        <ele>146.73810410285</ele>
        <time>2022-01-14T20:10:19.379Z</time>
      </trkpt>
      <trkpt lat="48.01206" lon="-4.19745">
        <ele>146.13745130682</ele>
        <time>2022-01-14T20:10:19.649Z</time>
      </trkpt>
      <trkpt lat="48.01194" lon="-4.19759">
        <ele>145.44522889229</ele>
        <time>2022-01-14T20:10:19.921Z</time>
      </trkpt>
      <trkpt lat="48.01187" lon="-4.19759">
        <ele>144.75694807855</ele>
        <time>2022-01-14T20:10:20.194Z</time>
      </trkpt>
      <trkpt lat="48.01177" lon="-4.19757">
        <ele>144.08341591704</ele>
        <time>2022-01-14T20:10:20.469Z</time>
      </trkpt>
      <trkpt lat="48.01171" lon="-4.19753">
        <ele>143.47993810644</ele>
        <time>2022-01-14T20:10:20.745Z</time>
      </trkpt>
      <trkpt lat="48.01157" lon="-4.19734">
        <ele>142.97471258475</ele>
        <time>2022-01-14T20:10:21.024Z</time>
      </trkpt>
      <trkpt lat="48.01155" lon="-4.19725">
        <ele>142.59120957078</ele>
        <time>2022-01-14T20:10:21.304Z</time>
      </trkpt>
      <trkpt lat="48.01129" lon="-4.19693">
        <ele>142.26234926376</ele>
        <time>2022-01-14T20:10:21.589Z</time>
      </trkpt>
      <trkpt lat="48.01101" lon="-4.19641">
        <ele>142.06090329394</ele>
        <time>2022-01-14T20:10:21.882Z</time>
      </trkpt>
      <trkpt lat="48.01076" lon="-4.19608">
        <ele>142.1634468802</ele>
        <time>2022-01-14T20:10:22.180Z</time>
      </trkpt>
      <trkpt lat="48.01054" lon="-4.19588">
        <ele>142.52668804748</ele>
        <time>2022-01-14T20:10:22.482Z</time>
      </trkpt>
      <trkpt lat="48.01054" lon="-4.19587">
        <ele>143.1340289774</ele>
        <time>2022-01-14T20:10:22.784Z</time>
      </trkpt>
      <trkpt lat="48.01036" lon="-4.19571">
        <ele>144.02920373004</ele>
        <time>2022-01-14T20:10:23.089Z</time>
      </trkpt>
      <trkpt lat="48.01012" lon="-4.19554">
        <ele>145.22447034309</ele>
        <time>2022-01-14T20:10:23.399Z</time>
      </trkpt>
      <trkpt lat="48.00955" lon="-4.19531">
        <ele>146.69178776197</ele>
        <time>2022-01-14T20:10:23.718Z</time>
      </trkpt>
      <trkpt lat="48.00934" lon="-4.19526">
        <ele>148.25941792953</ele>
        <time>2022-01-14T20:10:24.041Z</time>
      </trkpt>
      <trkpt lat="48.00917" lon="-4.19526">
        <ele>149.95086396844</ele>
        <time>2022-01-14T20:10:24.366Z</time>
      </trkpt>
      <trkpt lat="48.0087" lon="-4.19533">
        <ele>151.75103618419</ele>
        <time>2022-01-14T20:10:24.699Z</time>
      </trkpt>
      <trkpt lat="48.00833" lon="-4.19547">
        <ele>153.65128558406</ele>
        <time>2022-01-14T20:10:25.038Z</time>
      </trkpt>
      <trkpt lat="48.00767" lon="-4.19584">
        <ele>155.51711284186</ele>
        <time>2022-01-14T20:10:25.388Z</time>
      </trkpt>
      <trkpt lat="48.007" lon="-4.1962">
        <ele>157.48206373043</ele>
        <time>2022-01-14T20:10:25.750Z</time>
      </trkpt>
      <trkpt lat="48.00642" lon="-4.19648">
        <ele>159.31463718456</ele>
        <time>2022-01-14T20:10:26.121Z</time>
      </trkpt>
      <trkpt lat="48.00619" lon="-4.19658">
        <ele>160.5572716609</ele>
        <time>2022-01-14T20:10:26.496Z</time>
      </trkpt>
      <trkpt lat="48.0061" lon="-4.19658">
        <ele>161.37605950945</ele>
        <time>2022-01-14T20:10:26.873Z</time>
      </trkpt>
      <trkpt lat="48.00585" lon="-4.19665">
        <ele>161.77792795102</ele>
        <time>2022-01-14T20:10:27.254Z</time>
      </trkpt>
      <trkpt lat="48.00555" lon="-4.19662">
        <ele>161.69607227915</ele>
        <time>2022-01-14T20:10:27.640Z</time>
      </trkpt>
      <trkpt lat="48.00504" lon="-4.19651">
        <ele>161.05284785352</ele>
        <time>2022-01-14T20:10:28.034Z</time>
      </trkpt>
      <trkpt lat="48.00452" lon="-4.19634">
        <ele>159.89766107905</ele>
        <time>2022-01-14T20:10:28.436Z</time>
      </trkpt>
      <trkpt lat="48.00389" lon="-4.19615">
        <ele>158.32281652144</ele>
        <time>2022-01-14T20:10:28.849Z</time>
      </trkpt>
      <trkpt lat="48.00326" lon="-4.19597">
        <ele>156.51434217214</ele>
        <time>2022-01-14T20:10:29.272Z</time>
      </trkpt>
      <trkpt lat="48.00263" lon="-4.19578">
        <ele>154.34683455007</ele>
        <time>2022-01-14T20:10:29.705Z</time>
      </trkpt>
      <trkpt lat="48.00234" lon="-4.19573">
        <ele>152.12890171688</ele>
        <time>2022-01-14T20:10:30.143Z</time>
      </trkpt>
      <trkpt lat="48.002" lon="-4.19563">
        <ele>149.70948889756</ele>
        <time>2022-01-14T20:10:30.586Z</time>
      </trkpt>
      <trkpt lat="48.00143" lon="-4.19546">
        <ele>147.16867291105</ele>
        <time>2022-01-14T20:10:31.039Z</time>
      </trkpt>
      <trkpt lat="48.00087" lon="-4.19529">
        <ele>144.73450908964</ele>
        <time>2022-01-14T20:10:31.501Z</time>
      </trkpt>
      <trkpt lat="48.0004" lon="-4.19509">
        <ele>142.50404528317</ele>
        <time>2022-01-14T20:10:31.971Z</time>
      </trkpt>
      <trkpt lat="47.99992" lon="-4.19489">
        <ele>140.33994245914</ele>
        <time>2022-01-14T20:10:32.449Z</time>
      </trkpt>
      <trkpt lat="47.99908" lon="-4.19461">
        <ele>138.25506201203</ele>
        <time>2022-01-14T20:10:32.940Z</time>
      </trkpt>
      <trkpt lat="47.99889" lon="-4.19465">
        <ele>136.38800939903</ele>
        <time>2022-01-14T20:10:33.435Z</time>
      </trkpt>
      <trkpt lat="47.9988" lon="-4.19473">
        <ele>134.6397214069</ele>
        <time>2022-01-14T20:10:33.931Z</time>
      </trkpt>
      <trkpt lat="47.99874" lon="-4.19475">
        <ele>132.99966406563</ele>
        <time>2022-01-14T20:10:34.428Z</time>
      </trkpt>
      <trkpt lat="47.99867" lon="-4.19475">
        <ele>131.40952105007</ele>
        <time>2022-01-14T20:10:34.926Z</time>
      </trkpt>
      <trkpt lat="47.99857" lon="-4.19461">
        <ele>129.88000791077</ele>
        <time>2022-01-14T20:10:35.427Z</time>
      </trkpt>
      <trkpt lat="47.99854" lon="-4.19451">
        <ele>128.41817180864</ele>
        <time>2022-01-14T20:10:35.929Z</time>
      </trkpt>
      <trkpt lat="47.99844" lon="-4.1944">
        <ele>126.97268748065</ele>
        <time>2022-01-14T20:10:36.433Z</time>
      </trkpt>
      <trkpt lat="47.99787" lon="-4.1941">
        <ele>125.36429365771</ele>
        <time>2022-01-14T20:10:36.946Z</time>
      </trkpt>
      <trkpt lat="47.99732" lon="-4.19386">
        <ele>123.79235751839</ele>
        <time>2022-01-14T20:10:37.469Z</time>
      </trkpt>
      <trkpt lat="47.99676" lon="-4.19363">
        <ele>122.36227462784</ele>
        <time>2022-01-14T20:10:38.001Z</time>
      </trkpt>
      <trkpt lat="47.99676" lon="-4.19362">
        <ele>121.12744648985</ele>
        <time>2022-01-14T20:10:38.533Z</time>
      </trkpt>
      <trkpt lat="47.99607" lon="-4.19332">
        <ele>119.88225009512</ele>
        <time>2022-01-14T20:10:39.076Z</time>
      </trkpt>
      <trkpt lat="47.99578" lon="-4.19317">
        <ele>118.80569850789</ele>
        <time>2022-01-14T20:10:39.624Z</time>
      </trkpt>
      <trkpt lat="47.99546" lon="-4.19296">
        <ele>117.81869826839</ele>
        <time>2022-01-14T20:10:40.178Z</time>
      </trkpt>
      <trkpt lat="47.99478" lon="-4.19238">
        <ele>117.02804805811</ele>
        <time>2022-01-14T20:10:40.745Z</time>
      </trkpt>
      <trkpt lat="47.99453" lon="-4.19207">
        <ele>116.45912767217</ele>
        <time>2022-01-14T20:10:41.317Z</time>
      </trkpt>
      <trkpt lat="47.99409" lon="-4.19149">
        <ele>116.09448272797</ele>
        <time>2022-01-14T20:10:41.898Z</time>
      </trkpt>
      <trkpt lat="47.99364" lon="-4.1908">
        <ele>115.79638836319</ele>
        <time>2022-01-14T20:10:42.490Z</time>
      </trkpt>
      <trkpt lat="47.99318" lon="-4.19011">
        <ele>115.89460725954</ele>
        <time>2022-01-14T20:10:43.092Z</time>
      </trkpt>
      <trkpt lat="47.99255" lon="-4.18926">
        <ele>115.77181443326</ele>
        <time>2022-01-14T20:10:43.708Z</time>
      </trkpt>
      <trkpt lat="47.99229" lon="-4.18898">
        <ele>115.72174868683</ele>
        <time>2022-01-14T20:10:44.329Z</time>
      </trkpt>
      <trkpt lat="47.99191" lon="-4.18867">
        <ele>115.58817804263</ele>
        <time>2022-01-14T20:10:44.957Z</time>
      </trkpt>
      <trkpt lat="47.99168" lon="-4.18851">
        <ele>115.40729038307</ele>
        <time>2022-01-14T20:10:45.589Z</time>
      </trkpt>
      <trkpt lat="47.99111" lon="-4.18818">
        <ele>115.20577985632</ele>
        <time>2022-01-14T20:10:46.230Z</time>
      </trkpt>
      <trkpt lat="47.99074" lon="-4.18807">
        <ele>114.97828540381</ele>
        <time>2022-01-14T20:10:46.878Z</time>
      </trkpt>
      <trkpt lat="47.99059" lon="-4.18805">
        <ele>114.60590719869</ele>
        <time>2022-01-14T20:10:47.528Z</time>
      </trkpt>
      <trkpt lat="47.99059" lon="-4.18804">
        <ele>114.03256980944</ele>
        <time>2022-01-14T20:10:48.178Z</time>
      </trkpt>
      <trkpt lat="47.99038" lon="-4.18801">
        <ele>113.35602206457</ele>
        <time>2022-01-14T20:10:48.831Z</time>
      </trkpt>
      <trkpt lat="47.98959" lon="-4.18806">
        <ele>112.4709992015</ele>
        <time>2022-01-14T20:10:49.497Z</time>
      </trkpt>
      <trkpt lat="47.98881" lon="-4.1881">
        <ele>110.87758442518</ele>
        <time>2022-01-14T20:10:50.176Z</time>
      </trkpt>
      <trkpt lat="47.98802" lon="-4.18815">
        <ele>109.29587093047</ele>
        <time>2022-01-14T20:10:50.867Z</time>
      </trkpt>
      <trkpt lat="47.98749" lon="-4.18815">
        <ele>107.94012169366</ele>
        <time>2022-01-14T20:10:51.567Z</time>
      </trkpt>
      <trkpt lat="47.98702" lon="-4.18813">
        <ele>106.49231581307</ele>
        <time>2022-01-14T20:10:52.274Z</time>
      </trkpt>
      <trkpt lat="47.9865" lon="-4.18815">
        <ele>104.95127361049</ele>
        <time>2022-01-14T20:10:52.990Z</time>
      </trkpt>
      <trkpt lat="47.98596" lon="-4.18811">
        <ele>103.38577785871</ele>
        <time>2022-01-14T20:10:53.714Z</time>
      </trkpt>
      <trkpt lat="47.98527" lon="-4.18804">
        <ele>101.66051850339</ele>
        <time>2022-01-14T20:10:54.449Z</time>
      </trkpt>
      <trkpt lat="47.98459" lon="-4.18797">
        <ele>100.09335768529</ele>
        <time>2022-01-14T20:10:55.195Z</time>
      </trkpt>
      <trkpt lat="47.9839" lon="-4.1879">
        <ele>98.23696208368</ele>
        <time>2022-01-14T20:10:55.952Z</time>
      </trkpt>
      <trkpt lat="47.98321" lon="-4.18783">
        <ele>96.27905286111</ele>
        <time>2022-01-14T20:10:56.720Z</time>
      </trkpt>
      <trkpt lat="47.9824" lon="-4.1878">
        <ele>94.38968961865</ele>
        <time>2022-01-14T20:10:57.501Z</time>
      </trkpt>
      <trkpt lat="47.98184" lon="-4.18783">
        <ele>92.76826314332</ele>
        <time>2022-01-14T20:10:58.291Z</time>
      </trkpt>
      <trkpt lat="47.98129" lon="-4.18785">
        <ele>91.11321123569</ele>
        <time>2022-01-14T20:10:59.090Z</time>
      </trkpt>
      <trkpt lat="47.98069" lon="-4.18793">
        <ele>89.75817018078</ele>
        <time>2022-01-14T20:10:59.899Z</time>
      </trkpt>
      <trkpt lat="47.98008" lon="-4.188">
        <ele>88.6079240045</ele>
        <time>2022-01-14T20:11:00.718Z</time>
      </trkpt>
      <trkpt lat="47.97946" lon="-4.18814">
        <ele>87.74889830511</ele>
        <time>2022-01-14T20:11:01.547Z</time>
      </trkpt>
      <trkpt lat="47.9793" lon="-4.1882">
        <ele>87.08913851889</ele>
        <time>2022-01-14T20:11:02.378Z</time>
      </trkpt>
      <trkpt lat="47.9792" lon="-4.18828">
        <ele>86.61775853743</ele>
        <time>2022-01-14T20:11:03.211Z</time>
      </trkpt>
      <trkpt lat="47.97918" lon="-4.18837">
        <ele>86.3432256304</ele>
        <time>2022-01-14T20:11:04.045Z</time>
      </trkpt>
      <trkpt lat="47.97909" lon="-4.18846">
        <ele>86.23624645124</ele>
        <time>2022-01-14T20:11:04.881Z</time>
      </trkpt>
      <trkpt lat="47.97899" lon="-4.18865">
        <ele>86.29925871183</ele>
        <time>2022-01-14T20:11:05.719Z</time>
      </trkpt>
      <trkpt lat="47.97887" lon="-4.18936">
        <ele>86.54041027931</ele>
        <time>2022-01-14T20:11:06.565Z</time>
      </trkpt>
      <trkpt lat="47.9788" lon="-4.19017">
        <ele>86.68074016856</ele>
        <time>2022-01-14T20:11:07.420Z</time>
      </trkpt>
      <trkpt lat="47.97873" lon="-4.19097">
        <ele>86.95296178221</ele>
        <time>2022-01-14T20:11:08.284Z</time>
      </trkpt>
      <trkpt lat="47.9787" lon="-4.1917">
        <ele>87.31009653895</ele>
        <time>2022-01-14T20:11:09.156Z</time>
      </trkpt>
      <trkpt lat="47.97867" lon="-4.19242">
        <ele>87.78091953126</ele>
        <time>2022-01-14T20:11:10.035Z</time>
      </trkpt>
      <trkpt lat="47.97859" lon="-4.19365">
        <ele>88.62128803708</ele>
        <time>2022-01-14T20:11:10.928Z</time>
      </trkpt>
      <trkpt lat="47.9781" lon="-4.19343">
        <ele>89.12067488833</ele>
        <time>2022-01-14T20:11:11.829Z</time>
      </trkpt>
      <trkpt lat="47.97809" lon="-4.19343">
        <ele>89.73181929433</ele>
        <time>2022-01-14T20:11:12.730Z</time>
      </trkpt>
      <trkpt lat="47.97736" lon="-4.1931">
        <ele>90.1769760998</ele>
        <time>2022-01-14T20:11:13.643Z</time>
      </trkpt>
      <trkpt lat="47.97663" lon="-4.19278">
        <ele>90.86253650044</ele>
        <time>2022-01-14T20:11:14.568Z</time>
      </trkpt>
      <trkpt lat="47.97601" lon="-4.19256">
        <ele>91.52587420942</ele>
        <time>2022-01-14T20:11:15.504Z</time>
      </trkpt>
      <trkpt lat="47.97539" lon="-4.19255">
        <ele>92.22213586411</ele>
        <time>2022-01-14T20:11:16.450Z</time>
      </trkpt>
      <trkpt lat="47.97476" lon="-4.19255">
        <ele>92.73130758783</ele>
        <time>2022-01-14T20:11:17.406Z</time>
      </trkpt>
      <trkpt lat="47.97444" lon="-4.19228">
        <ele>93.08053844797</ele>
        <time>2022-01-14T20:11:18.367Z</time>
      </trkpt>
      <trkpt lat="47.97431" lon="-4.19214">
        <ele>93.22633460242</ele>
        <time>2022-01-14T20:11:19.331Z</time>
      </trkpt>
      <trkpt lat="47.97379" lon="-4.19112">
        <ele>93.24267839469</ele>
        <time>2022-01-14T20:11:20.309Z</time>
      </trkpt>
      <trkpt lat="47.97377" lon="-4.19105">
        <ele>93.127438491</ele>
        <time>2022-01-14T20:11:21.288Z</time>
      </trkpt>
      <trkpt lat="47.97364" lon="-4.19083">
        <ele>92.80248811099</ele>
        <time>2022-01-14T20:11:22.270Z</time>
      </trkpt>
      <trkpt lat="47.97341" lon="-4.19065">
        <ele>92.35007257438</ele>
        <time>2022-01-14T20:11:23.256Z</time>
      </trkpt>
      <trkpt lat="47.97275" lon="-4.19016">
        <ele>91.63924222088</ele>
        <time>2022-01-14T20:11:24.254Z</time>
      </trkpt>
      <trkpt lat="47.97209" lon="-4.18968">
        <ele>90.84001369772</ele>
        <time>2022-01-14T20:11:25.264Z</time>
      </trkpt>
      <trkpt lat="47.97142" lon="-4.18919">
        <ele>90.06585945147</ele>
        <time>2022-01-14T20:11:26.285Z</time>
      </trkpt>
      <trkpt lat="47.97076" lon="-4.18871">
        <ele>89.2018313443</ele>
        <time>2022-01-14T20:11:27.318Z</time>
      </trkpt>
      <trkpt lat="47.97038" lon="-4.18846">
        <ele>88.13663783684</ele>
        <time>2022-01-14T20:11:28.358Z</time>
      </trkpt>
      <trkpt lat="47.97" lon="-4.18829">
        <ele>86.91206816315</ele>
        <time>2022-01-14T20:11:29.404Z</time>
      </trkpt>
      <trkpt lat="47.9693" lon="-4.18807">
        <ele>85.74160991112</ele>
        <time>2022-01-14T20:11:30.462Z</time>
      </trkpt>
      <trkpt lat="47.9686" lon="-4.18785">
        <ele>84.52279863794</ele>
        <time>2022-01-14T20:11:31.531Z</time>
      </trkpt>
      <trkpt lat="47.96834" lon="-4.1878">
        <ele>83.34694172423</ele>
        <time>2022-01-14T20:11:32.604Z</time>
      </trkpt>
      <trkpt lat="47.96786" lon="-4.18778">
        <ele>82.20766019979</ele>
        <time>2022-01-14T20:11:33.685Z</time>
      </trkpt>
      <trkpt lat="47.96729" lon="-4.18769">
        <ele>81.28157974192</ele>
        <time>2022-01-14T20:11:34.775Z</time>
      </trkpt>
      <trkpt lat="47.96664" lon="-4.18747">
        <ele>80.60910681559</ele>
        <time>2022-01-14T20:11:35.876Z</time>
      </trkpt>
      <trkpt lat="47.96599" lon="-4.18725">
        <ele>79.92615861106</ele>
        <time>2022-01-14T20:11:36.988Z</time>
      </trkpt>
      <trkpt lat="47.96513" lon="-4.18701">
        <ele>79.36136771215</ele>
        <time>2022-01-14T20:11:38.114Z</time>
      </trkpt>
      <trkpt lat="47.96476" lon="-4.18694">
        <ele>78.98103070936</ele>
        <time>2022-01-14T20:11:39.246Z</time>
      </trkpt>
      <trkpt lat="47.96447" lon="-4.18687">
        <ele>78.86920685768</ele>
        <time>2022-01-14T20:11:40.382Z</time>
      </trkpt>
      <trkpt lat="47.96441" lon="-4.18689">
        <ele>79.06142628965</ele>
        <time>2022-01-14T20:11:41.519Z</time>
      </trkpt>
      <trkpt lat="47.96392" lon="-4.18679">
        <ele>79.48006891335</ele>
        <time>2022-01-14T20:11:42.664Z</time>
      </trkpt>
      <trkpt lat="47.96343" lon="-4.1867">
        <ele>80.16479782998</ele>
        <time>2022-01-14T20:11:43.817Z</time>
      </trkpt>
      <trkpt lat="47.9631" lon="-4.18661">
        <ele>81.01167094447</ele>
        <time>2022-01-14T20:11:44.975Z</time>
      </trkpt>
      <trkpt lat="47.96281" lon="-4.18649">
        <ele>81.9719257825</ele>
        <time>2022-01-14T20:11:46.138Z</time>
      </trkpt>
      <trkpt lat="47.96223" lon="-4.18619">
        <ele>82.99144826294</ele>
        <time>2022-01-14T20:11:47.311Z</time>
      </trkpt>
      <trkpt lat="47.96165" lon="-4.18589">
        <ele>83.97630104354</ele>
        <time>2022-01-14T20:11:48.494Z</time>
      </trkpt>
      <trkpt lat="47.96153" lon="-4.18588">
        <ele>84.67696561495</ele>
        <time>2022-01-14T20:11:49.679Z</time>
      </trkpt>
      <trkpt lat="47.96129" lon="-4.1859">
        <ele>85.13097505464</ele>
        <time>2022-01-14T20:11:50.868Z</time>
      </trkpt>
      <trkpt lat="47.96091" lon="-4.18609">
        <ele>85.1640189104</ele>
        <time>2022-01-14T20:11:52.063Z</time>
      </trkpt>
      <trkpt lat="47.9608" lon="-4.18624">
        <ele>85.00423144809</ele>
        <time>2022-01-14T20:11:53.260Z</time>
      </trkpt>
      <trkpt lat="47.96079" lon="-4.18624">
        <ele>84.70062565128</ele>
        <time>2022-01-14T20:11:54.458Z</time>
      </trkpt>
      <trkpt lat="47.96067" lon="-4.18651">
        <ele>84.07868224643</ele>
        <time>2022-01-14T20:11:55.659Z</time>
      </trkpt>
      <trkpt lat="47.96044" lon="-4.18727">
        <ele>83.17050083365</ele>
        <time>2022-01-14T20:11:56.869Z</time>
      </trkpt>
      <trkpt lat="47.96018" lon="-4.18801">
        <ele>82.16121313459</ele>
        <time>2022-01-14T20:11:58.088Z</time>
      </trkpt>
      <trkpt lat="47.95991" lon="-4.18874">
        <ele>81.06668475768</ele>
        <time>2022-01-14T20:11:59.316Z</time>
      </trkpt>
      <trkpt lat="47.9597" lon="-4.1892">
        <ele>79.82628889073</ele>
        <time>2022-01-14T20:12:00.550Z</time>
      </trkpt>
      <trkpt lat="47.95945" lon="-4.18995">
        <ele>78.49330942586</ele>
        <time>2022-01-14T20:12:01.793Z</time>
      </trkpt>
      <trkpt lat="47.9592" lon="-4.19069">
        <ele>77.04901380813</ele>
        <time>2022-01-14T20:12:03.045Z</time>
      </trkpt>
      <trkpt lat="47.95913" lon="-4.19104">
        <ele>75.65257649362</ele>
        <time>2022-01-14T20:12:04.301Z</time>
      </trkpt>
      <trkpt lat="47.95903" lon="-4.19181">
        <ele>74.2384763532</ele>
        <time>2022-01-14T20:12:05.565Z</time>
      </trkpt>
      <trkpt lat="47.95896" lon="-4.19219">
        <ele>72.64394510371</ele>
        <time>2022-01-14T20:12:06.834Z</time>
      </trkpt>
      <trkpt lat="47.95884" lon="-4.19254">
        <ele>71.00249842857</ele>
        <time>2022-01-14T20:12:08.107Z</time>
      </trkpt>
      <trkpt lat="47.95844" lon="-4.1933">
        <ele>69.07532932222</ele>
        <time>2022-01-14T20:12:09.390Z</time>
      </trkpt>
      <trkpt lat="47.95822" lon="-4.19355">
        <ele>67.08639440452</ele>
        <time>2022-01-14T20:12:10.678Z</time>
      </trkpt>
      <trkpt lat="47.95744" lon="-4.19413">
        <ele>65.11348462385</ele>
        <time>2022-01-14T20:12:11.980Z</time>
      </trkpt>
      <trkpt lat="47.95689" lon="-4.19453">
        <ele>63.01053524236</ele>
        <time>2022-01-14T20:12:13.291Z</time>
      </trkpt>
      <trkpt lat="47.95633" lon="-4.19493">
        <ele>60.93115998876</ele>
        <time>2022-01-14T20:12:14.612Z</time>
      </trkpt>
      <trkpt lat="47.95578" lon="-4.19533">
        <ele>58.72555771232</ele>
        <time>2022-01-14T20:12:15.943Z</time>
      </trkpt>
      <trkpt lat="47.95543" lon="-4.1954">
        <ele>56.60954792806</ele>
        <time>2022-01-14T20:12:17.280Z</time>
      </trkpt>
      <trkpt lat="47.95463" lon="-4.1955">
        <ele>54.13554226514</ele>
        <time>2022-01-14T20:12:18.630Z</time>
      </trkpt>
      <trkpt lat="47.95432" lon="-4.19543">
        <ele>52.13841368653</ele>
        <time>2022-01-14T20:12:19.985Z</time>
      </trkpt>
      <trkpt lat="47.95406" lon="-4.19529">
        <ele>50.43208113818</ele>
        <time>2022-01-14T20:12:21.344Z</time>
      </trkpt>
      <trkpt lat="47.95347" lon="-4.1951">
        <ele>48.98996617481</ele>
        <time>2022-01-14T20:12:22.713Z</time>
      </trkpt>
      <trkpt lat="47.95287" lon="-4.19491">
        <ele>47.57829438789</ele>
        <time>2022-01-14T20:12:24.092Z</time>
      </trkpt>
      <trkpt lat="47.95252" lon="-4.19461">
        <ele>46.46887819713</ele>
        <time>2022-01-14T20:12:25.477Z</time>
      </trkpt>
      <trkpt lat="47.95221" lon="-4.19426">
        <ele>45.38180249783</ele>
        <time>2022-01-14T20:12:26.868Z</time>
      </trkpt>
      <trkpt lat="47.95177" lon="-4.1936">
        <ele>44.6462581295</ele>
        <time>2022-01-14T20:12:28.269Z</time>
      </trkpt>
      <trkpt lat="47.95164" lon="-4.19345">
        <ele>44.22380492863</ele>
        <time>2022-01-14T20:12:29.673Z</time>
      </trkpt>
      <trkpt lat="47.95151" lon="-4.19341">
        <ele>44.00684302822</ele>
        <time>2022-01-14T20:12:31.079Z</time>
      </trkpt>
      <trkpt lat="47.95089" lon="-4.19306">
        <ele>43.87005724633</ele>
        <time>2022-01-14T20:12:32.496Z</time>
      </trkpt>
      <trkpt lat="47.95067" lon="-4.193">
        <ele>44.02264043554</ele>
        <time>2022-01-14T20:12:33.916Z</time>
      </trkpt>
      <trkpt lat="47.9506" lon="-4.19367">
        <ele>44.64590583461</ele>
        <time>2022-01-14T20:12:35.343Z</time>
      </trkpt>
      <trkpt lat="47.95047" lon="-4.19423">
        <ele>45.48496204254</ele>
        <time>2022-01-14T20:12:36.777Z</time>
      </trkpt>
      <trkpt lat="47.95025" lon="-4.19484">
        <ele>46.54888807992</ele>
        <time>2022-01-14T20:12:38.218Z</time>
      </trkpt>
      <trkpt lat="47.95019" lon="-4.19496">
        <ele>47.53266067651</ele>
        <time>2022-01-14T20:12:39.661Z</time>
      </trkpt>
      <trkpt lat="47.95019" lon="-4.19497">
        <ele>48.54186523438</ele>
        <time>2022-01-14T20:12:41.104Z</time>
      </trkpt>
      <trkpt lat="47.94972" lon="-4.19595">
        <ele>49.79418234496</ele>
        <time>2022-01-14T20:12:42.560Z</time>
      </trkpt>
      <trkpt lat="47.94924" lon="-4.19693">
        <ele>50.96364537783</ele>
        <time>2022-01-14T20:12:44.029Z</time>
      </trkpt>
      <trkpt lat="47.94886" lon="-4.19794">
        <ele>52.04460441619</ele>
        <time>2022-01-14T20:12:45.510Z</time>
      </trkpt>
      <trkpt lat="47.94851" lon="-4.19911">
        <ele>52.71470669837</ele>
        <time>2022-01-14T20:12:47.005Z</time>
      </trkpt>
      <trkpt lat="47.94819" lon="-4.2">
        <ele>53.23711282207</ele>
        <time>2022-01-14T20:12:48.511Z</time>
      </trkpt>
      <trkpt lat="47.94789" lon="-4.20073">
        <ele>53.95415432963</ele>
        <time>2022-01-14T20:12:50.026Z</time>
      </trkpt>
      <trkpt lat="47.94741" lon="-4.2016">
        <ele>54.88522351445</ele>
        <time>2022-01-14T20:12:51.553Z</time>
      </trkpt>
      <trkpt lat="47.94681" lon="-4.20254">
        <ele>55.89790579837</ele>
        <time>2022-01-14T20:12:53.094Z</time>
      </trkpt>
      <trkpt lat="47.94652" lon="-4.20304">
        <ele>57.12084888536</ele>
        <time>2022-01-14T20:12:54.642Z</time>
      </trkpt>
      <trkpt lat="47.94632" lon="-4.2035">
        <ele>58.43317929266</ele>
        <time>2022-01-14T20:12:56.196Z</time>
      </trkpt>
      <trkpt lat="47.94619" lon="-4.20397">
        <ele>59.89684638632</ele>
        <time>2022-01-14T20:12:57.756Z</time>
      </trkpt>
      <trkpt lat="47.94612" lon="-4.20441">
        <ele>61.34121373524</ele>
        <time>2022-01-14T20:12:59.321Z</time>
      </trkpt>
      <trkpt lat="47.94601" lon="-4.20566">
        <ele>62.69669198431</ele>
        <time>2022-01-14T20:13:00.899Z</time>
      </trkpt>
      <trkpt lat="47.94591" lon="-4.20645">
        <ele>63.85921852846</ele>
        <time>2022-01-14T20:13:02.486Z</time>
      </trkpt>
      <trkpt lat="47.94579" lon="-4.20716">
        <ele>64.81609602394</ele>
        <time>2022-01-14T20:13:04.081Z</time>
      </trkpt>
      <trkpt lat="47.94559" lon="-4.20815">
        <ele>65.69343200675</ele>
        <time>2022-01-14T20:13:05.687Z</time>
      </trkpt>
      <trkpt lat="47.94559" lon="-4.20815">
        <ele>66.42353001214</ele>
        <time>2022-01-14T20:13:07.293Z</time>
      </trkpt>
      <trkpt lat="47.94559" lon="-4.20815">
        <ele>67.02157380952</ele>
        <time>2022-01-14T20:13:08.899Z</time>
      </trkpt>
      <trkpt lat="47.94545" lon="-4.20887">
        <ele>67.63243725129</ele>
        <time>2022-01-14T20:13:10.513Z</time>
      </trkpt>
      <trkpt lat="47.94535" lon="-4.20922">
        <ele>68.01658464514</ele>
        <time>2022-01-14T20:13:12.131Z</time>
      </trkpt>
      <trkpt lat="47.94535" lon="-4.20923">
        <ele>68.28426552632</ele>
        <time>2022-01-14T20:13:13.749Z</time>
      </trkpt>
      <trkpt lat="47.94523" lon="-4.20969">
        <ele>68.47140148529</ele>
        <time>2022-01-14T20:13:15.373Z</time>
      </trkpt>
      <trkpt lat="47.94508" lon="-4.21004">
        <ele>68.64297337669</ele>
        <time>2022-01-14T20:13:17.001Z</time>
      </trkpt>
      <trkpt lat="47.94495" lon="-4.21028">
        <ele>68.78884931981</ele>
        <time>2022-01-14T20:13:18.632Z</time>
      </trkpt>
      <trkpt lat="47.9448" lon="-4.21047">
        <ele>68.99009962629</ele>
        <time>2022-01-14T20:13:20.266Z</time>
      </trkpt>
      <trkpt lat="47.94458" lon="-4.21068">
        <ele>69.25208197107</ele>
        <time>2022-01-14T20:13:21.905Z</time>
      </trkpt>
      <trkpt lat="47.94435" lon="-4.21084">
        <ele>69.70831004599</ele>
        <time>2022-01-14T20:13:23.548Z</time>
      </trkpt>
      <trkpt lat="47.94418" lon="-4.21093">
        <ele>70.336040436</ele>
        <time>2022-01-14T20:13:25.194Z</time>
      </trkpt>
      <trkpt lat="47.94385" lon="-4.21105">
        <ele>71.10646190957</ele>
        <time>2022-01-14T20:13:26.845Z</time>
      </trkpt>
      <trkpt lat="47.94324" lon="-4.21119">
        <ele>72.13660385126</ele>
        <time>2022-01-14T20:13:28.506Z</time>
      </trkpt>
      <trkpt lat="47.94252" lon="-4.2114">
        <ele>73.43518777711</ele>
        <time>2022-01-14T20:13:30.179Z</time>
      </trkpt>
      <trkpt lat="47.94201" lon="-4.21159">
        <ele>74.78585416091</ele>
        <time>2022-01-14T20:13:31.860Z</time>
      </trkpt>
      <trkpt lat="47.94183" lon="-4.21169">
        <ele>75.98500693207</ele>
        <time>2022-01-14T20:13:33.544Z</time>
      </trkpt>
      <trkpt lat="47.9414" lon="-4.21199">
        <ele>77.18072749287</ele>
        <time>2022-01-14T20:13:35.236Z</time>
      </trkpt>
      <trkpt lat="47.94084" lon="-4.21257">
        <ele>78.27618608658</ele>
        <time>2022-01-14T20:13:36.939Z</time>
      </trkpt>
      <trkpt lat="47.94059" lon="-4.21288">
        <ele>79.25072409273</ele>
        <time>2022-01-14T20:13:38.647Z</time>
      </trkpt>
      <trkpt lat="47.94026" lon="-4.21344">
        <ele>80.09632555053</ele>
        <time>2022-01-14T20:13:40.363Z</time>
      </trkpt>
      <trkpt lat="47.93993" lon="-4.214">
        <ele>80.59376622881</ele>
        <time>2022-01-14T20:13:42.087Z</time>
      </trkpt>
      <trkpt lat="47.93993" lon="-4.21401">
        <ele>80.78810001583</ele>
        <time>2022-01-14T20:13:43.811Z</time>
      </trkpt>
      <trkpt lat="47.9394" lon="-4.21492">
        <ele>80.60955805146</ele>
        <time>2022-01-14T20:13:45.548Z</time>
      </trkpt>
      <trkpt lat="47.93928" lon="-4.21476">
        <ele>80.18694154239</ele>
        <time>2022-01-14T20:13:47.288Z</time>
      </trkpt>
      <trkpt lat="47.93864" lon="-4.2142">
        <ele>79.36002005622</ele>
        <time>2022-01-14T20:13:49.039Z</time>
      </trkpt>
      <trkpt lat="47.93864" lon="-4.21419">
        <ele>78.33733785308</ele>
        <time>2022-01-14T20:13:50.791Z</time>
      </trkpt>
      <trkpt lat="47.93826" lon="-4.21391">
        <ele>76.96399444494</ele>
        <time>2022-01-14T20:13:52.549Z</time>
      </trkpt>
      <trkpt lat="47.93797" lon="-4.21375">
        <ele>75.38556550661</ele>
        <time>2022-01-14T20:13:54.312Z</time>
      </trkpt>
      <trkpt lat="47.93721" lon="-4.21349">
        <ele>73.65244765647</ele>
        <time>2022-01-14T20:13:56.088Z</time>
      </trkpt>
      <trkpt lat="47.93645" lon="-4.21312">
        <ele>71.76704080117</ele>
        <time>2022-01-14T20:13:57.877Z</time>
      </trkpt>
      <trkpt lat="47.93604" lon="-4.213">
        <ele>69.67046865458</ele>
        <time>2022-01-14T20:13:59.672Z</time>
      </trkpt>
      <trkpt lat="47.93539" lon="-4.21283">
        <ele>67.55567745729</ele>
        <time>2022-01-14T20:14:01.478Z</time>
      </trkpt>
      <trkpt lat="47.93475" lon="-4.21267">
        <ele>65.58792331835</ele>
        <time>2022-01-14T20:14:03.294Z</time>
      </trkpt>
      <trkpt lat="47.93387" lon="-4.21241">
        <ele>63.7535640292</ele>
        <time>2022-01-14T20:14:05.125Z</time>
      </trkpt>
      <trkpt lat="47.93308" lon="-4.21223">
        <ele>62.0420997531</ele>
        <time>2022-01-14T20:14:06.968Z</time>
      </trkpt>
      <trkpt lat="47.93286" lon="-4.2122">
        <ele>60.73148157148</ele>
        <time>2022-01-14T20:14:08.815Z</time>
      </trkpt>
      <trkpt lat="47.9324" lon="-4.21224">
        <ele>59.80810573491</ele>
        <time>2022-01-14T20:14:10.669Z</time>
      </trkpt>
      <trkpt lat="47.93194" lon="-4.21227">
        <ele>59.09434069549</ele>
        <time>2022-01-14T20:14:12.531Z</time>
      </trkpt>
      <trkpt lat="47.93164" lon="-4.21223">
        <ele>58.55776403178</ele>
        <time>2022-01-14T20:14:14.398Z</time>
      </trkpt>
      <trkpt lat="47.93118" lon="-4.2121">
        <ele>58.37280795166</ele>
        <time>2022-01-14T20:14:16.272Z</time>
      </trkpt>
      <trkpt lat="47.93072" lon="-4.21197">
        <ele>58.21054486131</ele>
        <time>2022-01-14T20:14:18.154Z</time>
      </trkpt>
      <trkpt lat="47.93011" lon="-4.21178">
        <ele>58.27881661172</ele>
        <time>2022-01-14T20:14:20.046Z</time>
      </trkpt>
      <trkpt lat="47.92938" lon="-4.21137">
        <ele>58.19652169467</ele>
        <time>2022-01-14T20:14:21.950Z</time>
      </trkpt>
      <trkpt lat="47.92865" lon="-4.21095">
        <ele>58.26014135357</ele>
        <time>2022-01-14T20:14:23.867Z</time>
      </trkpt>
      <trkpt lat="47.92792" lon="-4.21054">
        <ele>58.57276455034</ele>
        <time>2022-01-14T20:14:25.796Z</time>
      </trkpt>
      <trkpt lat="47.92729" lon="-4.21015">
        <ele>58.93584985883</ele>
        <time>2022-01-14T20:14:27.736Z</time>
      </trkpt>
      <trkpt lat="47.92666" lon="-4.20976">
        <ele>59.34530398438</ele>
        <time>2022-01-14T20:14:29.687Z</time>
      </trkpt>
      <trkpt lat="47.92623" lon="-4.20947">
        <ele>59.77944886855</ele>
        <time>2022-01-14T20:14:31.645Z</time>
      </trkpt>
      <trkpt lat="47.92593" lon="-4.20896">
        <ele>60.43392776788</ele>
        <time>2022-01-14T20:14:33.611Z</time>
      </trkpt>
      <trkpt lat="47.92562" lon="-4.20845">
        <ele>61.12878444635</ele>
        <time>2022-01-14T20:14:35.584Z</time>
      </trkpt>
      <trkpt lat="47.92553" lon="-4.20838">
        <ele>61.75241038669</ele>
        <time>2022-01-14T20:14:37.559Z</time>
      </trkpt>
      <trkpt lat="47.92517" lon="-4.20821">
        <ele>62.36857307458</ele>
        <time>2022-01-14T20:14:39.540Z</time>
      </trkpt>
      <trkpt lat="47.92502" lon="-4.20818">
        <ele>62.88144091451</ele>
        <time>2022-01-14T20:14:41.523Z</time>
      </trkpt>
      <trkpt lat="47.92449" lon="-4.20833">
        <ele>63.27966118052</ele>
        <time>2022-01-14T20:14:43.515Z</time>
      </trkpt>
      <trkpt lat="47.92448" lon="-4.20833">
        <ele>63.6365766497</ele>
        <time>2022-01-14T20:14:45.507Z</time>
      </trkpt>
      <trkpt lat="47.92405" lon="-4.20845">
        <ele>63.90600688774</ele>
        <time>2022-01-14T20:14:47.506Z</time>
      </trkpt>
      <trkpt lat="47.92386" lon="-4.20864">
        <ele>63.97173228892</ele>
        <time>2022-01-14T20:14:49.509Z</time>
      </trkpt>
      <trkpt lat="47.92331" lon="-4.20932">
        <ele>64.03561423005</ele>
        <time>2022-01-14T20:14:51.523Z</time>
      </trkpt>
      <trkpt lat="47.92315" lon="-4.20948">
        <ele>63.94783919477</ele>
        <time>2022-01-14T20:14:53.540Z</time>
      </trkpt>
      <trkpt lat="47.92303" lon="-4.20955">
        <ele>63.66063645316</ele>
        <time>2022-01-14T20:14:55.559Z</time>
      </trkpt>
      <trkpt lat="47.92294" lon="-4.20957">
        <ele>63.18114646102</ele>
        <time>2022-01-14T20:14:57.580Z</time>
      </trkpt>
      <trkpt lat="47.92217" lon="-4.20953">
        <ele>62.38958727845</ele>
        <time>2022-01-14T20:14:59.613Z</time>
      </trkpt>
      <trkpt lat="47.92203" lon="-4.20948">
        <ele>61.520066994</ele>
        <time>2022-01-14T20:15:01.648Z</time>
      </trkpt>
      <trkpt lat="47.92145" lon="-4.20926">
        <ele>60.35185006883</ele>
        <time>2022-01-14T20:15:03.693Z</time>
      </trkpt>
      <trkpt lat="47.92086" lon="-4.20904">
        <ele>59.14521113955</ele>
        <time>2022-01-14T20:15:05.748Z</time>
      </trkpt>
      <trkpt lat="47.92028" lon="-4.20882">
        <ele>57.94322921935</ele>
        <time>2022-01-14T20:15:07.812Z</time>
      </trkpt>
      <trkpt lat="47.91949" lon="-4.2086">
        <ele>56.85737251658</ele>
        <time>2022-01-14T20:15:09.889Z</time>
      </trkpt>
      <trkpt lat="47.91877" lon="-4.20831">
        <ele>55.7390543245</ele>
        <time>2022-01-14T20:15:11.978Z</time>
      </trkpt>
      <trkpt lat="47.9183" lon="-4.20803">
        <ele>54.61877663999</ele>
        <time>2022-01-14T20:15:14.075Z</time>
      </trkpt>
      <trkpt lat="47.91816" lon="-4.20786">
        <ele>53.52883535896</ele>
        <time>2022-01-14T20:15:16.175Z</time>
      </trkpt>
      <trkpt lat="47.91795" lon="-4.20751">
        <ele>52.51284908392</ele>
        <time>2022-01-14T20:15:18.280Z</time>
      </trkpt>
      <trkpt lat="47.9178" lon="-4.2073">
        <ele>51.60945493231</ele>
        <time>2022-01-14T20:15:20.388Z</time>
      </trkpt>
      <trkpt lat="47.91764" lon="-4.20718">
        <ele>50.80450070451</ele>
        <time>2022-01-14T20:15:22.499Z</time>
      </trkpt>
      <trkpt lat="47.91752" lon="-4.20713">
        <ele>50.03784385603</ele>
        <time>2022-01-14T20:15:24.612Z</time>
      </trkpt>
      <trkpt lat="47.91686" lon="-4.20697">
        <ele>49.15105670926</ele>
        <time>2022-01-14T20:15:26.736Z</time>
      </trkpt>
      <trkpt lat="47.91649" lon="-4.20697">
        <ele>48.57030712908</ele>
        <time>2022-01-14T20:15:28.866Z</time>
      </trkpt>
      <trkpt lat="47.91601" lon="-4.20702">
        <ele>48.08369660266</ele>
        <time>2022-01-14T20:15:31.004Z</time>
      </trkpt>
      <trkpt lat="47.91538" lon="-4.20702">
        <ele>47.68638316568</ele>
        <time>2022-01-14T20:15:33.152Z</time>
      </trkpt>
      <trkpt lat="47.91487" lon="-4.20693">
        <ele>47.56217494238</ele>
        <time>2022-01-14T20:15:35.308Z</time>
      </trkpt>
      <trkpt lat="47.91435" lon="-4.20685">
        <ele>47.42063603658</ele>
        <time>2022-01-14T20:15:37.472Z</time>
      </trkpt>
      <trkpt lat="47.91434" lon="-4.20685">
        <ele>47.33520262968</ele>
        <time>2022-01-14T20:15:39.637Z</time>
      </trkpt>
      <trkpt lat="47.91406" lon="-4.20681">
        <ele>47.29323431365</ele>
        <time>2022-01-14T20:15:41.806Z</time>
      </trkpt>
      <trkpt lat="47.91395" lon="-4.20681">
        <ele>47.30751372936</ele>
        <time>2022-01-14T20:15:43.977Z</time>
      </trkpt>
      <trkpt lat="47.91379" lon="-4.20683">
        <ele>47.34490326492</ele>
        <time>2022-01-14T20:15:46.150Z</time>
      </trkpt>
      <trkpt lat="47.9137" lon="-4.20688">
        <ele>47.43276916158</ele>
        <time>2022-01-14T20:15:48.325Z</time>
      </trkpt>
      <trkpt lat="47.91333" lon="-4.20718">
        <ele>47.54953126251</ele>
        <time>2022-01-14T20:15:50.507Z</time>
      </trkpt>
      <trkpt lat="47.91309" lon="-4.20742">
        <ele>47.68231571176</ele>
        <time>2022-01-14T20:15:52.693Z</time>
      </trkpt>
      <trkpt lat="47.9129" lon="-4.20765">
        <ele>47.8648822818</ele>
        <time>2022-01-14T20:15:54.883Z</time>
      </trkpt>
      <trkpt lat="47.91264" lon="-4.20819">
        <ele>47.97601473696</ele>
        <time>2022-01-14T20:15:57.080Z</time>
      </trkpt>
      <trkpt lat="47.91225" lon="-4.20864">
        <ele>48.05200587391</ele>
        <time>2022-01-14T20:15:59.285Z</time>
      </trkpt>
      <trkpt lat="47.91207" lon="-4.2088">
        <ele>48.18301719061</ele>
        <time>2022-01-14T20:16:01.494Z</time>
      </trkpt>
      <trkpt lat="47.91191" lon="-4.20906">
        <ele>48.30284545976</ele>
        <time>2022-01-14T20:16:03.706Z</time>
      </trkpt>
      <trkpt lat="47.91162" lon="-4.20927">
        <ele>48.43277873808</ele>
        <time>2022-01-14T20:16:05.924Z</time>
      </trkpt>
      <trkpt lat="47.91134" lon="-4.20941">
        <ele>48.52514770249</ele>
        <time>2022-01-14T20:16:08.146Z</time>
      </trkpt>
      <trkpt lat="47.91089" lon="-4.20955">
        <ele>48.56544605258</ele>
        <time>2022-01-14T20:16:10.376Z</time>
      </trkpt>
      <trkpt lat="47.91025" lon="-4.20989">
        <ele>48.63270741545</ele>
        <time>2022-01-14T20:16:12.617Z</time>
      </trkpt>
      <trkpt lat="47.90989" lon="-4.21011">
        <ele>48.50519130548</ele>
        <time>2022-01-14T20:16:14.864Z</time>
      </trkpt>
      <trkpt lat="47.90967" lon="-4.21032">
        <ele>48.27925997368</ele>
        <time>2022-01-14T20:16:17.115Z</time>
      </trkpt>
      <trkpt lat="47.90904" lon="-4.21102">
        <ele>47.965748608</ele>
        <time>2022-01-14T20:16:19.378Z</time>
      </trkpt>
      <trkpt lat="47.90841" lon="-4.21171">
        <ele>47.75939575561</ele>
        <time>2022-01-14T20:16:21.654Z</time>
      </trkpt>
      <trkpt lat="47.9084" lon="-4.21172">
        <ele>47.41213561029</ele>
        <time>2022-01-14T20:16:23.930Z</time>
      </trkpt>
      <trkpt lat="47.90799" lon="-4.2122">
        <ele>46.92056940549</ele>
        <time>2022-01-14T20:16:26.215Z</time>
      </trkpt>
      <trkpt lat="47.90786" lon="-4.21224">
        <ele>46.45630008488</ele>
        <time>2022-01-14T20:16:28.502Z</time>
      </trkpt>
      <trkpt lat="47.90784" lon="-4.21235">
        <ele>45.93408840683</ele>
        <time>2022-01-14T20:16:30.790Z</time>
      </trkpt>
      <trkpt lat="47.90779" lon="-4.21237">
        <ele>45.38902151067</ele>
        <time>2022-01-14T20:16:33.079Z</time>
      </trkpt>
      <trkpt lat="47.90775" lon="-4.21237">
        <ele>44.81465050747</ele>
        <time>2022-01-14T20:16:35.368Z</time>
      </trkpt>
      <trkpt lat="47.90772" lon="-4.21227">
        <ele>44.23214267199</ele>
        <time>2022-01-14T20:16:37.659Z</time>
      </trkpt>
      <trkpt lat="47.90741" lon="-4.21229">
        <ele>43.53662986062</ele>
        <time>2022-01-14T20:16:39.955Z</time>
      </trkpt>
      <trkpt lat="47.90654" lon="-4.21213">
        <ele>42.81562747205</ele>
        <time>2022-01-14T20:16:42.265Z</time>
      </trkpt>
      <trkpt lat="47.90647" lon="-4.21207">
        <ele>42.19277029821</ele>
        <time>2022-01-14T20:16:44.576Z</time>
      </trkpt>
      <trkpt lat="47.90645" lon="-4.21211">
        <ele>41.60416441728</ele>
        <time>2022-01-14T20:16:46.887Z</time>
      </trkpt>
      <trkpt lat="47.90641" lon="-4.21213">
        <ele>41.04733694734</ele>
        <time>2022-01-14T20:16:49.199Z</time>
      </trkpt>
      <trkpt lat="47.90637" lon="-4.21211">
        <ele>40.53942449129</ele>
        <time>2022-01-14T20:16:51.512Z</time>
      </trkpt>
      <trkpt lat="47.90636" lon="-4.21206">
        <ele>40.10010615894</ele>
        <time>2022-01-14T20:16:53.825Z</time>
      </trkpt>
      <trkpt lat="47.9063" lon="-4.21208">
        <ele>39.70808453766</ele>
        <time>2022-01-14T20:16:56.139Z</time>
      </trkpt>
      <trkpt lat="47.90618" lon="-4.21206">
        <ele>39.36709677867</ele>
        <time>2022-01-14T20:16:58.455Z</time>
      </trkpt>
      <trkpt lat="47.90589" lon="-4.21186">
        <ele>39.05499377055</ele>
        <time>2022-01-14T20:17:00.776Z</time>
      </trkpt>
      <trkpt lat="47.90587" lon="-4.21192">
        <ele>38.92089720571</ele>
        <time>2022-01-14T20:17:03.098Z</time>
      </trkpt>
      <trkpt lat="47.90582" lon="-4.21193">
        <ele>38.86838539643</ele>
        <time>2022-01-14T20:17:05.421Z</time>
      </trkpt>
      <trkpt lat="47.90585" lon="-4.21272">
        <ele>38.92357971199</ele>
        <time>2022-01-14T20:17:07.752Z</time>
      </trkpt>
      <trkpt lat="47.90591" lon="-4.21324">
        <ele>39.01718663462</ele>
        <time>2022-01-14T20:17:10.089Z</time>
      </trkpt>
      <trkpt lat="47.90593" lon="-4.21337">
        <ele>39.15407095934</ele>
        <time>2022-01-14T20:17:12.428Z</time>
      </trkpt>
      <trkpt lat="47.90592" lon="-4.21366">
        <ele>39.30235387318</ele>
        <time>2022-01-14T20:17:14.770Z</time>
      </trkpt>
      <trkpt lat="47.90586" lon="-4.21408">
        <ele>39.54912717871</ele>
        <time>2022-01-14T20:17:17.116Z</time>
      </trkpt>
      <trkpt lat="47.90585" lon="-4.21445">
        <ele>39.78900082117</ele>
        <time>2022-01-14T20:17:19.466Z</time>
      </trkpt>
      <trkpt lat="47.90589" lon="-4.21467">
        <ele>39.91602446497</ele>
        <time>2022-01-14T20:17:21.819Z</time>
      </trkpt>
      <trkpt lat="47.90616" lon="-4.2152">
        <ele>39.94084971857</ele>
        <time>2022-01-14T20:17:24.179Z</time>
      </trkpt>
      <trkpt lat="47.90623" lon="-4.21539">
        <ele>39.77757384209</ele>
        <time>2022-01-14T20:17:26.541Z</time>
      </trkpt>
      <trkpt lat="47.90639" lon="-4.21602">
        <ele>39.42668792005</ele>
        <time>2022-01-14T20:17:28.911Z</time>
      </trkpt>
      <trkpt lat="47.90655" lon="-4.21666">
        <ele>39.01860350789</ele>
        <time>2022-01-14T20:17:31.288Z</time>
      </trkpt>
      <trkpt lat="47.90669" lon="-4.2176">
        <ele>38.36067908541</ele>
        <time>2022-01-14T20:17:33.675Z</time>
      </trkpt>
      <trkpt lat="47.90682" lon="-4.21891">
        <ele>37.424170738</ele>
        <time>2022-01-14T20:17:36.076Z</time>
      </trkpt>
      <trkpt lat="47.90682" lon="-4.21922">
        <ele>36.60918702573</ele>
        <time>2022-01-14T20:17:38.481Z</time>
      </trkpt>
      <trkpt lat="47.90678" lon="-4.21955">
        <ele>35.79593767681</ele>
        <time>2022-01-14T20:17:40.889Z</time>
      </trkpt>
      <trkpt lat="47.90684" lon="-4.22051">
        <ele>34.73449339888</ele>
        <time>2022-01-14T20:17:43.308Z</time>
      </trkpt>
      <trkpt lat="47.90683" lon="-4.22067">
        <ele>34.02123001747</ele>
        <time>2022-01-14T20:17:45.729Z</time>
      </trkpt>
      <trkpt lat="47.90678" lon="-4.22079">
        <ele>33.46621318519</ele>
        <time>2022-01-14T20:17:48.151Z</time>
      </trkpt>
      <trkpt lat="47.90624" lon="-4.22126">
        <ele>33.24176948915</ele>
        <time>2022-01-14T20:17:50.583Z</time>
      </trkpt>
      <trkpt lat="47.90621" lon="-4.22133">
        <ele>33.15226208932</ele>
        <time>2022-01-14T20:17:53.016Z</time>
      </trkpt>
      <trkpt lat="47.9062" lon="-4.22143">
        <ele>33.28357647776</ele>
        <time>2022-01-14T20:17:55.450Z</time>
      </trkpt>
      <trkpt lat="47.90626" lon="-4.22161">
        <ele>33.61144527925</ele>
        <time>2022-01-14T20:17:57.886Z</time>
      </trkpt>
      <trkpt lat="47.90649" lon="-4.22189">
        <ele>34.08365744419</ele>
        <time>2022-01-14T20:18:00.327Z</time>
      </trkpt>
      <trkpt lat="47.90664" lon="-4.22229">
        <ele>34.6733484384</ele>
        <time>2022-01-14T20:18:02.773Z</time>
      </trkpt>
      <trkpt lat="47.90677" lon="-4.22295">
        <ele>35.35800634478</ele>
        <time>2022-01-14T20:18:05.226Z</time>
      </trkpt>
      <trkpt lat="47.90686" lon="-4.22362">
        <ele>36.04945113287</ele>
        <time>2022-01-14T20:18:07.687Z</time>
      </trkpt>
      <trkpt lat="47.9069" lon="-4.22389">
        <ele>36.71978163665</ele>
        <time>2022-01-14T20:18:10.151Z</time>
      </trkpt>
      <trkpt lat="47.90697" lon="-4.22422">
        <ele>37.41479902643</ele>
        <time>2022-01-14T20:18:12.618Z</time>
      </trkpt>
      <trkpt lat="47.9072" lon="-4.22457">
        <ele>38.09702351536</ele>
        <time>2022-01-14T20:18:15.091Z</time>
      </trkpt>
      <trkpt lat="47.90753" lon="-4.22518">
        <ele>38.82672880075</ele>
        <time>2022-01-14T20:18:17.572Z</time>
      </trkpt>
      <trkpt lat="47.90797" lon="-4.22593">
        <ele>39.40227346484</ele>
        <time>2022-01-14T20:18:20.064Z</time>
      </trkpt>
      <trkpt lat="47.9084" lon="-4.22668">
        <ele>40.00697682936</ele>
        <time>2022-01-14T20:18:22.566Z</time>
      </trkpt>
      <trkpt lat="47.90842" lon="-4.22677">
        <ele>40.41055312621</ele>
        <time>2022-01-14T20:18:25.069Z</time>
      </trkpt>
      <trkpt lat="47.90839" lon="-4.22694">
        <ele>40.70838380003</ele>
        <time>2022-01-14T20:18:27.574Z</time>
      </trkpt>
      <trkpt lat="47.90822" lon="-4.22755">
        <ele>40.91815102546</ele>
        <time>2022-01-14T20:18:30.086Z</time>
      </trkpt>
      <trkpt lat="47.90804" lon="-4.22805">
        <ele>40.95040389693</ele>
        <time>2022-01-14T20:18:32.604Z</time>
      </trkpt>
      <trkpt lat="47.90767" lon="-4.22886">
        <ele>40.91035299773</ele>
        <time>2022-01-14T20:18:35.133Z</time>
      </trkpt>
      <trkpt lat="47.90763" lon="-4.22898">
        <ele>40.86069728745</ele>
        <time>2022-01-14T20:18:37.663Z</time>
      </trkpt>
      <trkpt lat="47.90748" lon="-4.22966">
        <ele>40.70786529334</ele>
        <time>2022-01-14T20:18:40.201Z</time>
      </trkpt>
      <trkpt lat="47.90732" lon="-4.23034">
        <ele>40.64141408053</ele>
        <time>2022-01-14T20:18:42.747Z</time>
      </trkpt>
      <trkpt lat="47.90741" lon="-4.23064">
        <ele>40.65434295005</ele>
        <time>2022-01-14T20:18:45.296Z</time>
      </trkpt>
      <trkpt lat="47.90754" lon="-4.23077">
        <ele>40.80446896726</ele>
        <time>2022-01-14T20:18:47.848Z</time>
      </trkpt>
      <trkpt lat="47.90822" lon="-4.2312">
        <ele>41.12544923312</ele>
        <time>2022-01-14T20:18:50.412Z</time>
      </trkpt>
      <trkpt lat="47.90838" lon="-4.2313">
        <ele>41.58746427385</ele>
        <time>2022-01-14T20:18:52.979Z</time>
      </trkpt>
      <trkpt lat="47.90868" lon="-4.23142">
        <ele>42.15820626967</ele>
        <time>2022-01-14T20:18:55.551Z</time>
      </trkpt>
      <trkpt lat="47.90923" lon="-4.23156">
        <ele>42.89551730245</ele>
        <time>2022-01-14T20:18:58.131Z</time>
      </trkpt>
      <trkpt lat="47.90961" lon="-4.23172">
        <ele>43.68264243774</ele>
        <time>2022-01-14T20:19:00.718Z</time>
      </trkpt>
      <trkpt lat="47.90996" lon="-4.23193">
        <ele>44.55522165212</ele>
        <time>2022-01-14T20:19:03.311Z</time>
      </trkpt>
      <trkpt lat="47.91061" lon="-4.23226">
        <ele>45.61164406925</ele>
        <time>2022-01-14T20:19:05.915Z</time>
      </trkpt>
      <trkpt lat="47.91091" lon="-4.23245">
        <ele>46.45433710294</ele>
        <time>2022-01-14T20:19:08.524Z</time>
      </trkpt>
      <trkpt lat="47.91101" lon="-4.23259">
        <ele>47.24300380444</ele>
        <time>2022-01-14T20:19:11.135Z</time>
      </trkpt>
      <trkpt lat="47.91108" lon="-4.23285">
        <ele>47.95633762689</ele>
        <time>2022-01-14T20:19:13.749Z</time>
      </trkpt>
      <trkpt lat="47.9111" lon="-4.23315">
        <ele>48.55811892525</ele>
        <time>2022-01-14T20:19:16.367Z</time>
      </trkpt>
      <trkpt lat="47.911" lon="-4.23381">
        <ele>49.02110891859</ele>
        <time>2022-01-14T20:19:18.992Z</time>
      </trkpt>
      <trkpt lat="47.911" lon="-4.2343">
        <ele>49.32013730433</ele>
        <time>2022-01-14T20:19:21.622Z</time>
      </trkpt>
      <trkpt lat="47.91105" lon="-4.23529">
        <ele>49.51373391629</ele>
        <time>2022-01-14T20:19:24.263Z</time>
      </trkpt>
      <trkpt lat="47.91104" lon="-4.23563">
        <ele>49.39046476908</ele>
        <time>2022-01-14T20:19:26.907Z</time>
      </trkpt>
      <trkpt lat="47.911" lon="-4.23619">
        <ele>49.01889361097</ele>
        <time>2022-01-14T20:19:29.558Z</time>
      </trkpt>
      <trkpt lat="47.911" lon="-4.2362">
        <ele>48.46166377212</ele>
        <time>2022-01-14T20:19:32.209Z</time>
      </trkpt>
      <trkpt lat="47.91099" lon="-4.23632">
        <ele>47.65849376022</ele>
        <time>2022-01-14T20:19:34.861Z</time>
      </trkpt>
      <trkpt lat="47.91073" lon="-4.23729">
        <ele>46.55882906708</ele>
        <time>2022-01-14T20:19:37.524Z</time>
      </trkpt>
      <trkpt lat="47.91048" lon="-4.23826">
        <ele>45.27503268498</ele>
        <time>2022-01-14T20:19:40.198Z</time>
      </trkpt>
      <trkpt lat="47.91022" lon="-4.23923">
        <ele>43.92926055198</ele>
        <time>2022-01-14T20:19:42.884Z</time>
      </trkpt>
      <trkpt lat="47.91019" lon="-4.23958">
        <ele>42.27906759037</ele>
        <time>2022-01-14T20:19:45.573Z</time>
      </trkpt>
      <trkpt lat="47.91021" lon="-4.23984">
        <ele>40.46980076103</ele>
        <time>2022-01-14T20:19:48.265Z</time>
      </trkpt>
      <trkpt lat="47.91027" lon="-4.24012">
        <ele>38.50341665994</ele>
        <time>2022-01-14T20:19:50.960Z</time>
      </trkpt>
      <trkpt lat="47.91026" lon="-4.24104">
        <ele>36.43685772283</ele>
        <time>2022-01-14T20:19:53.665Z</time>
      </trkpt>
      <trkpt lat="47.91025" lon="-4.24197">
        <ele>34.28533212494</ele>
        <time>2022-01-14T20:19:56.380Z</time>
      </trkpt>
      <trkpt lat="47.91021" lon="-4.24211">
        <ele>32.60889057872</ele>
        <time>2022-01-14T20:19:59.097Z</time>
      </trkpt>
      <trkpt lat="47.91011" lon="-4.24226">
        <ele>31.16019320257</ele>
        <time>2022-01-14T20:20:01.816Z</time>
      </trkpt>
      <trkpt lat="47.90978" lon="-4.24254">
        <ele>29.83047094391</ele>
        <time>2022-01-14T20:20:04.541Z</time>
      </trkpt>
      <trkpt lat="47.9097" lon="-4.24254">
        <ele>29.03238071236</ele>
        <time>2022-01-14T20:20:07.268Z</time>
      </trkpt>
      <trkpt lat="47.90908" lon="-4.24209">
        <ele>28.66791063759</ele>
        <time>2022-01-14T20:20:10.006Z</time>
      </trkpt>
      <trkpt lat="47.90893" lon="-4.24211">
        <ele>28.59738187082</ele>
        <time>2022-01-14T20:20:12.746Z</time>
      </trkpt>
      <trkpt lat="47.90889" lon="-4.24214">
        <ele>28.89396238062</ele>
        <time>2022-01-14T20:20:15.487Z</time>
      </trkpt>
      <trkpt lat="47.9087" lon="-4.24237">
        <ele>29.73153654084</ele>
        <time>2022-01-14T20:20:18.232Z</time>
      </trkpt>
      <trkpt lat="47.90864" lon="-4.24247">
        <ele>30.7116943511</ele>
        <time>2022-01-14T20:20:20.978Z</time>
      </trkpt>
      <trkpt lat="47.90861" lon="-4.24277">
        <ele>31.95003235629</ele>
        <time>2022-01-14T20:20:23.727Z</time>
      </trkpt>
      <trkpt lat="47.90869" lon="-4.24305">
        <ele>32.97287261683</ele>
        <time>2022-01-14T20:20:26.480Z</time>
      </trkpt>
      <trkpt lat="47.90887" lon="-4.24355">
        <ele>33.9414192616</ele>
        <time>2022-01-14T20:20:29.239Z</time>
      </trkpt>
      <trkpt lat="47.90899" lon="-4.24376">
        <ele>35.01731985435</ele>
        <time>2022-01-14T20:20:32.001Z</time>
      </trkpt>
      <trkpt lat="47.90957" lon="-4.24451">
        <ele>36.08591777876</ele>
        <time>2022-01-14T20:20:34.775Z</time>
      </trkpt>
      <trkpt lat="47.90963" lon="-4.24462">
        <ele>37.00807252514</ele>
        <time>2022-01-14T20:20:37.551Z</time>
      </trkpt>
      <trkpt lat="47.90965" lon="-4.24472">
        <ele>37.77831025758</ele>
        <time>2022-01-14T20:20:40.328Z</time>
      </trkpt>
      <trkpt lat="47.90963" lon="-4.24495">
        <ele>38.41022627875</ele>
        <time>2022-01-14T20:20:43.107Z</time>
      </trkpt>
      <trkpt lat="47.90935" lon="-4.24589">
        <ele>38.86715697755</ele>
        <time>2022-01-14T20:20:45.897Z</time>
      </trkpt>
      <trkpt lat="47.9092" lon="-4.24634">
        <ele>38.84183434903</ele>
        <time>2022-01-14T20:20:48.693Z</time>
      </trkpt>
      <trkpt lat="47.90917" lon="-4.24671">
        <ele>38.4502022529</ele>
        <time>2022-01-14T20:20:51.493Z</time>
      </trkpt>
      <trkpt lat="47.90911" lon="-4.24706">
        <ele>37.77541627017</ele>
        <time>2022-01-14T20:20:54.297Z</time>
      </trkpt>
      <trkpt lat="47.90891" lon="-4.24749">
        <ele>36.84612864252</ele>
        <time>2022-01-14T20:20:57.106Z</time>
      </trkpt>
      <trkpt lat="47.90851" lon="-4.2481">
        <ele>35.68735115916</ele>
        <time>2022-01-14T20:20:59.924Z</time>
      </trkpt>
      <trkpt lat="47.90813" lon="-4.24887">
        <ele>34.3560273439</ele>
        <time>2022-01-14T20:21:02.753Z</time>
      </trkpt>
      <trkpt lat="47.90796" lon="-4.24908">
        <ele>33.24993020822</ele>
        <time>2022-01-14T20:21:05.585Z</time>
      </trkpt>
      <trkpt lat="47.90754" lon="-4.24932">
        <ele>32.06878646623</ele>
        <time>2022-01-14T20:21:08.424Z</time>
      </trkpt>
      <trkpt lat="47.90742" lon="-4.24939">
        <ele>31.09226779245</ele>
        <time>2022-01-14T20:21:11.265Z</time>
      </trkpt>
      <trkpt lat="47.90733" lon="-4.24948">
        <ele>30.31771467151</ele>
        <time>2022-01-14T20:21:14.108Z</time>
      </trkpt>
      <trkpt lat="47.90724" lon="-4.24963">
        <ele>29.77849817923</ele>
        <time>2022-01-14T20:21:16.953Z</time>
      </trkpt>
      <trkpt lat="47.90719" lon="-4.24975">
        <ele>29.50831403068</ele>
        <time>2022-01-14T20:21:19.800Z</time>
      </trkpt>
      <trkpt lat="47.90715" lon="-4.24995">
        <ele>29.4804649255</ele>
        <time>2022-01-14T20:21:22.649Z</time>
      </trkpt>
      <trkpt lat="47.90713" lon="-4.25063">
        <ele>29.7805877998</ele>
        <time>2022-01-14T20:21:25.505Z</time>
      </trkpt>
      <trkpt lat="47.9071" lon="-4.25082">
        <ele>30.19063556872</ele>
        <time>2022-01-14T20:21:28.364Z</time>
      </trkpt>
      <trkpt lat="47.90698" lon="-4.25122">
        <ele>30.79617894924</ele>
        <time>2022-01-14T20:21:31.227Z</time>
      </trkpt>
      <trkpt lat="47.90672" lon="-4.25184">
        <ele>31.58763331676</ele>
        <time>2022-01-14T20:21:34.098Z</time>
      </trkpt>
      <trkpt lat="47.90646" lon="-4.25246">
        <ele>32.44053412077</ele>
        <time>2022-01-14T20:21:36.977Z</time>
      </trkpt>
      <trkpt lat="47.90636" lon="-4.25277">
        <ele>33.26704153745</ele>
        <time>2022-01-14T20:21:39.860Z</time>
      </trkpt>
      <trkpt lat="47.90619" lon="-4.2535">
        <ele>33.9737946162</ele>
        <time>2022-01-14T20:21:42.751Z</time>
      </trkpt>
      <trkpt lat="47.90602" lon="-4.25422">
        <ele>34.58826065844</ele>
        <time>2022-01-14T20:21:45.650Z</time>
      </trkpt>
      <trkpt lat="47.90595" lon="-4.25443">
        <ele>35.27209123645</ele>
        <time>2022-01-14T20:21:48.552Z</time>
      </trkpt>
      <trkpt lat="47.90583" lon="-4.2546">
        <ele>35.99651959459</ele>
        <time>2022-01-14T20:21:51.456Z</time>
      </trkpt>
      <trkpt lat="47.90565" lon="-4.25471">
        <ele>36.74574619408</ele>
        <time>2022-01-14T20:21:54.363Z</time>
      </trkpt>
      <trkpt lat="47.9054" lon="-4.25495">
        <ele>37.51996301638</ele>
        <time>2022-01-14T20:21:57.275Z</time>
      </trkpt>
      <trkpt lat="47.90523" lon="-4.25518">
        <ele>38.35250527179</ele>
        <time>2022-01-14T20:22:00.191Z</time>
      </trkpt>
      <trkpt lat="47.90513" lon="-4.25546">
        <ele>39.26056102923</ele>
        <time>2022-01-14T20:22:03.110Z</time>
      </trkpt>
      <trkpt lat="47.90502" lon="-4.25589">
        <ele>40.28696121724</ele>
        <time>2022-01-14T20:22:06.034Z</time>
      </trkpt>
      <trkpt lat="47.90492" lon="-4.25702">
        <ele>41.54523142491</ele>
        <time>2022-01-14T20:22:08.971Z</time>
      </trkpt>
      <trkpt lat="47.90481" lon="-4.25814">
        <ele>43.06632386176</ele>
        <time>2022-01-14T20:22:11.920Z</time>
      </trkpt>
      <trkpt lat="47.90484" lon="-4.25849">
        <ele>44.52887305644</ele>
        <time>2022-01-14T20:22:14.873Z</time>
      </trkpt>
      <trkpt lat="47.90498" lon="-4.25936">
        <ele>46.27606503686</ele>
        <time>2022-01-14T20:22:17.835Z</time>
      </trkpt>
      <trkpt lat="47.90515" lon="-4.26015">
        <ele>48.09497192368</ele>
        <time>2022-01-14T20:22:20.806Z</time>
      </trkpt>
      <trkpt lat="47.90532" lon="-4.26094">
        <ele>49.92192331562</ele>
        <time>2022-01-14T20:22:23.786Z</time>
      </trkpt>
      <trkpt lat="47.90548" lon="-4.26203">
        <ele>51.73345019929</ele>
        <time>2022-01-14T20:22:26.778Z</time>
      </trkpt>
      <trkpt lat="47.90563" lon="-4.26313">
        <ele>53.4359801911</ele>
        <time>2022-01-14T20:22:29.782Z</time>
      </trkpt>
      <trkpt lat="47.90563" lon="-4.26314">
        <ele>54.99106414249</ele>
        <time>2022-01-14T20:22:32.786Z</time>
      </trkpt>
      <trkpt lat="47.90581" lon="-4.26442">
        <ele>56.49642626622</ele>
        <time>2022-01-14T20:22:35.804Z</time>
      </trkpt>
      <trkpt lat="47.90599" lon="-4.2657">
        <ele>58.04402057445</ele>
        <time>2022-01-14T20:22:38.836Z</time>
      </trkpt>
      <trkpt lat="47.90617" lon="-4.26698">
        <ele>59.17650937874</ele>
        <time>2022-01-14T20:22:41.883Z</time>
      </trkpt>
      <trkpt lat="47.90635" lon="-4.26827">
        <ele>60.41832051037</ele>
        <time>2022-01-14T20:22:44.944Z</time>
      </trkpt>
      <trkpt lat="47.90653" lon="-4.26955">
        <ele>61.22239024718</ele>
        <time>2022-01-14T20:22:48.019Z</time>
      </trkpt>
      <trkpt lat="47.90671" lon="-4.27083">
        <ele>62.11644097296</ele>
        <time>2022-01-14T20:22:51.108Z</time>
      </trkpt>
      <trkpt lat="47.90681" lon="-4.27173">
        <ele>63.06468846895</ele>
        <time>2022-01-14T20:22:54.207Z</time>
      </trkpt>
      <trkpt lat="47.90681" lon="-4.27193">
        <ele>63.71062950977</ele>
        <time>2022-01-14T20:22:57.308Z</time>
      </trkpt>
      <trkpt lat="47.90686" lon="-4.27206">
        <ele>64.28235790104</ele>
        <time>2022-01-14T20:23:00.410Z</time>
      </trkpt>
      <trkpt lat="47.90663" lon="-4.27245">
        <ele>64.71295297208</ele>
        <time>2022-01-14T20:23:03.518Z</time>
      </trkpt>
      <trkpt lat="47.90639" lon="-4.27297">
        <ele>65.10605515613</ele>
        <time>2022-01-14T20:23:06.633Z</time>
      </trkpt>
      <trkpt lat="47.9061" lon="-4.27367">
        <ele>65.61369545986</ele>
        <time>2022-01-14T20:23:09.757Z</time>
      </trkpt>
      <trkpt lat="47.90582" lon="-4.27438">
        <ele>66.15843642994</ele>
        <time>2022-01-14T20:23:12.889Z</time>
      </trkpt>
      <trkpt lat="47.90554" lon="-4.27508">
        <ele>66.63121720508</ele>
        <time>2022-01-14T20:23:16.030Z</time>
      </trkpt>
      <trkpt lat="47.90547" lon="-4.27539">
        <ele>67.03676216233</ele>
        <time>2022-01-14T20:23:19.175Z</time>
      </trkpt>
      <trkpt lat="47.90541" lon="-4.27583">
        <ele>67.50973697483</ele>
        <time>2022-01-14T20:23:22.325Z</time>
      </trkpt>
      <trkpt lat="47.90529" lon="-4.27712">
        <ele>67.97373118037</ele>
        <time>2022-01-14T20:23:25.489Z</time>
      </trkpt>
      <trkpt lat="47.90513" lon="-4.27811">
        <ele>68.43415545154</ele>
        <time>2022-01-14T20:23:28.664Z</time>
      </trkpt>
      <trkpt lat="47.90502" lon="-4.27843">
        <ele>68.87204048889</ele>
        <time>2022-01-14T20:23:31.842Z</time>
      </trkpt>
      <trkpt lat="47.90467" lon="-4.27888">
        <ele>69.2871215315</ele>
        <time>2022-01-14T20:23:35.028Z</time>
      </trkpt>
      <trkpt lat="47.90429" lon="-4.2794">
        <ele>69.60319415466</ele>
        <time>2022-01-14T20:23:38.222Z</time>
      </trkpt>
      <trkpt lat="47.90402" lon="-4.27984">
        <ele>69.78769682912</ele>
        <time>2022-01-14T20:23:41.423Z</time>
      </trkpt>
      <trkpt lat="47.90377" lon="-4.28049">
        <ele>69.87115423839</ele>
        <time>2022-01-14T20:23:44.632Z</time>
      </trkpt>
      <trkpt lat="47.90352" lon="-4.28113">
        <ele>69.97421014304</ele>
        <time>2022-01-14T20:23:47.849Z</time>
      </trkpt>
      <trkpt lat="47.90354" lon="-4.28114">
        <ele>69.77878720957</ele>
        <time>2022-01-14T20:23:51.066Z</time>
      </trkpt>
      <trkpt lat="47.90347" lon="-4.28131">
        <ele>69.64612572783</ele>
        <time>2022-01-14T20:23:54.285Z</time>
      </trkpt>
      <trkpt lat="47.90321" lon="-4.28181">
        <ele>69.45561183741</ele>
        <time>2022-01-14T20:23:57.511Z</time>
      </trkpt>
      <trkpt lat="47.90306" lon="-4.28215">
        <ele>69.23771141728</ele>
        <time>2022-01-14T20:24:00.741Z</time>
      </trkpt>
      <trkpt lat="47.90299" lon="-4.28242">
        <ele>68.94231446042</ele>
        <time>2022-01-14T20:24:03.974Z</time>
      </trkpt>
      <trkpt lat="47.90292" lon="-4.28258">
        <ele>68.5123982818</ele>
        <time>2022-01-14T20:24:07.209Z</time>
      </trkpt>
      <trkpt lat="47.90275" lon="-4.28236">
        <ele>67.9315064139</ele>
        <time>2022-01-14T20:24:10.448Z</time>
      </trkpt>
      <trkpt lat="47.90272" lon="-4.28227">
        <ele>67.31959985477</ele>
        <time>2022-01-14T20:24:13.688Z</time>
      </trkpt>
      <trkpt lat="47.9027" lon="-4.28217">
        <ele>66.64331701914</ele>
        <time>2022-01-14T20:24:16.929Z</time>
      </trkpt>
      <trkpt lat="47.90246" lon="-4.28219">
        <ele>65.86500090228</ele>
        <time>2022-01-14T20:24:20.174Z</time>
      </trkpt>
      <trkpt lat="47.90234" lon="-4.28223">
        <ele>65.07905558444</ele>
        <time>2022-01-14T20:24:23.421Z</time>
      </trkpt>
      <trkpt lat="47.90216" lon="-4.28234">
        <ele>64.20204114588</ele>
        <time>2022-01-14T20:24:26.671Z</time>
      </trkpt>
      <trkpt lat="47.90181" lon="-4.28258">
        <ele>63.1859398657</ele>
        <time>2022-01-14T20:24:29.927Z</time>
      </trkpt>
      <trkpt lat="47.90154" lon="-4.28282">
        <ele>62.24493994208</ele>
        <time>2022-01-14T20:24:33.188Z</time>
      </trkpt>
      <trkpt lat="47.90121" lon="-4.28313">
        <ele>61.25370511236</ele>
        <time>2022-01-14T20:24:36.456Z</time>
      </trkpt>
      <trkpt lat="47.90077" lon="-4.28367">
        <ele>60.1252265157</ele>
        <time>2022-01-14T20:24:39.733Z</time>
      </trkpt>
      <trkpt lat="47.89997" lon="-4.28477">
        <ele>59.05214979068</ele>
        <time>2022-01-14T20:24:43.027Z</time>
      </trkpt>
      <trkpt lat="47.89954" lon="-4.28538">
        <ele>57.9806755851</ele>
        <time>2022-01-14T20:24:46.331Z</time>
      </trkpt>
      <trkpt lat="47.89889" lon="-4.28627">
        <ele>57.0682137907</ele>
        <time>2022-01-14T20:24:49.649Z</time>
      </trkpt>
      <trkpt lat="47.89843" lon="-4.28694">
        <ele>56.07402600367</ele>
        <time>2022-01-14T20:24:52.977Z</time>
      </trkpt>
      <trkpt lat="47.89822" lon="-4.2873">
        <ele>55.14524783783</ele>
        <time>2022-01-14T20:24:56.310Z</time>
      </trkpt>
      <trkpt lat="47.898" lon="-4.28772">
        <ele>54.21693951</ele>
        <time>2022-01-14T20:24:59.649Z</time>
      </trkpt>
      <trkpt lat="47.89712" lon="-4.28944">
        <ele>53.21198918224</ele>
        <time>2022-01-14T20:25:03.011Z</time>
      </trkpt>
      <trkpt lat="47.89677" lon="-4.28999">
        <ele>52.3225001425</ele>
        <time>2022-01-14T20:25:06.381Z</time>
      </trkpt>
      <trkpt lat="47.89653" lon="-4.29034">
        <ele>51.40755742385</ele>
        <time>2022-01-14T20:25:09.757Z</time>
      </trkpt>
      <trkpt lat="47.89621" lon="-4.2907">
        <ele>50.48311093157</ele>
        <time>2022-01-14T20:25:13.139Z</time>
      </trkpt>
      <trkpt lat="47.89579" lon="-4.29106">
        <ele>49.76262359703</ele>
        <time>2022-01-14T20:25:16.529Z</time>
      </trkpt>
      <trkpt lat="47.89551" lon="-4.29125">
        <ele>49.00864082133</ele>
        <time>2022-01-14T20:25:19.924Z</time>
      </trkpt>
      <trkpt lat="47.89529" lon="-4.29137">
        <ele>48.20246903055</ele>
        <time>2022-01-14T20:25:23.323Z</time>
      </trkpt>
      <trkpt lat="47.89499" lon="-4.29147">
        <ele>47.37689519013</ele>
        <time>2022-01-14T20:25:26.727Z</time>
      </trkpt>
      <trkpt lat="47.89482" lon="-4.29151">
        <ele>46.57525418698</ele>
        <time>2022-01-14T20:25:30.133Z</time>
      </trkpt>
      <trkpt lat="47.89468" lon="-4.29154">
        <ele>45.75098018413</ele>
        <time>2022-01-14T20:25:33.542Z</time>
      </trkpt>
      <trkpt lat="47.8939" lon="-4.2916">
        <ele>44.78522282325</ele>
        <time>2022-01-14T20:25:36.963Z</time>
      </trkpt>
      <trkpt lat="47.89328" lon="-4.29162">
        <ele>43.98647379413</ele>
        <time>2022-01-14T20:25:40.394Z</time>
      </trkpt>
      <trkpt lat="47.89288" lon="-4.29166">
        <ele>43.13224067762</ele>
        <time>2022-01-14T20:25:43.831Z</time>
      </trkpt>
      <trkpt lat="47.89174" lon="-4.29191">
        <ele>42.3258488637</ele>
        <time>2022-01-14T20:25:47.287Z</time>
      </trkpt>
      <trkpt lat="47.89127" lon="-4.29199">
        <ele>41.48632182663</ele>
        <time>2022-01-14T20:25:50.751Z</time>
      </trkpt>
      <trkpt lat="47.891" lon="-4.29201">
        <ele>40.67421558238</ele>
        <time>2022-01-14T20:25:54.219Z</time>
      </trkpt>
      <trkpt lat="47.89067" lon="-4.29199">
        <ele>39.90147916134</ele>
        <time>2022-01-14T20:25:57.692Z</time>
      </trkpt>
      <trkpt lat="47.88985" lon="-4.29191">
        <ele>38.97515847535</ele>
        <time>2022-01-14T20:26:01.178Z</time>
      </trkpt>
      <trkpt lat="47.88944" lon="-4.29186">
        <ele>38.09778207746</ele>
        <time>2022-01-14T20:26:04.671Z</time>
      </trkpt>
      <trkpt lat="47.88911" lon="-4.29188">
        <ele>37.24373775654</ele>
        <time>2022-01-14T20:26:08.169Z</time>
      </trkpt>
      <trkpt lat="47.88875" lon="-4.29196">
        <ele>36.45000907803</ele>
        <time>2022-01-14T20:26:11.673Z</time>
      </trkpt>
      <trkpt lat="47.88781" lon="-4.29226">
        <ele>35.56397643573</ele>
        <time>2022-01-14T20:26:15.192Z</time>
      </trkpt>
      <trkpt lat="47.8856" lon="-4.29297">
        <ele>34.60282884774</ele>
        <time>2022-01-14T20:26:18.748Z</time>
      </trkpt>
      <trkpt lat="47.88525" lon="-4.29307">
        <ele>33.84275813948</ele>
        <time>2022-01-14T20:26:22.309Z</time>
      </trkpt>
      <trkpt lat="47.88471" lon="-4.29314">
        <ele>33.0598689826</ele>
        <time>2022-01-14T20:26:25.879Z</time>
      </trkpt>
      <trkpt lat="47.88467" lon="-4.29315">
        <ele>32.35340798757</ele>
        <time>2022-01-14T20:26:29.450Z</time>
      </trkpt>
      <trkpt lat="47.88413" lon="-4.29302">
        <ele>31.63340735964</ele>
        <time>2022-01-14T20:26:33.029Z</time>
      </trkpt>
      <trkpt lat="47.88389" lon="-4.29294">
        <ele>30.99917376512</ele>
        <time>2022-01-14T20:26:36.612Z</time>
      </trkpt>
      <trkpt lat="47.8837" lon="-4.29284">
        <ele>30.39162002788</ele>
        <time>2022-01-14T20:26:40.199Z</time>
      </trkpt>
      <trkpt lat="47.88328" lon="-4.29259">
        <ele>29.74630339315</ele>
        <time>2022-01-14T20:26:43.793Z</time>
      </trkpt>
      <trkpt lat="47.88274" lon="-4.29216">
        <ele>29.1506837325</ele>
        <time>2022-01-14T20:26:47.397Z</time>
      </trkpt>
      <trkpt lat="47.88189" lon="-4.2913">
        <ele>28.53850348214</ele>
        <time>2022-01-14T20:26:51.017Z</time>
      </trkpt>
      <trkpt lat="47.88108" lon="-4.29057">
        <ele>27.95321338756</ele>
        <time>2022-01-14T20:26:54.652Z</time>
      </trkpt>
      <trkpt lat="47.88086" lon="-4.29041">
        <ele>27.42995164953</ele>
        <time>2022-01-14T20:26:58.291Z</time>
      </trkpt>
      <trkpt lat="47.88047" lon="-4.29013">
        <ele>26.9751253455</ele>
        <time>2022-01-14T20:27:01.937Z</time>
      </trkpt>
      <trkpt lat="47.88016" lon="-4.28995">
        <ele>26.51427437974</ele>
        <time>2022-01-14T20:27:05.588Z</time>
      </trkpt>
      <trkpt lat="47.87993" lon="-4.28983">
        <ele>26.1069332955</ele>
        <time>2022-01-14T20:27:09.243Z</time>
      </trkpt>
      <trkpt lat="47.87942" lon="-4.28958">
        <ele>25.7146538116</ele>
        <time>2022-01-14T20:27:12.907Z</time>
      </trkpt>
      <trkpt lat="47.8784" lon="-4.28917">
        <ele>25.36006698876</ele>
        <time>2022-01-14T20:27:16.588Z</time>
      </trkpt>
      <trkpt lat="47.87727" lon="-4.28876">
        <ele>25.02518232943</ele>
        <time>2022-01-14T20:27:20.287Z</time>
      </trkpt>
      <trkpt lat="47.87668" lon="-4.2885">
        <ele>24.7455965362</ele>
        <time>2022-01-14T20:27:23.996Z</time>
      </trkpt>
      <trkpt lat="47.87638" lon="-4.28835">
        <ele>24.47168974427</ele>
        <time>2022-01-14T20:27:27.710Z</time>
      </trkpt>
      <trkpt lat="47.87577" lon="-4.28789">
        <ele>24.23829015267</ele>
        <time>2022-01-14T20:27:31.435Z</time>
      </trkpt>
      <trkpt lat="47.87563" lon="-4.28776">
        <ele>23.9158464535</ele>
        <time>2022-01-14T20:27:35.163Z</time>
      </trkpt>
      <trkpt lat="47.87529" lon="-4.28741">
        <ele>23.25093327929</ele>
        <time>2022-01-14T20:27:38.898Z</time>
      </trkpt>
      <trkpt lat="47.87456" lon="-4.28662">
        <ele>22.86388356058</ele>
        <time>2022-01-14T20:27:42.647Z</time>
      </trkpt>
      <trkpt lat="47.87357" lon="-4.28559">
        <ele>22.63447795525</ele>
        <time>2022-01-14T20:27:46.415Z</time>
      </trkpt>
      <trkpt lat="47.87263" lon="-4.2846">
        <ele>22.23627860613</ele>
        <time>2022-01-14T20:27:50.202Z</time>
      </trkpt>
      <trkpt lat="47.87198" lon="-4.28397">
        <ele>21.89073297371</ele>
        <time>2022-01-14T20:27:54.001Z</time>
      </trkpt>
      <trkpt lat="47.87162" lon="-4.28366">
        <ele>21.45525214993</ele>
        <time>2022-01-14T20:27:57.807Z</time>
      </trkpt>
      <trkpt lat="47.8711" lon="-4.28331">
        <ele>21.000596801</ele>
        <time>2022-01-14T20:28:01.622Z</time>
      </trkpt>
      <trkpt lat="47.86993" lon="-4.28263">
        <ele>20.35021646794</ele>
        <time>2022-01-14T20:28:05.457Z</time>
      </trkpt>
      <trkpt lat="47.86826" lon="-4.28172">
        <ele>19.9535271822</ele>
        <time>2022-01-14T20:28:09.321Z</time>
      </trkpt>
      <trkpt lat="47.86801" lon="-4.28162">
        <ele>19.7238051746</ele>
        <time>2022-01-14T20:28:13.189Z</time>
      </trkpt>
      <trkpt lat="47.86768" lon="-4.28145">
        <ele>19.53889974382</ele>
        <time>2022-01-14T20:28:17.062Z</time>
      </trkpt>
      <trkpt lat="47.86711" lon="-4.28112">
        <ele>19.34519372336</ele>
        <time>2022-01-14T20:28:20.945Z</time>
      </trkpt>
      <trkpt lat="47.86696" lon="-4.28104">
        <ele>19.15826271031</ele>
        <time>2022-01-14T20:28:24.831Z</time>
      </trkpt>
      <trkpt lat="47.86664" lon="-4.28094">
        <ele>19.03227467268</ele>
        <time>2022-01-14T20:28:28.722Z</time>
      </trkpt>
      <trkpt lat="47.86638" lon="-4.28088">
        <ele>18.93030976431</ele>
        <time>2022-01-14T20:28:32.617Z</time>
      </trkpt>
      <trkpt lat="47.86621" lon="-4.28081">
        <ele>18.83285610052</ele>
        <time>2022-01-14T20:28:36.515Z</time>
      </trkpt>
      <trkpt lat="47.86612" lon="-4.28072">
        <ele>18.77935609057</ele>
        <time>2022-01-14T20:28:40.415Z</time>
      </trkpt>
      <trkpt lat="47.86602" lon="-4.2806">
        <ele>18.76986424904</ele>
        <time>2022-01-14T20:28:44.317Z</time>
      </trkpt>
      <trkpt lat="47.86596" lon="-4.28048">
        <ele>18.82177862557</ele>
        <time>2022-01-14T20:28:48.220Z</time>
      </trkpt>
      <trkpt lat="47.8657" lon="-4.28036">
        <ele>18.83362782022</ele>
        <time>2022-01-14T20:28:52.128Z</time>
      </trkpt>
      <trkpt lat="47.8656" lon="-4.28035">
        <ele>18.99630774808</ele>
        <time>2022-01-14T20:28:56.037Z</time>
      </trkpt>
      <trkpt lat="47.86546" lon="-4.28033">
        <ele>19.24030638067</ele>
        <time>2022-01-14T20:28:59.949Z</time>
      </trkpt>
      <trkpt lat="47.86533" lon="-4.28035">
        <ele>19.53837115333</ele>
        <time>2022-01-14T20:29:03.863Z</time>
      </trkpt>
      <trkpt lat="47.865" lon="-4.28038">
        <ele>19.87035357761</ele>
        <time>2022-01-14T20:29:07.782Z</time>
      </trkpt>
      <trkpt lat="47.86452" lon="-4.28038">
        <ele>20.30677280444</ele>
        <time>2022-01-14T20:29:11.709Z</time>
      </trkpt>
      <trkpt lat="47.86331" lon="-4.28038">
        <ele>21.01688964131</ele>
        <time>2022-01-14T20:29:15.655Z</time>
      </trkpt>
      <trkpt lat="47.86221" lon="-4.2804">
        <ele>21.63470755891</ele>
        <time>2022-01-14T20:29:19.619Z</time>
      </trkpt>
      <trkpt lat="47.86221" lon="-4.28041">
        <ele>22.10850112806</ele>
        <time>2022-01-14T20:29:23.583Z</time>
      </trkpt>
      <trkpt lat="47.8622" lon="-4.28042">
        <ele>22.60408718549</ele>
        <time>2022-01-14T20:29:27.547Z</time>
      </trkpt>
      <trkpt lat="47.8622" lon="-4.28044">
        <ele>23.11346896231</ele>
        <time>2022-01-14T20:29:31.511Z</time>
      </trkpt>
      <trkpt lat="47.86219" lon="-4.28046">
        <ele>23.6362474293</ele>
        <time>2022-01-14T20:29:35.475Z</time>
      </trkpt>
      <trkpt lat="47.86218" lon="-4.28048">
        <ele>24.16693866656</ele>
        <time>2022-01-14T20:29:39.440Z</time>
      </trkpt>
      <trkpt lat="47.86215" lon="-4.2805">
        <ele>24.70674765688</ele>
        <time>2022-01-14T20:29:43.405Z</time>
      </trkpt>
      <trkpt lat="47.86211" lon="-4.2805">
        <ele>25.24877968078</ele>
        <time>2022-01-14T20:29:47.371Z</time>
      </trkpt>
      <trkpt lat="47.86206" lon="-4.28041">
        <ele>25.77759219835</ele>
        <time>2022-01-14T20:29:51.338Z</time>
      </trkpt>
      <trkpt lat="47.86176" lon="-4.28047">
        <ele>26.37343342077</ele>
        <time>2022-01-14T20:29:55.310Z</time>
      </trkpt>
      <trkpt lat="47.86153" lon="-4.28053">
        <ele>26.93689180812</ele>
        <time>2022-01-14T20:29:59.286Z</time>
      </trkpt>
      <trkpt lat="47.86116" lon="-4.28072">
        <ele>27.4158051469</ele>
        <time>2022-01-14T20:30:03.268Z</time>
      </trkpt>
      <trkpt lat="47.86098" lon="-4.28085">
        <ele>27.92126727975</ele>
        <time>2022-01-14T20:30:07.253Z</time>
      </trkpt>
      <trkpt lat="47.86076" lon="-4.28105">
        <ele>28.44538023786</ele>
        <time>2022-01-14T20:30:11.242Z</time>
      </trkpt>
      <trkpt lat="47.86007" lon="-4.28169">
        <ele>28.97864959552</ele>
        <time>2022-01-14T20:30:15.244Z</time>
      </trkpt>
      <trkpt lat="47.85984" lon="-4.28186">
        <ele>29.42477815074</ele>
        <time>2022-01-14T20:30:19.250Z</time>
      </trkpt>
      <trkpt lat="47.85945" lon="-4.2821">
        <ele>29.78741509574</ele>
        <time>2022-01-14T20:30:23.263Z</time>
      </trkpt>
      <trkpt lat="47.85862" lon="-4.28249">
        <ele>30.31195873528</ele>
        <time>2022-01-14T20:30:27.290Z</time>
      </trkpt>
      <trkpt lat="47.85827" lon="-4.28266">
        <ele>30.72346970293</ele>
        <time>2022-01-14T20:30:31.323Z</time>
      </trkpt>
      <trkpt lat="47.85806" lon="-4.28279">
        <ele>31.0601330831</ele>
        <time>2022-01-14T20:30:35.360Z</time>
      </trkpt>
      <trkpt lat="47.85713" lon="-4.28323">
        <ele>31.41205165516</ele>
        <time>2022-01-14T20:30:39.412Z</time>
      </trkpt>
      <trkpt lat="47.855" lon="-4.28426">
        <ele>31.8125599192</ele>
        <time>2022-01-14T20:30:43.500Z</time>
      </trkpt>
      <trkpt lat="47.85413" lon="-4.2847">
        <ele>32.09137722522</ele>
        <time>2022-01-14T20:30:47.603Z</time>
      </trkpt>
      <trkpt lat="47.85351" lon="-4.285">
        <ele>32.46028145465</ele>
        <time>2022-01-14T20:30:51.716Z</time>
      </trkpt>
      <trkpt lat="47.85315" lon="-4.28513">
        <ele>32.76143499106</ele>
        <time>2022-01-14T20:30:55.835Z</time>
      </trkpt>
      <trkpt lat="47.85295" lon="-4.28518">
        <ele>33.06223067362</ele>
        <time>2022-01-14T20:30:59.958Z</time>
      </trkpt>
      <trkpt lat="47.85222" lon="-4.28526">
        <ele>33.31782411976</ele>
        <time>2022-01-14T20:31:04.092Z</time>
      </trkpt>
      <trkpt lat="47.85196" lon="-4.28525">
        <ele>33.54258449771</ele>
        <time>2022-01-14T20:31:08.230Z</time>
      </trkpt>
      <trkpt lat="47.85151" lon="-4.28516">
        <ele>33.77796122077</ele>
        <time>2022-01-14T20:31:12.376Z</time>
      </trkpt>
      <trkpt lat="47.85101" lon="-4.28504">
        <ele>34.07083737545</ele>
        <time>2022-01-14T20:31:16.530Z</time>
      </trkpt>
      <trkpt lat="47.84902" lon="-4.28452">
        <ele>34.11557405545</ele>
        <time>2022-01-14T20:31:20.716Z</time>
      </trkpt>
      <trkpt lat="47.84867" lon="-4.28439">
        <ele>34.27365903045</ele>
        <time>2022-01-14T20:31:24.908Z</time>
      </trkpt>
      <trkpt lat="47.84847" lon="-4.28428">
        <ele>34.38510288522</ele>
        <time>2022-01-14T20:31:29.103Z</time>
      </trkpt>
      <trkpt lat="47.84828" lon="-4.28417">
        <ele>34.43045398668</ele>
        <time>2022-01-14T20:31:33.302Z</time>
      </trkpt>
      <trkpt lat="47.84809" lon="-4.28402">
        <ele>34.47599063691</ele>
        <time>2022-01-14T20:31:37.504Z</time>
      </trkpt>
      <trkpt lat="47.84781" lon="-4.28379">
        <ele>34.49861091795</ele>
        <time>2022-01-14T20:31:41.711Z</time>
      </trkpt>
      <trkpt lat="47.84765" lon="-4.28366">
        <ele>34.47861455893</ele>
        <time>2022-01-14T20:31:45.921Z</time>
      </trkpt>
      <trkpt lat="47.84706" lon="-4.28312">
        <ele>34.37625294152</ele>
        <time>2022-01-14T20:31:50.142Z</time>
      </trkpt>
      <trkpt lat="47.84689" lon="-4.28296">
        <ele>34.36917555732</ele>
        <time>2022-01-14T20:31:54.366Z</time>
      </trkpt>
      <trkpt lat="47.84684" lon="-4.28304">
        <ele>34.32315831439</ele>
        <time>2022-01-14T20:31:58.592Z</time>
      </trkpt>
      <trkpt lat="47.84677" lon="-4.28316">
        <ele>34.26440368678</ele>
        <time>2022-01-14T20:32:02.819Z</time>
      </trkpt>
      <trkpt lat="47.84672" lon="-4.28327">
        <ele>34.17884357156</ele>
        <time>2022-01-14T20:32:07.048Z</time>
      </trkpt>
      <trkpt lat="47.84668" lon="-4.28353">
        <ele>34.07753489006</ele>
        <time>2022-01-14T20:32:11.280Z</time>
      </trkpt>
      <trkpt lat="47.84664" lon="-4.28376">
        <ele>33.94721959374</ele>
        <time>2022-01-14T20:32:15.514Z</time>
      </trkpt>
      <trkpt lat="47.84649" lon="-4.28387">
        <ele>33.83465136543</ele>
        <time>2022-01-14T20:32:19.751Z</time>
      </trkpt>
      <trkpt lat="47.84632" lon="-4.284">
        <ele>33.72646829135</ele>
        <time>2022-01-14T20:32:23.991Z</time>
      </trkpt>
      <trkpt lat="47.8458" lon="-4.28439">
        <ele>33.57360070525</ele>
        <time>2022-01-14T20:32:28.240Z</time>
      </trkpt>
      <trkpt lat="47.84531" lon="-4.28477">
        <ele>33.34837394497</ele>
        <time>2022-01-14T20:32:32.498Z</time>
      </trkpt>
      <trkpt lat="47.84525" lon="-4.28485">
        <ele>33.1910811824</ele>
        <time>2022-01-14T20:32:36.757Z</time>
      </trkpt>
      <trkpt lat="47.84509" lon="-4.2843">
        <ele>33.05867921922</ele>
        <time>2022-01-14T20:32:41.023Z</time>
      </trkpt>
      <trkpt lat="47.845" lon="-4.28425">
        <ele>32.88547320395</ele>
        <time>2022-01-14T20:32:45.290Z</time>
      </trkpt>
      <trkpt lat="47.84375" lon="-4.28384">
        <ele>32.58090451191</ele>
        <time>2022-01-14T20:32:49.578Z</time>
      </trkpt>
      <trkpt lat="47.84363" lon="-4.28384">
        <ele>32.36796131112</ele>
        <time>2022-01-14T20:32:53.868Z</time>
      </trkpt>
      <trkpt lat="47.84358" lon="-4.28386">
        <ele>32.16563568321</ele>
        <time>2022-01-14T20:32:58.159Z</time>
      </trkpt>
      <trkpt lat="47.84353" lon="-4.28395">
        <ele>31.96227509269</ele>
        <time>2022-01-14T20:33:02.451Z</time>
      </trkpt>
      <trkpt lat="47.84332" lon="-4.28443">
        <ele>31.72980015794</ele>
        <time>2022-01-14T20:33:06.749Z</time>
      </trkpt>
      <trkpt lat="47.84327" lon="-4.28445">
        <ele>31.5267183218</ele>
        <time>2022-01-14T20:33:11.048Z</time>
      </trkpt>
      <trkpt lat="47.84317" lon="-4.28438">
        <ele>31.31543146944</ele>
        <time>2022-01-14T20:33:15.349Z</time>
      </trkpt>
      <trkpt lat="47.84291" lon="-4.28407">
        <ele>31.16956938072</ele>
        <time>2022-01-14T20:33:19.655Z</time>
      </trkpt>
      <trkpt lat="47.8423" lon="-4.2835">
        <ele>30.98018023915</ele>
        <time>2022-01-14T20:33:23.973Z</time>
      </trkpt>
      <trkpt lat="47.84214" lon="-4.28335">
        <ele>30.81565530247</ele>
        <time>2022-01-14T20:33:28.294Z</time>
      </trkpt>
      <trkpt lat="47.8419" lon="-4.28312">
        <ele>30.63856296535</ele>
        <time>2022-01-14T20:33:32.619Z</time>
      </trkpt>
      <trkpt lat="47.84169" lon="-4.28349">
        <ele>30.47961125692</ele>
        <time>2022-01-14T20:33:36.949Z</time>
      </trkpt>
      <trkpt lat="47.84123" lon="-4.2843">
        <ele>30.25383826668</ele>
        <time>2022-01-14T20:33:41.291Z</time>
      </trkpt>
      <trkpt lat="47.84112" lon="-4.28444">
        <ele>30.03255164999</ele>
        <time>2022-01-14T20:33:45.635Z</time>
      </trkpt>
      <trkpt lat="47.84083" lon="-4.2847">
        <ele>29.82228409011</ele>
        <time>2022-01-14T20:33:49.985Z</time>
      </trkpt>
      <trkpt lat="47.84035" lon="-4.28511">
        <ele>29.50757108481</ele>
        <time>2022-01-14T20:33:54.343Z</time>
      </trkpt>
      <trkpt lat="47.84016" lon="-4.28535">
        <ele>29.26610925128</ele>
        <time>2022-01-14T20:33:58.705Z</time>
      </trkpt>
      <trkpt lat="47.84007" lon="-4.2855">
        <ele>29.01490802159</ele>
        <time>2022-01-14T20:34:03.070Z</time>
      </trkpt>
      <trkpt lat="47.83994" lon="-4.28573">
        <ele>28.76852813025</ele>
        <time>2022-01-14T20:34:07.438Z</time>
      </trkpt>
      <trkpt lat="47.83993" lon="-4.28577">
        <ele>28.54142628646</ele>
        <time>2022-01-14T20:34:11.806Z</time>
      </trkpt>
      <trkpt lat="47.83989" lon="-4.28583">
        <ele>28.30630072995</ele>
        <time>2022-01-14T20:34:16.175Z</time>
      </trkpt>
      <trkpt lat="47.83983" lon="-4.28584">
        <ele>28.06460861499</ele>
        <time>2022-01-14T20:34:20.545Z</time>
      </trkpt>
      <trkpt lat="47.83978" lon="-4.2858">
        <ele>27.82792971151</ele>
        <time>2022-01-14T20:34:24.916Z</time>
      </trkpt>
      <trkpt lat="47.83977" lon="-4.28577">
        <ele>27.58966970853</ele>
        <time>2022-01-14T20:34:29.287Z</time>
      </trkpt>
      <trkpt lat="47.83976" lon="-4.28575">
        <ele>27.34669584726</ele>
        <time>2022-01-14T20:34:33.659Z</time>
      </trkpt>
      <trkpt lat="47.83957" lon="-4.28561">
        <ele>27.07436999781</ele>
        <time>2022-01-14T20:34:38.034Z</time>
      </trkpt>
      <trkpt lat="47.83914" lon="-4.28518">
        <ele>26.77203017858</ele>
        <time>2022-01-14T20:34:42.417Z</time>
      </trkpt>
      <trkpt lat="47.83896" lon="-4.28505">
        <ele>26.48318294433</ele>
        <time>2022-01-14T20:34:46.804Z</time>
      </trkpt>
      <trkpt lat="47.83883" lon="-4.28499">
        <ele>26.23449818563</ele>
        <time>2022-01-14T20:34:51.193Z</time>
      </trkpt>
      <trkpt lat="47.83865" lon="-4.28495">
        <ele>26.00065060237</ele>
        <time>2022-01-14T20:34:55.585Z</time>
      </trkpt>
      <trkpt lat="47.83834" lon="-4.28498">
        <ele>25.78040336268</ele>
        <time>2022-01-14T20:34:59.982Z</time>
      </trkpt>
      <trkpt lat="47.83724" lon="-4.28516">
        <ele>25.49673659535</ele>
        <time>2022-01-14T20:35:04.396Z</time>
      </trkpt>
      <trkpt lat="47.83644" lon="-4.28529">
        <ele>25.18992818065</ele>
        <time>2022-01-14T20:35:08.823Z</time>
      </trkpt>
      <trkpt lat="47.83614" lon="-4.28537">
        <ele>24.8560239281</ele>
        <time>2022-01-14T20:35:13.255Z</time>
      </trkpt>
      <trkpt lat="47.8359" lon="-4.28546">
        <ele>24.50233960754</ele>
        <time>2022-01-14T20:35:17.691Z</time>
      </trkpt>
      <trkpt lat="47.83557" lon="-4.28563">
        <ele>24.12254366521</ele>
        <time>2022-01-14T20:35:22.133Z</time>
      </trkpt>
      <trkpt lat="47.83541" lon="-4.28574">
        <ele>23.72359909385</ele>
        <time>2022-01-14T20:35:26.577Z</time>
      </trkpt>
      <trkpt lat="47.8337" lon="-4.28695">
        <ele>23.35344657115</ele>
        <time>2022-01-14T20:35:31.052Z</time>
      </trkpt>
      <trkpt lat="47.83311" lon="-4.28738">
        <ele>22.89160234694</ele>
        <time>2022-01-14T20:35:35.537Z</time>
      </trkpt>
      <trkpt lat="47.83277" lon="-4.2877">
        <ele>22.54647106893</ele>
        <time>2022-01-14T20:35:40.029Z</time>
      </trkpt>
      <trkpt lat="47.83157" lon="-4.28903">
        <ele>22.17979368725</ele>
        <time>2022-01-14T20:35:44.545Z</time>
      </trkpt>
      <trkpt lat="47.83067" lon="-4.29003">
        <ele>21.7480110774</ele>
        <time>2022-01-14T20:35:49.079Z</time>
      </trkpt>
      <trkpt lat="47.83045" lon="-4.29024">
        <ele>21.31256721273</ele>
        <time>2022-01-14T20:35:53.617Z</time>
      </trkpt>
      <trkpt lat="47.83012" lon="-4.29051">
        <ele>20.95199771574</ele>
        <time>2022-01-14T20:35:58.161Z</time>
      </trkpt>
      <trkpt lat="47.82989" lon="-4.29068">
        <ele>20.66373560628</ele>
        <time>2022-01-14T20:36:02.709Z</time>
      </trkpt>
      <trkpt lat="47.82958" lon="-4.29084">
        <ele>20.3421039894</ele>
        <time>2022-01-14T20:36:07.262Z</time>
      </trkpt>
      <trkpt lat="47.82933" lon="-4.29093">
        <ele>19.98315440187</ele>
        <time>2022-01-14T20:36:11.819Z</time>
      </trkpt>
      <trkpt lat="47.82898" lon="-4.29101">
        <ele>19.66703749839</ele>
        <time>2022-01-14T20:36:16.382Z</time>
      </trkpt>
      <trkpt lat="47.82841" lon="-4.29106">
        <ele>19.38915722518</ele>
        <time>2022-01-14T20:36:20.954Z</time>
      </trkpt>
      <trkpt lat="47.82703" lon="-4.29106">
        <ele>19.0876489759</ele>
        <time>2022-01-14T20:36:25.548Z</time>
      </trkpt>
      <trkpt lat="47.82628" lon="-4.29105">
        <ele>18.94614758107</ele>
        <time>2022-01-14T20:36:30.154Z</time>
      </trkpt>
      <trkpt lat="47.82591" lon="-4.29098">
        <ele>18.7525559395</ele>
        <time>2022-01-14T20:36:34.766Z</time>
      </trkpt>
      <trkpt lat="47.82537" lon="-4.29072">
        <ele>18.51619224537</ele>
        <time>2022-01-14T20:36:39.387Z</time>
      </trkpt>
      <trkpt lat="47.82462" lon="-4.29027">
        <ele>18.3113247143</ele>
        <time>2022-01-14T20:36:44.021Z</time>
      </trkpt>
      <trkpt lat="47.82365" lon="-4.28973">
        <ele>18.22073220753</ele>
        <time>2022-01-14T20:36:48.672Z</time>
      </trkpt>
      <trkpt lat="47.82306" lon="-4.2894">
        <ele>18.09344266717</ele>
        <time>2022-01-14T20:36:53.333Z</time>
      </trkpt>
      <trkpt lat="47.82053" lon="-4.28802">
        <ele>18.03167234077</ele>
        <time>2022-01-14T20:36:58.037Z</time>
      </trkpt>
      <trkpt lat="47.8203" lon="-4.28799">
        <ele>17.9260802392</ele>
        <time>2022-01-14T20:37:02.745Z</time>
      </trkpt>
      <trkpt lat="47.82029" lon="-4.28801">
        <ele>17.87652957398</ele>
        <time>2022-01-14T20:37:07.453Z</time>
      </trkpt>
      <trkpt lat="47.82026" lon="-4.28805">
        <ele>17.85521066725</ele>
        <time>2022-01-14T20:37:12.162Z</time>
      </trkpt>
      <trkpt lat="47.82015" lon="-4.2881">
        <ele>17.85757666955</ele>
        <time>2022-01-14T20:37:16.873Z</time>
      </trkpt>
      <trkpt lat="47.82008" lon="-4.28809">
        <ele>17.86902443209</ele>
        <time>2022-01-14T20:37:21.585Z</time>
      </trkpt>
      <trkpt lat="47.82002" lon="-4.28805">
        <ele>17.88990118237</ele>
        <time>2022-01-14T20:37:26.298Z</time>
      </trkpt>
      <trkpt lat="47.81996" lon="-4.28797">
        <ele>17.94708935386</ele>
        <time>2022-01-14T20:37:31.012Z</time>
      </trkpt>
      <trkpt lat="47.81992" lon="-4.28786">
        <ele>18.02002188328</ele>
        <time>2022-01-14T20:37:35.727Z</time>
      </trkpt>
      <trkpt lat="47.81991" lon="-4.28773">
        <ele>18.09309606212</ele>
        <time>2022-01-14T20:37:40.444Z</time>
      </trkpt>
      <trkpt lat="47.81994" lon="-4.28762">
        <ele>18.21493766467</ele>
        <time>2022-01-14T20:37:45.162Z</time>
      </trkpt>
      <trkpt lat="47.81996" lon="-4.28758">
        <ele>18.35644756119</ele>
        <time>2022-01-14T20:37:49.881Z</time>
      </trkpt>
      <trkpt lat="47.82002" lon="-4.28749">
        <ele>18.69791534597</ele>
        <time>2022-01-14T20:37:54.601Z</time>
      </trkpt>
      <trkpt lat="47.8201" lon="-4.28745">
        <ele>18.90285124474</ele>
        <time>2022-01-14T20:37:59.322Z</time>
      </trkpt>
      <trkpt lat="47.82018" lon="-4.28735">
        <ele>19.12271153105</ele>
        <time>2022-01-14T20:38:04.045Z</time>
      </trkpt>
      <trkpt lat="47.82024" lon="-4.28721">
        <ele>19.35231369631</ele>
        <time>2022-01-14T20:38:08.770Z</time>
      </trkpt>
      <trkpt lat="47.8204" lon="-4.28655">
        <ele>19.45110513622</ele>
        <time>2022-01-14T20:38:13.502Z</time>
      </trkpt>
      <trkpt lat="47.82051" lon="-4.28601">
        <ele>19.67324374932</ele>
        <time>2022-01-14T20:38:18.241Z</time>
      </trkpt>
      <trkpt lat="47.82071" lon="-4.28513">
        <ele>20.00338460103</ele>
        <time>2022-01-14T20:38:22.990Z</time>
      </trkpt>
      <trkpt lat="47.82086" lon="-4.28434">
        <ele>20.31534492876</ele>
        <time>2022-01-14T20:38:27.747Z</time>
      </trkpt>
      <trkpt lat="47.8212" lon="-4.28258">
        <ele>20.51787733838</ele>
        <time>2022-01-14T20:38:32.524Z</time>
      </trkpt>
      <trkpt lat="47.8213" lon="-4.28174">
        <ele>20.82893199336</ele>
        <time>2022-01-14T20:38:37.310Z</time>
      </trkpt>
      <trkpt lat="47.82132" lon="-4.2812">
        <ele>21.08612174481</ele>
        <time>2022-01-14T20:38:42.102Z</time>
      </trkpt>
      <trkpt lat="47.82131" lon="-4.2803">
        <ele>21.37096485139</ele>
        <time>2022-01-14T20:38:46.904Z</time>
      </trkpt>
      <trkpt lat="47.82131" lon="-4.27714">
        <ele>21.79402969515</ele>
        <time>2022-01-14T20:38:51.740Z</time>
      </trkpt>
      <trkpt lat="47.82125" lon="-4.27146">
        <ele>22.10376145599</ele>
        <time>2022-01-14T20:38:56.637Z</time>
      </trkpt>
      <trkpt lat="47.82124" lon="-4.26999">
        <ele>22.33586093082</ele>
        <time>2022-01-14T20:39:01.550Z</time>
      </trkpt>
      <trkpt lat="47.82124" lon="-4.26837">
        <ele>22.46548243008</ele>
        <time>2022-01-14T20:39:06.481Z</time>
      </trkpt>
      <trkpt lat="47.82123" lon="-4.26737">
        <ele>22.55415248216</ele>
        <time>2022-01-14T20:39:11.422Z</time>
      </trkpt>
      <trkpt lat="47.82122" lon="-4.26714">
        <ele>22.62772539844</ele>
        <time>2022-01-14T20:39:16.366Z</time>
      </trkpt>
      <trkpt lat="47.8212" lon="-4.26709">
        <ele>22.7151221321</ele>
        <time>2022-01-14T20:39:21.310Z</time>
      </trkpt>
      <trkpt lat="47.82119" lon="-4.26697">
        <ele>22.77305140984</ele>
        <time>2022-01-14T20:39:26.256Z</time>
      </trkpt>
      <trkpt lat="47.82116" lon="-4.2662">
        <ele>22.90802861699</ele>
        <time>2022-01-14T20:39:31.210Z</time>
      </trkpt>
      <trkpt lat="47.82113" lon="-4.26527">
        <ele>22.80689021974</ele>
        <time>2022-01-14T20:39:36.174Z</time>
      </trkpt>
      <trkpt lat="47.82114" lon="-4.26324">
        <ele>22.76228602683</ele>
        <time>2022-01-14T20:39:41.160Z</time>
      </trkpt>
      <trkpt lat="47.82116" lon="-4.26258">
        <ele>22.62495930189</ele>
        <time>2022-01-14T20:39:46.153Z</time>
      </trkpt>
      <trkpt lat="47.82129" lon="-4.25993">
        <ele>22.54175176798</ele>
        <time>2022-01-14T20:39:51.175Z</time>
      </trkpt>
      <trkpt lat="47.82138" lon="-4.25902">
        <ele>22.39088852522</ele>
        <time>2022-01-14T20:39:56.207Z</time>
      </trkpt>
      <trkpt lat="47.82146" lon="-4.25791">
        <ele>22.1994655489</ele>
        <time>2022-01-14T20:40:01.251Z</time>
      </trkpt>
      <trkpt lat="47.82149" lon="-4.25743">
        <ele>21.98775479882</ele>
        <time>2022-01-14T20:40:06.300Z</time>
      </trkpt>
      <trkpt lat="47.82149" lon="-4.25686">
        <ele>21.85349188809</ele>
        <time>2022-01-14T20:40:11.355Z</time>
      </trkpt>
      <trkpt lat="47.82146" lon="-4.256">
        <ele>21.75174932549</ele>
        <time>2022-01-14T20:40:16.419Z</time>
      </trkpt>
      <trkpt lat="47.82142" lon="-4.25541">
        <ele>21.54853890852</ele>
        <time>2022-01-14T20:40:21.490Z</time>
      </trkpt>
      <trkpt lat="47.82136" lon="-4.25443">
        <ele>21.1680763276</ele>
        <time>2022-01-14T20:40:26.571Z</time>
      </trkpt>
      <trkpt lat="47.82136" lon="-4.25382">
        <ele>20.92082258952</ele>
        <time>2022-01-14T20:40:31.659Z</time>
      </trkpt>
      <trkpt lat="47.82137" lon="-4.25344">
        <ele>20.64872895443</ele>
        <time>2022-01-14T20:40:36.751Z</time>
      </trkpt>
      <trkpt lat="47.82141" lon="-4.25295">
        <ele>20.33092554869</ele>
        <time>2022-01-14T20:40:41.848Z</time>
      </trkpt>
      <trkpt lat="47.82144" lon="-4.25271">
        <ele>20.06576914976</ele>
        <time>2022-01-14T20:40:46.948Z</time>
      </trkpt>
      <trkpt lat="47.82157" lon="-4.25198">
        <ele>19.74365496584</ele>
        <time>2022-01-14T20:40:52.056Z</time>
      </trkpt>
      <trkpt lat="47.82162" lon="-4.2518">
        <ele>19.42169491847</ele>
        <time>2022-01-14T20:40:57.166Z</time>
      </trkpt>
      <trkpt lat="47.82162" lon="-4.25168">
        <ele>19.10324436103</ele>
        <time>2022-01-14T20:41:02.278Z</time>
      </trkpt>
      <trkpt lat="47.82164" lon="-4.25154">
        <ele>18.76714564416</ele>
        <time>2022-01-14T20:41:07.391Z</time>
      </trkpt>
      <trkpt lat="47.82168" lon="-4.25135">
        <ele>18.40204311338</ele>
        <time>2022-01-14T20:41:12.506Z</time>
      </trkpt>
      <trkpt lat="47.82179" lon="-4.25072">
        <ele>17.94778613296</ele>
        <time>2022-01-14T20:41:17.628Z</time>
      </trkpt>
      <trkpt lat="47.82193" lon="-4.25002">
        <ele>17.58154146018</ele>
        <time>2022-01-14T20:41:22.758Z</time>
      </trkpt>
      <trkpt lat="47.8222" lon="-4.24884">
        <ele>17.26616243273</ele>
        <time>2022-01-14T20:41:27.902Z</time>
      </trkpt>
      <trkpt lat="47.82225" lon="-4.24866">
        <ele>16.97652475836</ele>
        <time>2022-01-14T20:41:33.048Z</time>
      </trkpt>
      <trkpt lat="47.82228" lon="-4.2484">
        <ele>16.68576907176</ele>
        <time>2022-01-14T20:41:38.196Z</time>
      </trkpt>
      <trkpt lat="47.82231" lon="-4.24805">
        <ele>16.39325623033</ele>
        <time>2022-01-14T20:41:43.348Z</time>
      </trkpt>
      <trkpt lat="47.82234" lon="-4.24767">
        <ele>16.16555095118</ele>
        <time>2022-01-14T20:41:48.504Z</time>
      </trkpt>
      <trkpt lat="47.82229" lon="-4.24622">
        <ele>15.92168982132</ele>
        <time>2022-01-14T20:41:53.676Z</time>
      </trkpt>
      <trkpt lat="47.8222" lon="-4.24479">
        <ele>15.70470751713</ele>
        <time>2022-01-14T20:41:58.864Z</time>
      </trkpt>
      <trkpt lat="47.82213" lon="-4.24339">
        <ele>15.44737720504</ele>
        <time>2022-01-14T20:42:04.067Z</time>
      </trkpt>
      <trkpt lat="47.82212" lon="-4.24283">
        <ele>15.19810307193</ele>
        <time>2022-01-14T20:42:09.276Z</time>
      </trkpt>
      <trkpt lat="47.82212" lon="-4.24248">
        <ele>14.91703416357</ele>
        <time>2022-01-14T20:42:14.489Z</time>
      </trkpt>
      <trkpt lat="47.82213" lon="-4.24218">
        <ele>14.69454620095</ele>
        <time>2022-01-14T20:42:19.705Z</time>
      </trkpt>
      <trkpt lat="47.82235" lon="-4.23974">
        <ele>14.31955292641</ele>
        <time>2022-01-14T20:42:24.947Z</time>
      </trkpt>
      <trkpt lat="47.82244" lon="-4.23895">
        <ele>14.19945082003</ele>
        <time>2022-01-14T20:42:30.198Z</time>
      </trkpt>
      <trkpt lat="47.82245" lon="-4.23865">
        <ele>14.01425005215</ele>
        <time>2022-01-14T20:42:35.452Z</time>
      </trkpt>
      <trkpt lat="47.82263" lon="-4.23724">
        <ele>13.75001864922</ele>
        <time>2022-01-14T20:42:40.722Z</time>
      </trkpt>
      <trkpt lat="47.82267" lon="-4.2367">
        <ele>13.57639940435</ele>
        <time>2022-01-14T20:42:45.997Z</time>
      </trkpt>
      <trkpt lat="47.82269" lon="-4.23587">
        <ele>13.47734142676</ele>
        <time>2022-01-14T20:42:51.281Z</time>
      </trkpt>
      <trkpt lat="47.82263" lon="-4.23519">
        <ele>13.22612394251</ele>
        <time>2022-01-14T20:42:56.573Z</time>
      </trkpt>
      <trkpt lat="47.82247" lon="-4.23447">
        <ele>12.97630444137</ele>
        <time>2022-01-14T20:43:01.873Z</time>
      </trkpt>
      <trkpt lat="47.82232" lon="-4.23385">
        <ele>12.80663801912</ele>
        <time>2022-01-14T20:43:07.180Z</time>
      </trkpt>
      <trkpt lat="47.82229" lon="-4.23376">
        <ele>12.70199660754</ele>
        <time>2022-01-14T20:43:12.488Z</time>
      </trkpt>
      <trkpt lat="47.82228" lon="-4.23365">
        <ele>12.61457027816</ele>
        <time>2022-01-14T20:43:17.797Z</time>
      </trkpt>
      <trkpt lat="47.82212" lon="-4.23329">
        <ele>12.5662394075</ele>
        <time>2022-01-14T20:43:23.111Z</time>
      </trkpt>
      <trkpt lat="47.822" lon="-4.23298">
        <ele>12.54489900944</ele>
        <time>2022-01-14T20:43:28.429Z</time>
      </trkpt>
      <trkpt lat="47.82194" lon="-4.2327">
        <ele>12.5600680401</ele>
        <time>2022-01-14T20:43:33.750Z</time>
      </trkpt>
      <trkpt lat="47.82194" lon="-4.23256">
        <ele>12.53454919266</ele>
        <time>2022-01-14T20:43:39.073Z</time>
      </trkpt>
      <trkpt lat="47.82195" lon="-4.23227">
        <ele>12.5199502426</ele>
        <time>2022-01-14T20:43:44.399Z</time>
      </trkpt>
      <trkpt lat="47.82215" lon="-4.23166">
        <ele>12.46181331428</ele>
        <time>2022-01-14T20:43:49.732Z</time>
      </trkpt>
      <trkpt lat="47.82231" lon="-4.23119">
        <ele>12.4137837052</ele>
        <time>2022-01-14T20:43:55.071Z</time>
      </trkpt>
      <trkpt lat="47.82251" lon="-4.23066">
        <ele>12.46598452768</ele>
        <time>2022-01-14T20:44:00.416Z</time>
      </trkpt>
      <trkpt lat="47.82286" lon="-4.22979">
        <ele>12.61036081201</ele>
        <time>2022-01-14T20:44:05.772Z</time>
      </trkpt>
      <trkpt lat="47.82286" lon="-4.22972">
        <ele>12.64483719183</ele>
        <time>2022-01-14T20:44:11.129Z</time>
      </trkpt>
      <trkpt lat="47.82286" lon="-4.22946">
        <ele>12.68452220742</ele>
        <time>2022-01-14T20:44:16.489Z</time>
      </trkpt>
      <trkpt lat="47.82285" lon="-4.22946">
        <ele>12.72341688146</ele>
        <time>2022-01-14T20:44:21.849Z</time>
      </trkpt>
      <trkpt lat="47.82285" lon="-4.22945">
        <ele>12.7651353596</ele>
        <time>2022-01-14T20:44:27.209Z</time>
      </trkpt>
      <trkpt lat="47.82284" lon="-4.22945">
        <ele>12.80488032931</ele>
        <time>2022-01-14T20:44:32.569Z</time>
      </trkpt>
      <trkpt lat="47.82284" lon="-4.22943">
        <ele>12.8452428944</ele>
        <time>2022-01-14T20:44:37.929Z</time>
      </trkpt>
      <trkpt lat="47.82283" lon="-4.22939">
        <ele>12.88476250594</ele>
        <time>2022-01-14T20:44:43.290Z</time>
      </trkpt>
      <trkpt lat="47.82285" lon="-4.22935">
        <ele>12.92402566189</ele>
        <time>2022-01-14T20:44:48.651Z</time>
      </trkpt>
      <trkpt lat="47.82286" lon="-4.22934">
        <ele>12.9562029399</ele>
        <time>2022-01-14T20:44:54.013Z</time>
      </trkpt>
      <trkpt lat="47.82284" lon="-4.22916">
        <ele>12.9846675575</ele>
        <time>2022-01-14T20:44:59.377Z</time>
      </trkpt>
      <trkpt lat="47.82284" lon="-4.22894">
        <ele>13.00924005708</ele>
        <time>2022-01-14T20:45:04.743Z</time>
      </trkpt>
      <trkpt lat="47.8228" lon="-4.22836">
        <ele>13.01776682156</ele>
        <time>2022-01-14T20:45:10.115Z</time>
      </trkpt>
      <trkpt lat="47.82276" lon="-4.22783">
        <ele>13.07403368027</ele>
        <time>2022-01-14T20:45:15.493Z</time>
      </trkpt>
      <trkpt lat="47.82259" lon="-4.22727">
        <ele>13.03257325385</ele>
        <time>2022-01-14T20:45:20.878Z</time>
      </trkpt>
      <trkpt lat="47.82241" lon="-4.22686">
        <ele>12.97105173953</ele>
        <time>2022-01-14T20:45:26.268Z</time>
      </trkpt>
      <trkpt lat="47.82231" lon="-4.22668">
        <ele>12.98070584863</ele>
        <time>2022-01-14T20:45:31.660Z</time>
      </trkpt>
      <trkpt lat="47.82214" lon="-4.22646">
        <ele>12.98528006621</ele>
        <time>2022-01-14T20:45:37.056Z</time>
      </trkpt>
      <trkpt lat="47.82171" lon="-4.22596">
        <ele>12.998503481</ele>
        <time>2022-01-14T20:45:42.461Z</time>
      </trkpt>
      <trkpt lat="47.82159" lon="-4.22588">
        <ele>13.00725367458</ele>
        <time>2022-01-14T20:45:47.868Z</time>
      </trkpt>
      <trkpt lat="47.82143" lon="-4.22568">
        <ele>13.02996615908</ele>
        <time>2022-01-14T20:45:53.278Z</time>
      </trkpt>
      <trkpt lat="47.82138" lon="-4.22566">
        <ele>13.04223817582</ele>
        <time>2022-01-14T20:45:58.689Z</time>
      </trkpt>
      <trkpt lat="47.82136" lon="-4.2256">
        <ele>13.0613948802</ele>
        <time>2022-01-14T20:46:04.101Z</time>
      </trkpt>
      <trkpt lat="47.8212" lon="-4.22519">
        <ele>13.04286664079</ele>
        <time>2022-01-14T20:46:09.518Z</time>
      </trkpt>
      <trkpt lat="47.82107" lon="-4.22492">
        <ele>13.12127200704</ele>
        <time>2022-01-14T20:46:14.938Z</time>
      </trkpt>
      <trkpt lat="47.82102" lon="-4.22481">
        <ele>13.13536942894</ele>
        <time>2022-01-14T20:46:20.360Z</time>
      </trkpt>
      <trkpt lat="47.82098" lon="-4.2248">
        <ele>13.14530904707</ele>
        <time>2022-01-14T20:46:25.783Z</time>
      </trkpt>
      <trkpt lat="47.82094" lon="-4.22468">
        <ele>13.15254641635</ele>
        <time>2022-01-14T20:46:31.207Z</time>
      </trkpt>
      <trkpt lat="47.82097" lon="-4.22458">
        <ele>13.14095683617</ele>
        <time>2022-01-14T20:46:36.632Z</time>
      </trkpt>
      <trkpt lat="47.82097" lon="-4.22442">
        <ele>13.10637105987</ele>
        <time>2022-01-14T20:46:42.059Z</time>
      </trkpt>
      <trkpt lat="47.82098" lon="-4.2242">
        <ele>13.08878645445</ele>
        <time>2022-01-14T20:46:47.488Z</time>
      </trkpt>
      <trkpt lat="47.82095" lon="-4.2237">
        <ele>13.07342052055</ele>
        <time>2022-01-14T20:46:52.923Z</time>
      </trkpt>
      <trkpt lat="47.82089" lon="-4.22338">
        <ele>13.07181894836</ele>
        <time>2022-01-14T20:46:58.361Z</time>
      </trkpt>
      <trkpt lat="47.82088" lon="-4.22338">
        <ele>13.0592171186</ele>
        <time>2022-01-14T20:47:03.799Z</time>
      </trkpt>
      <trkpt lat="47.82088" lon="-4.22337">
        <ele>13.04296505028</ele>
        <time>2022-01-14T20:47:09.238Z</time>
      </trkpt>
      <trkpt lat="47.82087" lon="-4.22337">
        <ele>13.02685988068</ele>
        <time>2022-01-14T20:47:14.677Z</time>
      </trkpt>
      <trkpt lat="47.82087" lon="-4.22335">
        <ele>13.00750307686</ele>
        <time>2022-01-14T20:47:20.116Z</time>
      </trkpt>
      <trkpt lat="47.82086" lon="-4.22333">
        <ele>12.98875924486</ele>
        <time>2022-01-14T20:47:25.555Z</time>
      </trkpt>
      <trkpt lat="47.82086" lon="-4.22327">
        <ele>12.95848558249</ele>
        <time>2022-01-14T20:47:30.995Z</time>
      </trkpt>
      <trkpt lat="47.8209" lon="-4.22323">
        <ele>12.93411767269</ele>
        <time>2022-01-14T20:47:36.436Z</time>
      </trkpt>
      <trkpt lat="47.82091" lon="-4.22323">
        <ele>12.91209245119</ele>
        <time>2022-01-14T20:47:41.877Z</time>
      </trkpt>
      <trkpt lat="47.82098" lon="-4.22295">
        <ele>12.87997112308</ele>
        <time>2022-01-14T20:47:47.321Z</time>
      </trkpt>
      <trkpt lat="47.82113" lon="-4.22219">
        <ele>12.84005007443</ele>
        <time>2022-01-14T20:47:52.773Z</time>
      </trkpt>
      <trkpt lat="47.82123" lon="-4.22167">
        <ele>12.76408724577</ele>
        <time>2022-01-14T20:47:58.231Z</time>
      </trkpt>
      <trkpt lat="47.82156" lon="-4.22081">
        <ele>12.83722323245</ele>
        <time>2022-01-14T20:48:03.700Z</time>
      </trkpt>
      <trkpt lat="47.82183" lon="-4.22007">
        <ele>12.87949650612</ele>
        <time>2022-01-14T20:48:09.178Z</time>
      </trkpt>
      <trkpt lat="47.82203" lon="-4.21937">
        <ele>12.80132491956</ele>
        <time>2022-01-14T20:48:14.664Z</time>
      </trkpt>
      <trkpt lat="47.82207" lon="-4.21916">
        <ele>12.71256480249</ele>
        <time>2022-01-14T20:48:20.153Z</time>
      </trkpt>
      <trkpt lat="47.82215" lon="-4.21858">
        <ele>12.64680088385</ele>
        <time>2022-01-14T20:48:25.648Z</time>
      </trkpt>
      <trkpt lat="47.82232" lon="-4.21705">
        <ele>12.76864136128</ele>
        <time>2022-01-14T20:48:31.160Z</time>
      </trkpt>
      <trkpt lat="47.82237" lon="-4.21663">
        <ele>12.72054398083</ele>
        <time>2022-01-14T20:48:36.676Z</time>
      </trkpt>
      <trkpt lat="47.82252" lon="-4.21557">
        <ele>12.69257059753</ele>
        <time>2022-01-14T20:48:42.204Z</time>
      </trkpt>
      <trkpt lat="47.82265" lon="-4.21501">
        <ele>12.68471988573</ele>
        <time>2022-01-14T20:48:47.738Z</time>
      </trkpt>
      <trkpt lat="47.82286" lon="-4.21438">
        <ele>12.6590886539</ele>
        <time>2022-01-14T20:48:53.280Z</time>
      </trkpt>
      <trkpt lat="47.8232" lon="-4.21367">
        <ele>12.66893477588</ele>
        <time>2022-01-14T20:48:58.831Z</time>
      </trkpt>
      <trkpt lat="47.82351" lon="-4.21301">
        <ele>12.81042448881</ele>
        <time>2022-01-14T20:49:04.391Z</time>
      </trkpt>
      <trkpt lat="47.82366" lon="-4.21261">
        <ele>12.76661528507</ele>
        <time>2022-01-14T20:49:09.956Z</time>
      </trkpt>
      <trkpt lat="47.82398" lon="-4.2115">
        <ele>12.8555125081</ele>
        <time>2022-01-14T20:49:15.534Z</time>
      </trkpt>
      <trkpt lat="47.82433" lon="-4.21019">
        <ele>12.84648876384</ele>
        <time>2022-01-14T20:49:21.127Z</time>
      </trkpt>
      <trkpt lat="47.82441" lon="-4.2096">
        <ele>12.78234362285</ele>
        <time>2022-01-14T20:49:26.727Z</time>
      </trkpt>
      <trkpt lat="47.82451" lon="-4.20831">
        <ele>12.7633988051</ele>
        <time>2022-01-14T20:49:32.341Z</time>
      </trkpt>
      <trkpt lat="47.82465" lon="-4.20657">
        <ele>12.7604534499</ele>
        <time>2022-01-14T20:49:37.974Z</time>
      </trkpt>
      <trkpt lat="47.82469" lon="-4.20608">
        <ele>12.69820915052</ele>
        <time>2022-01-14T20:49:43.612Z</time>
      </trkpt>
      <trkpt lat="47.82471" lon="-4.2058">
        <ele>12.6190468283</ele>
        <time>2022-01-14T20:49:49.253Z</time>
      </trkpt>
      <trkpt lat="47.82478" lon="-4.20541">
        <ele>12.57655981291</ele>
        <time>2022-01-14T20:49:54.898Z</time>
      </trkpt>
      <trkpt lat="47.82485" lon="-4.20507">
        <ele>12.52313872555</ele>
        <time>2022-01-14T20:50:00.547Z</time>
      </trkpt>
      <trkpt lat="47.82493" lon="-4.20474">
        <ele>12.4878834803</ele>
        <time>2022-01-14T20:50:06.200Z</time>
      </trkpt>
      <trkpt lat="47.82503" lon="-4.20442">
        <ele>12.43215751024</ele>
        <time>2022-01-14T20:50:11.857Z</time>
      </trkpt>
      <trkpt lat="47.82533" lon="-4.2037">
        <ele>12.34631848817</ele>
        <time>2022-01-14T20:50:17.523Z</time>
      </trkpt>
      <trkpt lat="47.82576" lon="-4.20278">
        <ele>12.29809476312</ele>
        <time>2022-01-14T20:50:23.201Z</time>
      </trkpt>
      <trkpt lat="47.8258" lon="-4.20263">
        <ele>12.24721706687</ele>
        <time>2022-01-14T20:50:28.881Z</time>
      </trkpt>
      <trkpt lat="47.82601" lon="-4.20216">
        <ele>12.23459584758</ele>
        <time>2022-01-14T20:50:34.567Z</time>
      </trkpt>
      <trkpt lat="47.82624" lon="-4.20139">
        <ele>12.28608349581</ele>
        <time>2022-01-14T20:50:40.262Z</time>
      </trkpt>
      <trkpt lat="47.82641" lon="-4.20063">
        <ele>12.27260061668</ele>
        <time>2022-01-14T20:50:45.965Z</time>
      </trkpt>
      <trkpt lat="47.82648" lon="-4.2002">
        <ele>12.23596856818</ele>
        <time>2022-01-14T20:50:51.673Z</time>
      </trkpt>
      <trkpt lat="47.82652" lon="-4.20007">
        <ele>12.21647566625</ele>
        <time>2022-01-14T20:50:57.383Z</time>
      </trkpt>
      <trkpt lat="47.82657" lon="-4.19952">
        <ele>12.21950997947</ele>
        <time>2022-01-14T20:51:03.099Z</time>
      </trkpt>
      <trkpt lat="47.82671" lon="-4.19857">
        <ele>12.23016348014</ele>
        <time>2022-01-14T20:51:08.825Z</time>
      </trkpt>
      <trkpt lat="47.82682" lon="-4.19805">
        <ele>12.21180747628</ele>
        <time>2022-01-14T20:51:14.557Z</time>
      </trkpt>
      <trkpt lat="47.8269" lon="-4.19773">
        <ele>12.14925242694</ele>
        <time>2022-01-14T20:51:20.293Z</time>
      </trkpt>
      <trkpt lat="47.82705" lon="-4.19722">
        <ele>12.12602070561</ele>
        <time>2022-01-14T20:51:26.035Z</time>
      </trkpt>
      <trkpt lat="47.82732" lon="-4.19655">
        <ele>12.09641410969</ele>
        <time>2022-01-14T20:51:31.785Z</time>
      </trkpt>
      <trkpt lat="47.82754" lon="-4.19607">
        <ele>11.9907120968</ele>
        <time>2022-01-14T20:51:37.541Z</time>
      </trkpt>
      <trkpt lat="47.82809" lon="-4.19487">
        <ele>11.9625894757</ele>
        <time>2022-01-14T20:51:43.313Z</time>
      </trkpt>
      <trkpt lat="47.82824" lon="-4.19448">
        <ele>11.94202336064</ele>
        <time>2022-01-14T20:51:49.090Z</time>
      </trkpt>
      <trkpt lat="47.82844" lon="-4.19377">
        <ele>11.97054075854</ele>
        <time>2022-01-14T20:51:54.875Z</time>
      </trkpt>
      <trkpt lat="47.8286" lon="-4.19298">
        <ele>11.94647523658</ele>
        <time>2022-01-14T20:52:00.669Z</time>
      </trkpt>
      <trkpt lat="47.82878" lon="-4.19134">
        <ele>11.98283885964</ele>
        <time>2022-01-14T20:52:06.481Z</time>
      </trkpt>
      <trkpt lat="47.82884" lon="-4.19112">
        <ele>11.92745232739</ele>
        <time>2022-01-14T20:52:12.296Z</time>
      </trkpt>
      <trkpt lat="47.82894" lon="-4.19029">
        <ele>11.92120836607</ele>
        <time>2022-01-14T20:52:18.120Z</time>
      </trkpt>
      <trkpt lat="47.82906" lon="-4.18938">
        <ele>11.89882553816</ele>
        <time>2022-01-14T20:52:23.954Z</time>
      </trkpt>
      <trkpt lat="47.82921" lon="-4.18864">
        <ele>11.84254405931</ele>
        <time>2022-01-14T20:52:29.796Z</time>
      </trkpt>
      <trkpt lat="47.82952" lon="-4.18741">
        <ele>11.77666576455</ele>
        <time>2022-01-14T20:52:35.652Z</time>
      </trkpt>
      <trkpt lat="47.82966" lon="-4.18669">
        <ele>11.70861648831</ele>
        <time>2022-01-14T20:52:41.516Z</time>
      </trkpt>
      <trkpt lat="47.82976" lon="-4.18567">
        <ele>11.61469220087</ele>
        <time>2022-01-14T20:52:47.391Z</time>
      </trkpt>
      <trkpt lat="47.82986" lon="-4.18484">
        <ele>11.51029948783</ele>
        <time>2022-01-14T20:52:53.275Z</time>
      </trkpt>
      <trkpt lat="47.83003" lon="-4.18402">
        <ele>11.41311665292</ele>
        <time>2022-01-14T20:52:59.169Z</time>
      </trkpt>
      <trkpt lat="47.83021" lon="-4.18335">
        <ele>11.27006453594</ele>
        <time>2022-01-14T20:53:05.071Z</time>
      </trkpt>
      <trkpt lat="47.8308" lon="-4.18163">
        <ele>10.98610544596</ele>
        <time>2022-01-14T20:53:10.993Z</time>
      </trkpt>
      <trkpt lat="47.83095" lon="-4.18108">
        <ele>10.88582549918</ele>
        <time>2022-01-14T20:53:16.922Z</time>
      </trkpt>
      <trkpt lat="47.83114" lon="-4.18064">
        <ele>10.80101175808</ele>
        <time>2022-01-14T20:53:22.856Z</time>
      </trkpt>
      <trkpt lat="47.83118" lon="-4.18056">
        <ele>10.67513303439</ele>
        <time>2022-01-14T20:53:28.791Z</time>
      </trkpt>
      <trkpt lat="47.83118" lon="-4.18025">
        <ele>10.55645972615</ele>
        <time>2022-01-14T20:53:34.730Z</time>
      </trkpt>
      <trkpt lat="47.83113" lon="-4.17961">
        <ele>10.37415672791</ele>
        <time>2022-01-14T20:53:40.676Z</time>
      </trkpt>
      <trkpt lat="47.83112" lon="-4.17944">
        <ele>10.20822326802</ele>
        <time>2022-01-14T20:53:46.624Z</time>
      </trkpt>
      <trkpt lat="47.83118" lon="-4.18056">
        <ele>10.67513303439</ele>
        <time>2022-01-14T20:53:52.584Z</time>
      </trkpt>
      <trkpt lat="47.83127" lon="-4.18045">
        <ele>9.72985640257</ele>
        <time>2022-01-14T20:53:58.546Z</time>
      </trkpt>
      <trkpt lat="47.83135" lon="-4.18034">
        <ele>9.59770905753</ele>
        <time>2022-01-14T20:54:04.509Z</time>
      </trkpt>
      <trkpt lat="47.83148" lon="-4.18023">
        <ele>9.45273693423</ele>
        <time>2022-01-14T20:54:10.475Z</time>
      </trkpt>
      <trkpt lat="47.83159" lon="-4.18014">
        <ele>9.32867759016</ele>
        <time>2022-01-14T20:54:16.443Z</time>
      </trkpt>
      <trkpt lat="47.83186" lon="-4.17994">
        <ele>9.17617029733</ele>
        <time>2022-01-14T20:54:22.416Z</time>
      </trkpt>
      <trkpt lat="47.83209" lon="-4.17973">
        <ele>9.07258886171</ele>
        <time>2022-01-14T20:54:28.393Z</time>
      </trkpt>
      <trkpt lat="47.83234" lon="-4.17949">
        <ele>8.9647643532</ele>
        <time>2022-01-14T20:54:34.375Z</time>
      </trkpt>
      <trkpt lat="47.83235" lon="-4.17947">
        <ele>8.8907842694</ele>
        <time>2022-01-14T20:54:40.357Z</time>
      </trkpt>
      <trkpt lat="47.83236" lon="-4.17943">
        <ele>8.82799422725</ele>
        <time>2022-01-14T20:54:46.339Z</time>
      </trkpt>
      <trkpt lat="47.83241" lon="-4.17937">
        <ele>8.77652852248</ele>
        <time>2022-01-14T20:54:52.322Z</time>
      </trkpt>
      <trkpt lat="47.83247" lon="-4.17935">
        <ele>8.73629762186</ele>
        <time>2022-01-14T20:54:58.306Z</time>
      </trkpt>
      <trkpt lat="47.83252" lon="-4.17937">
        <ele>8.70699606003</ele>
        <time>2022-01-14T20:55:04.291Z</time>
      </trkpt>
      <trkpt lat="47.83257" lon="-4.17943">
        <ele>8.69752291593</ele>
        <time>2022-01-14T20:55:10.277Z</time>
      </trkpt>
      <trkpt lat="47.83259" lon="-4.17949">
        <ele>8.70265324388</ele>
        <time>2022-01-14T20:55:16.264Z</time>
      </trkpt>
      <trkpt lat="47.83259" lon="-4.17958">
        <ele>8.71815300738</ele>
        <time>2022-01-14T20:55:22.252Z</time>
      </trkpt>
      <trkpt lat="47.83258" lon="-4.17962">
        <ele>8.73024154728</ele>
        <time>2022-01-14T20:55:28.240Z</time>
      </trkpt>
      <trkpt lat="47.83269" lon="-4.18041">
        <ele>8.71535851202</ele>
        <time>2022-01-14T20:55:34.237Z</time>
      </trkpt>
      <trkpt lat="47.83314" lon="-4.18228">
        <ele>8.91649712673</ele>
        <time>2022-01-14T20:55:40.255Z</time>
      </trkpt>
      <trkpt lat="47.83341" lon="-4.18344">
        <ele>8.83428406977</ele>
        <time>2022-01-14T20:55:46.287Z</time>
      </trkpt>
      <trkpt lat="47.83346" lon="-4.1836">
        <ele>8.86057950928</ele>
        <time>2022-01-14T20:55:52.321Z</time>
      </trkpt>
      <trkpt lat="47.83352" lon="-4.1838">
        <ele>8.90270428892</ele>
        <time>2022-01-14T20:55:58.357Z</time>
      </trkpt>
      <trkpt lat="47.83364" lon="-4.18436">
        <ele>8.86248244001</ele>
        <time>2022-01-14T20:56:04.399Z</time>
      </trkpt>
      <trkpt lat="47.83384" lon="-4.18528">
        <ele>8.86614936628</ele>
        <time>2022-01-14T20:56:10.452Z</time>
      </trkpt>
      <trkpt lat="47.83414" lon="-4.18658">
        <ele>9.09209304178</ele>
        <time>2022-01-14T20:56:16.520Z</time>
      </trkpt>
      <trkpt lat="47.83429" lon="-4.18723">
        <ele>9.07679404607</ele>
        <time>2022-01-14T20:56:22.595Z</time>
      </trkpt>
      <trkpt lat="47.83448" lon="-4.18798">
        <ele>9.07750800446</ele>
        <time>2022-01-14T20:56:28.679Z</time>
      </trkpt>
      <trkpt lat="47.83461" lon="-4.18844">
        <ele>9.09285036728</ele>
        <time>2022-01-14T20:56:34.768Z</time>
      </trkpt>
      <trkpt lat="47.83477" lon="-4.18882">
        <ele>9.09346605141</ele>
        <time>2022-01-14T20:56:40.862Z</time>
      </trkpt>
      <trkpt lat="47.83486" lon="-4.18927">
        <ele>9.08279181776</ele>
        <time>2022-01-14T20:56:46.961Z</time>
      </trkpt>
      <trkpt lat="47.83487" lon="-4.18927">
        <ele>9.11810089761</ele>
        <time>2022-01-14T20:56:53.060Z</time>
      </trkpt>
      <trkpt lat="47.83488" lon="-4.18929">
        <ele>9.15446352124</ele>
        <time>2022-01-14T20:56:59.159Z</time>
      </trkpt>
      <trkpt lat="47.8349" lon="-4.18932">
        <ele>9.19469558888</ele>
        <time>2022-01-14T20:57:05.259Z</time>
      </trkpt>
      <trkpt lat="47.8349" lon="-4.18936">
        <ele>9.24011616017</ele>
        <time>2022-01-14T20:57:11.359Z</time>
      </trkpt>
      <trkpt lat="47.8349" lon="-4.18938">
        <ele>9.30001195217</ele>
        <time>2022-01-14T20:57:17.459Z</time>
      </trkpt>
      <trkpt lat="47.8349" lon="-4.18939">
        <ele>9.36825518524</ele>
        <time>2022-01-14T20:57:23.559Z</time>
      </trkpt>
      <trkpt lat="47.83506" lon="-4.18987">
        <ele>9.44547437601</ele>
        <time>2022-01-14T20:57:29.665Z</time>
      </trkpt>
      <trkpt lat="47.83507" lon="-4.18987">
        <ele>9.53215991753</ele>
        <time>2022-01-14T20:57:35.771Z</time>
      </trkpt>
      <trkpt lat="47.83509" lon="-4.18988">
        <ele>9.62864874432</ele>
        <time>2022-01-14T20:57:41.878Z</time>
      </trkpt>
      <trkpt lat="47.83512" lon="-4.18989">
        <ele>9.73080502087</ele>
        <time>2022-01-14T20:57:47.985Z</time>
      </trkpt>
      <trkpt lat="47.83516" lon="-4.18995">
        <ele>9.85808006021</ele>
        <time>2022-01-14T20:57:54.093Z</time>
      </trkpt>
      <trkpt lat="47.83518" lon="-4.19002">
        <ele>9.99681740002</ele>
        <time>2022-01-14T20:58:00.202Z</time>
      </trkpt>
      <trkpt lat="47.83517" lon="-4.1901">
        <ele>10.14645970784</ele>
        <time>2022-01-14T20:58:06.312Z</time>
      </trkpt>
      <trkpt lat="47.83516" lon="-4.19012">
        <ele>10.29364447941</ele>
        <time>2022-01-14T20:58:12.422Z</time>
      </trkpt>
      <trkpt lat="47.83525" lon="-4.19051">
        <ele>10.49328452407</ele>
        <time>2022-01-14T20:58:18.537Z</time>
      </trkpt>
      <trkpt lat="47.83544" lon="-4.19107">
        <ele>10.70271487111</ele>
        <time>2022-01-14T20:58:24.658Z</time>
      </trkpt>
      <trkpt lat="47.83574" lon="-4.19181">
        <ele>10.91839102918</ele>
        <time>2022-01-14T20:58:30.789Z</time>
      </trkpt>
      <trkpt lat="47.83583" lon="-4.19202">
        <ele>11.09241602731</ele>
        <time>2022-01-14T20:58:36.922Z</time>
      </trkpt>
      <trkpt lat="47.83609" lon="-4.1925">
        <ele>11.26019376891</ele>
        <time>2022-01-14T20:58:43.062Z</time>
      </trkpt>
      <trkpt lat="47.8364" lon="-4.19295">
        <ele>11.34488073448</ele>
        <time>2022-01-14T20:58:49.209Z</time>
      </trkpt>
      <trkpt lat="47.8366" lon="-4.1932">
        <ele>11.52321087431</ele>
        <time>2022-01-14T20:58:55.360Z</time>
      </trkpt>
      <trkpt lat="47.83701" lon="-4.19364">
        <ele>11.72882719421</ele>
        <time>2022-01-14T20:59:01.519Z</time>
      </trkpt>
      <trkpt lat="47.83783" lon="-4.19428">
        <ele>11.80665306964</ele>
        <time>2022-01-14T20:59:07.693Z</time>
      </trkpt>
      <trkpt lat="47.83967" lon="-4.19574">
        <ele>12.13790237947</ele>
        <time>2022-01-14T20:59:13.900Z</time>
      </trkpt>
      <trkpt lat="47.84145" lon="-4.1971">
        <ele>12.31993460177</ele>
        <time>2022-01-14T20:59:20.139Z</time>
      </trkpt>
      <trkpt lat="47.84206" lon="-4.19756">
        <ele>12.50627006796</ele>
        <time>2022-01-14T20:59:26.389Z</time>
      </trkpt>
      <trkpt lat="47.84243" lon="-4.19782">
        <ele>12.70576978563</ele>
        <time>2022-01-14T20:59:32.646Z</time>
      </trkpt>
      <trkpt lat="47.84292" lon="-4.19811">
        <ele>12.89315235389</ele>
        <time>2022-01-14T20:59:38.911Z</time>
      </trkpt>
      <trkpt lat="47.84294" lon="-4.19815">
        <ele>13.08283445787</ele>
        <time>2022-01-14T20:59:45.177Z</time>
      </trkpt>
      <trkpt lat="47.84422" lon="-4.19884">
        <ele>13.46319918641</ele>
        <time>2022-01-14T20:59:51.465Z</time>
      </trkpt>
      <trkpt lat="47.84522" lon="-4.19942">
        <ele>13.61814277078</ele>
        <time>2022-01-14T20:59:57.770Z</time>
      </trkpt>
      <trkpt lat="47.8459" lon="-4.1998">
        <ele>13.92727413943</ele>
        <time>2022-01-14T21:00:04.087Z</time>
      </trkpt>
      <trkpt lat="47.84673" lon="-4.20026">
        <ele>13.95124119981</ele>
        <time>2022-01-14T21:00:10.418Z</time>
      </trkpt>
      <trkpt lat="47.84739" lon="-4.20069">
        <ele>14.13822450099</ele>
        <time>2022-01-14T21:00:16.760Z</time>
      </trkpt>
      <trkpt lat="47.84755" lon="-4.20079">
        <ele>14.32044636965</ele>
        <time>2022-01-14T21:00:23.105Z</time>
      </trkpt>
      <trkpt lat="47.84785" lon="-4.20099">
        <ele>14.46516549561</ele>
        <time>2022-01-14T21:00:29.455Z</time>
      </trkpt>
      <trkpt lat="47.84915" lon="-4.2017">
        <ele>14.68916572561</ele>
        <time>2022-01-14T21:00:35.828Z</time>
      </trkpt>
      <trkpt lat="47.84955" lon="-4.20192">
        <ele>14.8857225217</ele>
        <time>2022-01-14T21:00:42.207Z</time>
      </trkpt>
      <trkpt lat="47.85025" lon="-4.20238">
        <ele>15.1339604905</ele>
        <time>2022-01-14T21:00:48.599Z</time>
      </trkpt>
      <trkpt lat="47.85124" lon="-4.20311">
        <ele>15.42166230851</ele>
        <time>2022-01-14T21:00:55.008Z</time>
      </trkpt>
      <trkpt lat="47.85241" lon="-4.20388">
        <ele>15.45672400927</ele>
        <time>2022-01-14T21:01:01.438Z</time>
      </trkpt>
      <trkpt lat="47.85258" lon="-4.20399">
        <ele>15.68574735651</ele>
        <time>2022-01-14T21:01:07.871Z</time>
      </trkpt>
      <trkpt lat="47.85272" lon="-4.20411">
        <ele>15.90698458958</ele>
        <time>2022-01-14T21:01:14.306Z</time>
      </trkpt>
      <trkpt lat="47.8533" lon="-4.20471">
        <ele>16.16023402479</ele>
        <time>2022-01-14T21:01:20.753Z</time>
      </trkpt>
      <trkpt lat="47.85365" lon="-4.20517">
        <ele>16.26587698286</ele>
        <time>2022-01-14T21:01:27.207Z</time>
      </trkpt>
      <trkpt lat="47.85373" lon="-4.20529">
        <ele>16.40514386074</ele>
        <time>2022-01-14T21:01:33.663Z</time>
      </trkpt>
      <trkpt lat="47.85396" lon="-4.20571">
        <ele>16.58677414864</ele>
        <time>2022-01-14T21:01:40.125Z</time>
      </trkpt>
      <trkpt lat="47.85449" lon="-4.20674">
        <ele>16.80346438516</ele>
        <time>2022-01-14T21:01:46.601Z</time>
      </trkpt>
      <trkpt lat="47.85453" lon="-4.20687">
        <ele>16.91106432999</ele>
        <time>2022-01-14T21:01:53.078Z</time>
      </trkpt>
      <trkpt lat="47.85524" lon="-4.20814">
        <ele>16.82483576334</ele>
        <time>2022-01-14T21:01:59.573Z</time>
      </trkpt>
      <trkpt lat="47.85549" lon="-4.20851">
        <ele>17.01602866825</ele>
        <time>2022-01-14T21:02:06.074Z</time>
      </trkpt>
      <trkpt lat="47.85558" lon="-4.20868">
        <ele>17.12484584111</ele>
        <time>2022-01-14T21:02:12.577Z</time>
      </trkpt>
      <trkpt lat="47.85568" lon="-4.20877">
        <ele>17.20484661041</ele>
        <time>2022-01-14T21:02:19.082Z</time>
      </trkpt>
      <trkpt lat="47.85582" lon="-4.2092">
        <ele>17.28912658852</ele>
        <time>2022-01-14T21:02:25.592Z</time>
      </trkpt>
      <trkpt lat="47.85587" lon="-4.20937">
        <ele>17.3510526438</ele>
        <time>2022-01-14T21:02:32.104Z</time>
      </trkpt>
      <trkpt lat="47.8559" lon="-4.20938">
        <ele>17.39582558515</ele>
        <time>2022-01-14T21:02:38.617Z</time>
      </trkpt>
      <trkpt lat="47.85593" lon="-4.20939">
        <ele>17.42658208369</ele>
        <time>2022-01-14T21:02:45.130Z</time>
      </trkpt>
      <trkpt lat="47.85599" lon="-4.20945">
        <ele>17.43790987438</ele>
        <time>2022-01-14T21:02:51.644Z</time>
      </trkpt>
      <trkpt lat="47.85603" lon="-4.20953">
        <ele>17.43416802426</ele>
        <time>2022-01-14T21:02:58.159Z</time>
      </trkpt>
      <trkpt lat="47.85604" lon="-4.20962">
        <ele>17.41557487041</ele>
        <time>2022-01-14T21:03:04.675Z</time>
      </trkpt>
      <trkpt lat="47.85604" lon="-4.20972">
        <ele>17.38204288011</ele>
        <time>2022-01-14T21:03:11.192Z</time>
      </trkpt>
      <trkpt lat="47.85619" lon="-4.20987">
        <ele>17.33357411523</ele>
        <time>2022-01-14T21:03:17.712Z</time>
      </trkpt>
      <trkpt lat="47.85638" lon="-4.2101">
        <ele>17.30088920427</ele>
        <time>2022-01-14T21:03:24.236Z</time>
      </trkpt>
      <trkpt lat="47.8566" lon="-4.21038">
        <ele>17.24203637857</ele>
        <time>2022-01-14T21:03:30.765Z</time>
      </trkpt>
      <trkpt lat="47.85702" lon="-4.21107">
        <ele>17.05305973541</ele>
        <time>2022-01-14T21:03:37.304Z</time>
      </trkpt>
      <trkpt lat="47.85753" lon="-4.21197">
        <ele>16.99264783396</ele>
        <time>2022-01-14T21:03:43.856Z</time>
      </trkpt>
      <trkpt lat="47.85769" lon="-4.21231">
        <ele>16.90364705175</ele>
        <time>2022-01-14T21:03:50.412Z</time>
      </trkpt>
      <trkpt lat="47.85781" lon="-4.2126">
        <ele>16.73343343144</ele>
        <time>2022-01-14T21:03:56.972Z</time>
      </trkpt>
      <trkpt lat="47.85808" lon="-4.21329">
        <ele>16.4624422486</ele>
        <time>2022-01-14T21:04:03.540Z</time>
      </trkpt>
      <trkpt lat="47.85826" lon="-4.21375">
        <ele>16.20744882883</ele>
        <time>2022-01-14T21:04:10.114Z</time>
      </trkpt>
      <trkpt lat="47.85859" lon="-4.21459">
        <ele>16.03849034303</ele>
        <time>2022-01-14T21:04:16.698Z</time>
      </trkpt>
      <trkpt lat="47.85871" lon="-4.21487">
        <ele>15.9150323484</ele>
        <time>2022-01-14T21:04:23.286Z</time>
      </trkpt>
      <trkpt lat="47.85884" lon="-4.21485">
        <ele>15.74042415267</ele>
        <time>2022-01-14T21:04:29.876Z</time>
      </trkpt>
      <trkpt lat="47.85922" lon="-4.21491">
        <ele>15.57318581311</ele>
        <time>2022-01-14T21:04:36.472Z</time>
      </trkpt>
      <trkpt lat="47.8594" lon="-4.21496">
        <ele>15.38914450821</ele>
        <time>2022-01-14T21:04:43.071Z</time>
      </trkpt>
      <trkpt lat="47.85967" lon="-4.21511">
        <ele>15.210105661</ele>
        <time>2022-01-14T21:04:49.675Z</time>
      </trkpt>
      <trkpt lat="47.86004" lon="-4.21534">
        <ele>15.01321148881</ele>
        <time>2022-01-14T21:04:56.285Z</time>
      </trkpt>
      <trkpt lat="47.86051" lon="-4.21564">
        <ele>14.82430847018</ele>
        <time>2022-01-14T21:05:02.903Z</time>
      </trkpt>
      <trkpt lat="47.86097" lon="-4.21598">
        <ele>14.68035766019</ele>
        <time>2022-01-14T21:05:09.530Z</time>
      </trkpt>
      <trkpt lat="47.86127" lon="-4.2162">
        <ele>14.39186930771</ele>
        <time>2022-01-14T21:05:16.162Z</time>
      </trkpt>
      <trkpt lat="47.86196" lon="-4.21653">
        <ele>14.12690633299</ele>
        <time>2022-01-14T21:05:22.806Z</time>
      </trkpt>
      <trkpt lat="47.86264" lon="-4.21683">
        <ele>13.93754893151</ele>
        <time>2022-01-14T21:05:29.461Z</time>
      </trkpt>
      <trkpt lat="47.86295" lon="-4.21698">
        <ele>13.62835244031</ele>
        <time>2022-01-14T21:05:36.121Z</time>
      </trkpt>
      <trkpt lat="47.86315" lon="-4.21709">
        <ele>13.26981047662</ele>
        <time>2022-01-14T21:05:42.785Z</time>
      </trkpt>
      <trkpt lat="47.86323" lon="-4.21715">
        <ele>12.89971983104</ele>
        <time>2022-01-14T21:05:49.450Z</time>
      </trkpt>
      <trkpt lat="47.8634" lon="-4.21724">
        <ele>12.47482147497</ele>
        <time>2022-01-14T21:05:56.118Z</time>
      </trkpt>
      <trkpt lat="47.86363" lon="-4.21737">
        <ele>12.02454866297</ele>
        <time>2022-01-14T21:06:02.790Z</time>
      </trkpt>
      <trkpt lat="47.86404" lon="-4.21762">
        <ele>11.51445486443</ele>
        <time>2022-01-14T21:06:09.469Z</time>
      </trkpt>
      <trkpt lat="47.86439" lon="-4.21789">
        <ele>11.06491305944</ele>
        <time>2022-01-14T21:06:16.154Z</time>
      </trkpt>
      <trkpt lat="47.86478" lon="-4.2182">
        <ele>10.71497005108</ele>
        <time>2022-01-14T21:06:22.846Z</time>
      </trkpt>
      <trkpt lat="47.86506" lon="-4.21855">
        <ele>10.31354340676</ele>
        <time>2022-01-14T21:06:29.544Z</time>
      </trkpt>
      <trkpt lat="47.86521" lon="-4.21871">
        <ele>9.90326512486</ele>
        <time>2022-01-14T21:06:36.245Z</time>
      </trkpt>
      <trkpt lat="47.86541" lon="-4.21891">
        <ele>9.48965732008</ele>
        <time>2022-01-14T21:06:42.950Z</time>
      </trkpt>
      <trkpt lat="47.86543" lon="-4.21971">
        <ele>9.12908500083</ele>
        <time>2022-01-14T21:06:49.664Z</time>
      </trkpt>
      <trkpt lat="47.86545" lon="-4.21977">
        <ele>8.72085105075</ele>
        <time>2022-01-14T21:06:56.378Z</time>
      </trkpt>
      <trkpt lat="47.86541" lon="-4.21989">
        <ele>8.32795375593</ele>
        <time>2022-01-14T21:07:03.094Z</time>
      </trkpt>
      <trkpt lat="47.86596" lon="-4.22044">
        <ele>7.97887033346</ele>
        <time>2022-01-14T21:07:09.820Z</time>
      </trkpt>
      <trkpt lat="47.86628" lon="-4.22074">
        <ele>7.5435840513</ele>
        <time>2022-01-14T21:07:16.553Z</time>
      </trkpt>
      <trkpt lat="47.86674" lon="-4.22113">
        <ele>7.08870568756</ele>
        <time>2022-01-14T21:07:23.294Z</time>
      </trkpt>
      <trkpt lat="47.86704" lon="-4.22136">
        <ele>6.67938303521</ele>
        <time>2022-01-14T21:07:30.040Z</time>
      </trkpt>
      <trkpt lat="47.8672" lon="-4.22149">
        <ele>6.2883864522</ele>
        <time>2022-01-14T21:07:36.789Z</time>
      </trkpt>
      <trkpt lat="47.86715" lon="-4.22192">
        <ele>5.9780862601</ele>
        <time>2022-01-14T21:07:43.543Z</time>
      </trkpt>
      <trkpt lat="47.86714" lon="-4.22205">
        <ele>5.70197106612</ele>
        <time>2022-01-14T21:07:50.298Z</time>
      </trkpt>
      <trkpt lat="47.8672" lon="-4.22207">
        <ele>5.43336615504</ele>
        <time>2022-01-14T21:07:57.054Z</time>
      </trkpt>
      <trkpt lat="47.86757" lon="-4.22214">
        <ele>5.05333756692</ele>
        <time>2022-01-14T21:08:03.816Z</time>
      </trkpt>
      <trkpt lat="47.86763" lon="-4.22218">
        <ele>4.86536762358</ele>
        <time>2022-01-14T21:08:10.579Z</time>
      </trkpt>
      <trkpt lat="47.86782" lon="-4.2222">
        <ele>4.73339311069</ele>
        <time>2022-01-14T21:08:17.345Z</time>
      </trkpt>
      <trkpt lat="47.86796" lon="-4.2222">
        <ele>4.63531231669</ele>
        <time>2022-01-14T21:08:24.114Z</time>
      </trkpt>
      <trkpt lat="47.86832" lon="-4.22224">
        <ele>4.69045431154</ele>
        <time>2022-01-14T21:08:30.889Z</time>
      </trkpt>
      <trkpt lat="47.86862" lon="-4.22223">
        <ele>4.75951008919</ele>
        <time>2022-01-14T21:08:37.668Z</time>
      </trkpt>
      <trkpt lat="47.86892" lon="-4.22214">
        <ele>4.85076571758</ele>
        <time>2022-01-14T21:08:44.452Z</time>
      </trkpt>
      <trkpt lat="47.86904" lon="-4.22206">
        <ele>4.94686827458</ele>
        <time>2022-01-14T21:08:51.238Z</time>
      </trkpt>
      <trkpt lat="47.86938" lon="-4.22181">
        <ele>5.04912699366</ele>
        <time>2022-01-14T21:08:58.030Z</time>
      </trkpt>
      <trkpt lat="47.87019" lon="-4.22122">
        <ele>5.0836521069</ele>
        <time>2022-01-14T21:09:04.837Z</time>
      </trkpt>
      <trkpt lat="47.8705" lon="-4.22097">
        <ele>5.33084412178</ele>
        <time>2022-01-14T21:09:11.649Z</time>
      </trkpt>
      <trkpt lat="47.87076" lon="-4.22078">
        <ele>5.60739188861</ele>
        <time>2022-01-14T21:09:18.466Z</time>
      </trkpt>
      <trkpt lat="47.87162" lon="-4.22016">
        <ele>5.92076750889</ele>
        <time>2022-01-14T21:09:25.298Z</time>
      </trkpt>
      <trkpt lat="47.87222" lon="-4.21977">
        <ele>6.27608972627</ele>
        <time>2022-01-14T21:09:32.141Z</time>
      </trkpt>
      <trkpt lat="47.87233" lon="-4.21974">
        <ele>6.67263559017</ele>
        <time>2022-01-14T21:09:38.986Z</time>
      </trkpt>
      <trkpt lat="47.87253" lon="-4.21974">
        <ele>7.13249944216</ele>
        <time>2022-01-14T21:09:45.834Z</time>
      </trkpt>
      <trkpt lat="47.87271" lon="-4.21978">
        <ele>7.58229363956</ele>
        <time>2022-01-14T21:09:52.685Z</time>
      </trkpt>
      <trkpt lat="47.8728" lon="-4.21975">
        <ele>8.06414719103</ele>
        <time>2022-01-14T21:09:59.537Z</time>
      </trkpt>
      <trkpt lat="47.87296" lon="-4.21977">
        <ele>8.57922746465</ele>
        <time>2022-01-14T21:10:06.392Z</time>
      </trkpt>
      <trkpt lat="47.87303" lon="-4.21981">
        <ele>9.0936867468</ele>
        <time>2022-01-14T21:10:13.248Z</time>
      </trkpt>
      <trkpt lat="47.87308" lon="-4.21984">
        <ele>9.63610485706</ele>
        <time>2022-01-14T21:10:20.105Z</time>
      </trkpt>
      <trkpt lat="47.87309" lon="-4.21982">
        <ele>10.20587782092</ele>
        <time>2022-01-14T21:10:26.962Z</time>
      </trkpt>
      <trkpt lat="47.87311" lon="-4.2198">
        <ele>10.80245625014</ele>
        <time>2022-01-14T21:10:33.820Z</time>
      </trkpt>
      <trkpt lat="47.87317" lon="-4.21979">
        <ele>11.42527300322</ele>
        <time>2022-01-14T21:10:40.679Z</time>
      </trkpt>
      <trkpt lat="47.87322" lon="-4.21984">
        <ele>12.0736673633</ele>
        <time>2022-01-14T21:10:47.539Z</time>
      </trkpt>
      <trkpt lat="47.87323" lon="-4.21986">
        <ele>12.74680655344</ele>
        <time>2022-01-14T21:10:54.399Z</time>
      </trkpt>
      <trkpt lat="47.8733" lon="-4.21983">
        <ele>13.4436054477</ele>
        <time>2022-01-14T21:11:01.260Z</time>
      </trkpt>
      <trkpt lat="47.87346" lon="-4.21982">
        <ele>14.16678274966</ele>
        <time>2022-01-14T21:11:08.124Z</time>
      </trkpt>
      <trkpt lat="47.87353" lon="-4.21987">
        <ele>14.91879711833</ele>
        <time>2022-01-14T21:11:14.989Z</time>
      </trkpt>
      <trkpt lat="47.87435" lon="-4.22006">
        <ele>15.92397550624</ele>
        <time>2022-01-14T21:11:21.867Z</time>
      </trkpt>
      <trkpt lat="47.8747" lon="-4.22015">
        <ele>16.6793082037</ele>
        <time>2022-01-14T21:11:28.751Z</time>
      </trkpt>
      <trkpt lat="47.87484" lon="-4.22015">
        <ele>17.45618817116</ele>
        <time>2022-01-14T21:11:35.637Z</time>
      </trkpt>
      <trkpt lat="47.87498" lon="-4.22017">
        <ele>18.21721386156</ele>
        <time>2022-01-14T21:11:42.525Z</time>
      </trkpt>
      <trkpt lat="47.87543" lon="-4.22026">
        <ele>19.04401386903</ele>
        <time>2022-01-14T21:11:49.420Z</time>
      </trkpt>
      <trkpt lat="47.87555" lon="-4.22031">
        <ele>19.85666294836</ele>
        <time>2022-01-14T21:11:56.317Z</time>
      </trkpt>
      <trkpt lat="47.87568" lon="-4.22029">
        <ele>20.66792761165</ele>
        <time>2022-01-14T21:12:03.217Z</time>
      </trkpt>
      <trkpt lat="47.87589" lon="-4.22018">
        <ele>21.48999253806</ele>
        <time>2022-01-14T21:12:10.120Z</time>
      </trkpt>
      <trkpt lat="47.87603" lon="-4.22006">
        <ele>22.30569019375</ele>
        <time>2022-01-14T21:12:17.026Z</time>
      </trkpt>
      <trkpt lat="47.87612" lon="-4.21996">
        <ele>23.09219222983</ele>
        <time>2022-01-14T21:12:23.934Z</time>
      </trkpt>
      <trkpt lat="47.87635" lon="-4.21957">
        <ele>23.90888197025</ele>
        <time>2022-01-14T21:12:30.847Z</time>
      </trkpt>
      <trkpt lat="47.87668" lon="-4.21899">
        <ele>24.83611234664</ele>
        <time>2022-01-14T21:12:37.768Z</time>
      </trkpt>
      <trkpt lat="47.87706" lon="-4.21831">
        <ele>25.7093883244</ele>
        <time>2022-01-14T21:12:44.699Z</time>
      </trkpt>
      <trkpt lat="47.87719" lon="-4.21803">
        <ele>26.32530222874</ele>
        <time>2022-01-14T21:12:51.633Z</time>
      </trkpt>
      <trkpt lat="47.87727" lon="-4.21777">
        <ele>26.85992020677</ele>
        <time>2022-01-14T21:12:58.571Z</time>
      </trkpt>
      <trkpt lat="47.87726" lon="-4.2177">
        <ele>27.39105316598</ele>
        <time>2022-01-14T21:13:05.509Z</time>
      </trkpt>
      <trkpt lat="47.87731" lon="-4.2176">
        <ele>27.87843139158</ele>
        <time>2022-01-14T21:13:12.449Z</time>
      </trkpt>
      <trkpt lat="47.87739" lon="-4.21759">
        <ele>28.32608235186</ele>
        <time>2022-01-14T21:13:19.390Z</time>
      </trkpt>
      <trkpt lat="47.87754" lon="-4.21752">
        <ele>28.73121894176</ele>
        <time>2022-01-14T21:13:26.333Z</time>
      </trkpt>
      <trkpt lat="47.87797" lon="-4.21727">
        <ele>29.08694581622</ele>
        <time>2022-01-14T21:13:33.284Z</time>
      </trkpt>
      <trkpt lat="47.87833" lon="-4.21709">
        <ele>29.34838639585</ele>
        <time>2022-01-14T21:13:40.241Z</time>
      </trkpt>
      <trkpt lat="47.87866" lon="-4.21699">
        <ele>29.60556485059</ele>
        <time>2022-01-14T21:13:47.203Z</time>
      </trkpt>
      <trkpt lat="47.87879" lon="-4.21696">
        <ele>29.82261803649</ele>
        <time>2022-01-14T21:13:54.167Z</time>
      </trkpt>
      <trkpt lat="47.87924" lon="-4.21692">
        <ele>29.89239851266</ele>
        <time>2022-01-14T21:14:01.139Z</time>
      </trkpt>
      <trkpt lat="47.87944" lon="-4.21695">
        <ele>30.03145108681</ele>
        <time>2022-01-14T21:14:08.114Z</time>
      </trkpt>
      <trkpt lat="47.87978" lon="-4.21694">
        <ele>30.15335251807</ele>
        <time>2022-01-14T21:14:15.094Z</time>
      </trkpt>
      <trkpt lat="47.87994" lon="-4.21693">
        <ele>30.24860185086</ele>
        <time>2022-01-14T21:14:22.077Z</time>
      </trkpt>
      <trkpt lat="47.88014" lon="-4.21688">
        <ele>30.29506375034</ele>
        <time>2022-01-14T21:14:29.063Z</time>
      </trkpt>
      <trkpt lat="47.88031" lon="-4.21681">
        <ele>30.35966852344</ele>
        <time>2022-01-14T21:14:36.052Z</time>
      </trkpt>
      <trkpt lat="47.88039" lon="-4.21666">
        <ele>30.38127851709</ele>
        <time>2022-01-14T21:14:43.043Z</time>
      </trkpt>
      <trkpt lat="47.8805" lon="-4.21657">
        <ele>30.37803487277</ele>
        <time>2022-01-14T21:14:50.036Z</time>
      </trkpt>
      <trkpt lat="47.88059" lon="-4.21615">
        <ele>30.36620134992</ele>
        <time>2022-01-14T21:14:57.034Z</time>
      </trkpt>
      <trkpt lat="47.88069" lon="-4.21538">
        <ele>30.23401408392</ele>
        <time>2022-01-14T21:15:04.040Z</time>
      </trkpt>
      <trkpt lat="47.88074" lon="-4.21512">
        <ele>30.09166651208</ele>
        <time>2022-01-14T21:15:11.049Z</time>
      </trkpt>
      <trkpt lat="47.88085" lon="-4.21479">
        <ele>29.96509621446</ele>
        <time>2022-01-14T21:15:18.062Z</time>
      </trkpt>
      <trkpt lat="47.88106" lon="-4.21429">
        <ele>29.87269657571</ele>
        <time>2022-01-14T21:15:25.081Z</time>
      </trkpt>
      <trkpt lat="47.88131" lon="-4.21378">
        <ele>29.64194563663</ele>
        <time>2022-01-14T21:15:32.107Z</time>
      </trkpt>
      <trkpt lat="47.88211" lon="-4.21209">
        <ele>29.51953914917</ele>
        <time>2022-01-14T21:15:39.156Z</time>
      </trkpt>
      <trkpt lat="47.88317" lon="-4.20985">
        <ele>29.14101657273</ele>
        <time>2022-01-14T21:15:46.234Z</time>
      </trkpt>
      <trkpt lat="47.88346" lon="-4.20921">
        <ele>28.66641334189</ele>
        <time>2022-01-14T21:15:53.320Z</time>
      </trkpt>
      <trkpt lat="47.88358" lon="-4.20886">
        <ele>28.09165906662</ele>
        <time>2022-01-14T21:16:00.411Z</time>
      </trkpt>
      <trkpt lat="47.88365" lon="-4.20857">
        <ele>27.46937711898</ele>
        <time>2022-01-14T21:16:07.505Z</time>
      </trkpt>
      <trkpt lat="47.88374" lon="-4.20806">
        <ele>26.80894312387</ele>
        <time>2022-01-14T21:16:14.605Z</time>
      </trkpt>
      <trkpt lat="47.88377" lon="-4.20775">
        <ele>26.14920169649</ele>
        <time>2022-01-14T21:16:21.708Z</time>
      </trkpt>
      <trkpt lat="47.88379" lon="-4.20713">
        <ele>25.36375411765</ele>
        <time>2022-01-14T21:16:28.818Z</time>
      </trkpt>
      <trkpt lat="47.88374" lon="-4.2054">
        <ele>24.35860388206</ele>
        <time>2022-01-14T21:16:35.946Z</time>
      </trkpt>
      <trkpt lat="47.88377" lon="-4.20368">
        <ele>23.51456231397</ele>
        <time>2022-01-14T21:16:43.093Z</time>
      </trkpt>
      <trkpt lat="47.88379" lon="-4.20273">
        <ele>22.57386060486</ele>
        <time>2022-01-14T21:16:50.250Z</time>
      </trkpt>
      <trkpt lat="47.88376" lon="-4.20158">
        <ele>21.79197297348</ele>
        <time>2022-01-14T21:16:57.419Z</time>
      </trkpt>
      <trkpt lat="47.88365" lon="-4.1995">
        <ele>20.59679623685</ele>
        <time>2022-01-14T21:17:04.611Z</time>
      </trkpt>
      <trkpt lat="47.88359" lon="-4.19832">
        <ele>19.60790923233</ele>
        <time>2022-01-14T21:17:11.816Z</time>
      </trkpt>
      <trkpt lat="47.88356" lon="-4.1979">
        <ele>18.73454983137</ele>
        <time>2022-01-14T21:17:19.025Z</time>
      </trkpt>
      <trkpt lat="47.88357" lon="-4.19701">
        <ele>17.81032278632</ele>
        <time>2022-01-14T21:17:26.244Z</time>
      </trkpt>
      <trkpt lat="47.88365" lon="-4.1959">
        <ele>17.05009198122</ele>
        <time>2022-01-14T21:17:33.475Z</time>
      </trkpt>
      <trkpt lat="47.88374" lon="-4.19519">
        <ele>16.45766928531</ele>
        <time>2022-01-14T21:17:40.714Z</time>
      </trkpt>
      <trkpt lat="47.88377" lon="-4.19492">
        <ele>16.0065302681</ele>
        <time>2022-01-14T21:17:47.956Z</time>
      </trkpt>
      <trkpt lat="47.88385" lon="-4.19426">
        <ele>15.71387383368</ele>
        <time>2022-01-14T21:17:55.205Z</time>
      </trkpt>
      <trkpt lat="47.88404" lon="-4.19295">
        <ele>15.01278177456</ele>
        <time>2022-01-14T21:18:02.468Z</time>
      </trkpt>
      <trkpt lat="47.88422" lon="-4.19177">
        <ele>14.56170733606</ele>
        <time>2022-01-14T21:18:09.744Z</time>
      </trkpt>
      <trkpt lat="47.88437" lon="-4.19071">
        <ele>14.3941748719</ele>
        <time>2022-01-14T21:18:17.032Z</time>
      </trkpt>
      <trkpt lat="47.88502" lon="-4.18605">
        <ele>14.52957959271</ele>
        <time>2022-01-14T21:18:24.371Z</time>
      </trkpt>
      <trkpt lat="47.88522" lon="-4.18485">
        <ele>14.85349969275</ele>
        <time>2022-01-14T21:18:31.723Z</time>
      </trkpt>
      <trkpt lat="47.88544" lon="-4.18374">
        <ele>14.93422817445</ele>
        <time>2022-01-14T21:18:39.088Z</time>
      </trkpt>
      <trkpt lat="47.88555" lon="-4.18313">
        <ele>15.1207653021</ele>
        <time>2022-01-14T21:18:46.460Z</time>
      </trkpt>
      <trkpt lat="47.88559" lon="-4.18277">
        <ele>15.27661197629</ele>
        <time>2022-01-14T21:18:53.836Z</time>
      </trkpt>
      <trkpt lat="47.88562" lon="-4.18203">
        <ele>15.50625972766</ele>
        <time>2022-01-14T21:19:01.220Z</time>
      </trkpt>
      <trkpt lat="47.88567" lon="-4.17937">
        <ele>15.76416436306</ele>
        <time>2022-01-14T21:19:08.632Z</time>
      </trkpt>
      <trkpt lat="47.88568" lon="-4.17801">
        <ele>16.04161388295</ele>
        <time>2022-01-14T21:19:16.059Z</time>
      </trkpt>
      <trkpt lat="47.88565" lon="-4.17748">
        <ele>16.38258895248</ele>
        <time>2022-01-14T21:19:23.492Z</time>
      </trkpt>
      <trkpt lat="47.88557" lon="-4.17696">
        <ele>16.72864163286</ele>
        <time>2022-01-14T21:19:30.930Z</time>
      </trkpt>
      <trkpt lat="47.88549" lon="-4.17659">
        <ele>17.12983466447</ele>
        <time>2022-01-14T21:19:38.373Z</time>
      </trkpt>
      <trkpt lat="47.88509" lon="-4.17489">
        <ele>17.73817843181</ele>
        <time>2022-01-14T21:19:45.835Z</time>
      </trkpt>
      <trkpt lat="47.88498" lon="-4.17434">
        <ele>18.33776834702</ele>
        <time>2022-01-14T21:19:53.303Z</time>
      </trkpt>
      <trkpt lat="47.88474" lon="-4.17202">
        <ele>18.89484652772</ele>
        <time>2022-01-14T21:20:00.796Z</time>
      </trkpt>
      <trkpt lat="47.88456" lon="-4.17005">
        <ele>19.75089999937</ele>
        <time>2022-01-14T21:20:08.311Z</time>
      </trkpt>
      <trkpt lat="47.88448" lon="-4.1698">
        <ele>20.34153970145</ele>
        <time>2022-01-14T21:20:15.829Z</time>
      </trkpt>
      <trkpt lat="47.88444" lon="-4.16962">
        <ele>20.95126238625</ele>
        <time>2022-01-14T21:20:23.349Z</time>
      </trkpt>
      <trkpt lat="47.88429" lon="-4.16913">
        <ele>21.54765594013</ele>
        <time>2022-01-14T21:20:30.875Z</time>
      </trkpt>
      <trkpt lat="47.88424" lon="-4.16903">
        <ele>22.13202867606</ele>
        <time>2022-01-14T21:20:38.402Z</time>
      </trkpt>
      <trkpt lat="47.88424" lon="-4.16886">
        <ele>22.72578529047</ele>
        <time>2022-01-14T21:20:45.931Z</time>
      </trkpt>
      <trkpt lat="47.88426" lon="-4.16879">
        <ele>23.28763076772</ele>
        <time>2022-01-14T21:20:53.461Z</time>
      </trkpt>
      <trkpt lat="47.88428" lon="-4.16876">
        <ele>23.81857487847</ele>
        <time>2022-01-14T21:21:00.991Z</time>
      </trkpt>
      <trkpt lat="47.88424" lon="-4.1686">
        <ele>24.31657051987</ele>
        <time>2022-01-14T21:21:08.523Z</time>
      </trkpt>
      <trkpt lat="47.8842" lon="-4.1679">
        <ele>24.8537456223</ele>
        <time>2022-01-14T21:21:16.063Z</time>
      </trkpt>
      <trkpt lat="47.8842" lon="-4.16789">
        <ele>25.30852446638</ele>
        <time>2022-01-14T21:21:23.603Z</time>
      </trkpt>
      <trkpt lat="47.8842" lon="-4.16789">
        <ele>25.73593781187</ele>
        <time>2022-01-14T21:21:31.143Z</time>
      </trkpt>
      <trkpt lat="47.8842" lon="-4.1679">
        <ele>26.13543805353</ele>
        <time>2022-01-14T21:21:38.683Z</time>
      </trkpt>
      <trkpt lat="47.8842" lon="-4.16789">
        <ele>26.85068404268</ele>
        <time>2022-01-14T21:21:46.223Z</time>
      </trkpt>
      <trkpt lat="47.8842" lon="-4.16789">
        <ele>27.45783394957</ele>
        <time>2022-01-14T21:21:53.763Z</time>
      </trkpt>
      <trkpt lat="47.88405" lon="-4.16689">
        <ele>27.93044852506</ele>
        <time>2022-01-14T21:22:01.314Z</time>
      </trkpt>
      <trkpt lat="47.88389" lon="-4.16588">
        <ele>28.39034915454</ele>
        <time>2022-01-14T21:22:08.876Z</time>
      </trkpt>
      <trkpt lat="47.88374" lon="-4.16488">
        <ele>28.67729789068</ele>
        <time>2022-01-14T21:22:16.449Z</time>
      </trkpt>
      <trkpt lat="47.88369" lon="-4.16431">
        <ele>29.00378516882</ele>
        <time>2022-01-14T21:22:24.028Z</time>
      </trkpt>
      <trkpt lat="47.8837" lon="-4.16379">
        <ele>29.26974260381</ele>
        <time>2022-01-14T21:22:31.613Z</time>
      </trkpt>
      <trkpt lat="47.88375" lon="-4.16315">
        <ele>29.3862104029</ele>
        <time>2022-01-14T21:22:39.205Z</time>
      </trkpt>
      <trkpt lat="47.88389" lon="-4.1621">
        <ele>29.63476314748</ele>
        <time>2022-01-14T21:22:46.808Z</time>
      </trkpt>
      <trkpt lat="47.88403" lon="-4.16105">
        <ele>29.76372002131</ele>
        <time>2022-01-14T21:22:54.423Z</time>
      </trkpt>
      <trkpt lat="47.88416" lon="-4.16">
        <ele>29.90962434556</ele>
        <time>2022-01-14T21:23:02.049Z</time>
      </trkpt>
      <trkpt lat="47.8843" lon="-4.15895">
        <ele>29.71901079198</ele>
        <time>2022-01-14T21:23:09.687Z</time>
      </trkpt>
      <trkpt lat="47.88437" lon="-4.15826">
        <ele>29.65507780429</ele>
        <time>2022-01-14T21:23:17.332Z</time>
      </trkpt>
      <trkpt lat="47.8844" lon="-4.15782">
        <ele>29.57366219562</ele>
        <time>2022-01-14T21:23:24.982Z</time>
      </trkpt>
      <trkpt lat="47.88436" lon="-4.15702">
        <ele>29.28082824385</ele>
        <time>2022-01-14T21:23:32.641Z</time>
      </trkpt>
      <trkpt lat="47.88425" lon="-4.15616">
        <ele>29.24848337166</ele>
        <time>2022-01-14T21:23:40.309Z</time>
      </trkpt>
      <trkpt lat="47.88422" lon="-4.15607">
        <ele>29.2378471917</ele>
        <time>2022-01-14T21:23:47.978Z</time>
      </trkpt>
      <trkpt lat="47.88424" lon="-4.15597">
        <ele>29.3096286051</ele>
        <time>2022-01-14T21:23:55.648Z</time>
      </trkpt>
      <trkpt lat="47.88418" lon="-4.15534">
        <ele>29.48108084238</ele>
        <time>2022-01-14T21:24:03.325Z</time>
      </trkpt>
      <trkpt lat="47.88408" lon="-4.15442">
        <ele>29.6767434875</ele>
        <time>2022-01-14T21:24:11.012Z</time>
      </trkpt>
      <trkpt lat="47.88397" lon="-4.15351">
        <ele>29.7526902534</ele>
        <time>2022-01-14T21:24:18.709Z</time>
      </trkpt>
      <trkpt lat="47.88387" lon="-4.15259">
        <ele>29.83451622617</ele>
        <time>2022-01-14T21:24:26.416Z</time>
      </trkpt>
      <trkpt lat="47.88378" lon="-4.15205">
        <ele>29.93909668714</ele>
        <time>2022-01-14T21:24:34.129Z</time>
      </trkpt>
      <trkpt lat="47.88352" lon="-4.1511">
        <ele>29.97106434758</ele>
        <time>2022-01-14T21:24:41.853Z</time>
      </trkpt>
      <trkpt lat="47.88345" lon="-4.15091">
        <ele>29.89708291302</ele>
        <time>2022-01-14T21:24:49.580Z</time>
      </trkpt>
      <trkpt lat="47.88333" lon="-4.15064">
        <ele>29.76901843147</ele>
        <time>2022-01-14T21:24:57.310Z</time>
      </trkpt>
      <trkpt lat="47.88306" lon="-4.15017">
        <ele>29.56627884499</ele>
        <time>2022-01-14T21:25:05.047Z</time>
      </trkpt>
      <trkpt lat="47.88241" lon="-4.1493">
        <ele>29.26493954815</ele>
        <time>2022-01-14T21:25:12.798Z</time>
      </trkpt>
      <trkpt lat="47.88188" lon="-4.14866">
        <ele>28.87276572664</ele>
        <time>2022-01-14T21:25:20.560Z</time>
      </trkpt>
      <trkpt lat="47.88135" lon="-4.14802">
        <ele>28.37054685774</ele>
        <time>2022-01-14T21:25:28.333Z</time>
      </trkpt>
      <trkpt lat="47.88082" lon="-4.14739">
        <ele>28.21742379929</ele>
        <time>2022-01-14T21:25:36.117Z</time>
      </trkpt>
      <trkpt lat="47.88029" lon="-4.14675">
        <ele>27.93463196431</ele>
        <time>2022-01-14T21:25:43.911Z</time>
      </trkpt>
      <trkpt lat="47.87975" lon="-4.14606">
        <ele>27.88610186969</ele>
        <time>2022-01-14T21:25:51.717Z</time>
      </trkpt>
      <trkpt lat="47.87938" lon="-4.14546">
        <ele>28.16719080863</ele>
        <time>2022-01-14T21:25:59.532Z</time>
      </trkpt>
      <trkpt lat="47.87912" lon="-4.14487">
        <ele>28.70511958208</ele>
        <time>2022-01-14T21:26:07.354Z</time>
      </trkpt>
      <trkpt lat="47.87899" lon="-4.14442">
        <ele>29.50694649992</ele>
        <time>2022-01-14T21:26:15.182Z</time>
      </trkpt>
      <trkpt lat="47.87892" lon="-4.14405">
        <ele>30.31585860298</ele>
        <time>2022-01-14T21:26:23.014Z</time>
      </trkpt>
      <trkpt lat="47.87889" lon="-4.14358">
        <ele>31.24200507615</ele>
        <time>2022-01-14T21:26:30.851Z</time>
      </trkpt>
      <trkpt lat="47.87887" lon="-4.14273">
        <ele>32.27742615221</ele>
        <time>2022-01-14T21:26:38.697Z</time>
      </trkpt>
      <trkpt lat="47.87893" lon="-4.14173">
        <ele>33.11790946701</ele>
        <time>2022-01-14T21:26:46.554Z</time>
      </trkpt>
      <trkpt lat="47.87895" lon="-4.141">
        <ele>33.81429018718</ele>
        <time>2022-01-14T21:26:54.419Z</time>
      </trkpt>
      <trkpt lat="47.87892" lon="-4.14032">
        <ele>34.38048513737</ele>
        <time>2022-01-14T21:27:02.291Z</time>
      </trkpt>
      <trkpt lat="47.87889" lon="-4.13964">
        <ele>34.72216780803</ele>
        <time>2022-01-14T21:27:10.170Z</time>
      </trkpt>
      <trkpt lat="47.8788" lon="-4.13886">
        <ele>34.73512526544</ele>
        <time>2022-01-14T21:27:18.058Z</time>
      </trkpt>
      <trkpt lat="47.87861" lon="-4.1379">
        <ele>34.70296966956</ele>
        <time>2022-01-14T21:27:25.957Z</time>
      </trkpt>
      <trkpt lat="47.8786" lon="-4.13785">
        <ele>34.48871498801</ele>
        <time>2022-01-14T21:27:33.856Z</time>
      </trkpt>
      <trkpt lat="47.87842" lon="-4.13703">
        <ele>33.94588555885</ele>
        <time>2022-01-14T21:27:41.764Z</time>
      </trkpt>
      <trkpt lat="47.87823" lon="-4.13621">
        <ele>33.41073993717</ele>
        <time>2022-01-14T21:27:49.682Z</time>
      </trkpt>
      <trkpt lat="47.87802" lon="-4.13516">
        <ele>32.66714102776</ele>
        <time>2022-01-14T21:27:57.612Z</time>
      </trkpt>
      <trkpt lat="47.87787" lon="-4.13452">
        <ele>31.8635750843</ele>
        <time>2022-01-14T21:28:05.549Z</time>
      </trkpt>
      <trkpt lat="47.87791" lon="-4.13439">
        <ele>31.02921133665</ele>
        <time>2022-01-14T21:28:13.487Z</time>
      </trkpt>
      <trkpt lat="47.878" lon="-4.13431">
        <ele>30.14108857886</ele>
        <time>2022-01-14T21:28:21.427Z</time>
      </trkpt>
      <trkpt lat="47.87808" lon="-4.1341">
        <ele>29.17920671298</ele>
        <time>2022-01-14T21:28:29.370Z</time>
      </trkpt>
      <trkpt lat="47.87828" lon="-4.13295">
        <ele>27.91721809616</ele>
        <time>2022-01-14T21:28:37.325Z</time>
      </trkpt>
      <trkpt lat="47.87846" lon="-4.1322">
        <ele>26.89878367684</ele>
        <time>2022-01-14T21:28:45.289Z</time>
      </trkpt>
      <trkpt lat="47.87873" lon="-4.13138">
        <ele>25.57012070295</ele>
        <time>2022-01-14T21:28:53.263Z</time>
      </trkpt>
      <trkpt lat="47.87887" lon="-4.13107">
        <ele>24.34139730462</ele>
        <time>2022-01-14T21:29:01.241Z</time>
      </trkpt>
      <trkpt lat="47.8791" lon="-4.13056">
        <ele>23.05981793402</ele>
        <time>2022-01-14T21:29:09.226Z</time>
      </trkpt>
      <trkpt lat="47.87954" lon="-4.12983">
        <ele>21.90151725422</ele>
        <time>2022-01-14T21:29:17.221Z</time>
      </trkpt>
      <trkpt lat="47.88018" lon="-4.12892">
        <ele>20.66760297353</ele>
        <time>2022-01-14T21:29:25.230Z</time>
      </trkpt>
      <trkpt lat="47.8807" lon="-4.12815">
        <ele>19.40799418229</ele>
        <time>2022-01-14T21:29:33.251Z</time>
      </trkpt>
      <trkpt lat="47.88121" lon="-4.12738">
        <ele>18.1221288265</ele>
        <time>2022-01-14T21:29:41.284Z</time>
      </trkpt>
      <trkpt lat="47.88131" lon="-4.1272">
        <ele>16.87615718112</ele>
        <time>2022-01-14T21:29:49.319Z</time>
      </trkpt>
      <trkpt lat="47.88183" lon="-4.12643">
        <ele>15.67420983986</ele>
        <time>2022-01-14T21:29:57.366Z</time>
      </trkpt>
      <trkpt lat="47.88236" lon="-4.12566">
        <ele>14.52089604077</ele>
        <time>2022-01-14T21:30:05.425Z</time>
      </trkpt>
      <trkpt lat="47.88288" lon="-4.12489">
        <ele>13.28495653702</ele>
        <time>2022-01-14T21:30:13.496Z</time>
      </trkpt>
      <trkpt lat="47.88331" lon="-4.12427">
        <ele>12.0723736694</ele>
        <time>2022-01-14T21:30:21.576Z</time>
      </trkpt>
      <trkpt lat="47.88377" lon="-4.12359">
        <ele>10.93076864505</ele>
        <time>2022-01-14T21:30:29.666Z</time>
      </trkpt>
      <trkpt lat="47.88422" lon="-4.12291">
        <ele>8.96550757279</ele>
        <time>2022-01-14T21:30:37.767Z</time>
      </trkpt>
      <trkpt lat="47.88473" lon="-4.12217">
        <ele>8.30840481069</ele>
        <time>2022-01-14T21:30:45.879Z</time>
      </trkpt>
      <trkpt lat="47.88524" lon="-4.12143">
        <ele>8.00011270942</ele>
        <time>2022-01-14T21:30:54.003Z</time>
      </trkpt>
      <trkpt lat="47.88561" lon="-4.12087">
        <ele>8.07034123264</ele>
        <time>2022-01-14T21:31:02.135Z</time>
      </trkpt>
      <trkpt lat="47.88598" lon="-4.12031">
        <ele>8.52360550515</ele>
        <time>2022-01-14T21:31:10.276Z</time>
      </trkpt>
      <trkpt lat="47.88598" lon="-4.12032">
        <ele>9.3104980343</ele>
        <time>2022-01-14T21:31:18.417Z</time>
      </trkpt>
      <trkpt lat="47.88645" lon="-4.11955">
        <ele>10.82008687757</ele>
        <time>2022-01-14T21:31:26.569Z</time>
      </trkpt>
      <trkpt lat="47.88665" lon="-4.11909">
        <ele>12.42337552795</ele>
        <time>2022-01-14T21:31:34.727Z</time>
      </trkpt>
      <trkpt lat="47.8868" lon="-4.11869">
        <ele>13.76866139977</ele>
        <time>2022-01-14T21:31:42.890Z</time>
      </trkpt>
      <trkpt lat="47.8869" lon="-4.11821">
        <ele>15.07470136309</ele>
        <time>2022-01-14T21:31:51.058Z</time>
      </trkpt>
      <trkpt lat="47.88699" lon="-4.11733">
        <ele>16.04315727144</ele>
        <time>2022-01-14T21:31:59.236Z</time>
      </trkpt>
      <trkpt lat="47.88698" lon="-4.11681">
        <ele>16.87546615793</ele>
        <time>2022-01-14T21:32:07.419Z</time>
      </trkpt>
      <trkpt lat="47.88693" lon="-4.11631">
        <ele>17.33679871184</ele>
        <time>2022-01-14T21:32:15.608Z</time>
      </trkpt>
      <trkpt lat="47.88682" lon="-4.11573">
        <ele>17.25632373927</ele>
        <time>2022-01-14T21:32:23.803Z</time>
      </trkpt>
      <trkpt lat="47.88668" lon="-4.11524">
        <ele>16.92359276574</ele>
        <time>2022-01-14T21:32:32.004Z</time>
      </trkpt>
      <trkpt lat="47.88649" lon="-4.11482">
        <ele>16.15856885918</ele>
        <time>2022-01-14T21:32:40.210Z</time>
      </trkpt>
      <trkpt lat="47.8862" lon="-4.11428">
        <ele>15.08271614638</ele>
        <time>2022-01-14T21:32:48.424Z</time>
      </trkpt>
      <trkpt lat="47.88569" lon="-4.11332">
        <ele>13.9450930801</ele>
        <time>2022-01-14T21:32:56.651Z</time>
      </trkpt>
      <trkpt lat="47.88517" lon="-4.11235">
        <ele>12.51917684673</ele>
        <time>2022-01-14T21:33:04.891Z</time>
      </trkpt>
      <trkpt lat="47.88466" lon="-4.11139">
        <ele>10.56724322625</ele>
        <time>2022-01-14T21:33:13.145Z</time>
      </trkpt>
      <trkpt lat="47.88414" lon="-4.11042">
        <ele>9.28517882411</ele>
        <time>2022-01-14T21:33:21.412Z</time>
      </trkpt>
      <trkpt lat="47.88363" lon="-4.10946">
        <ele>7.60997667781</ele>
        <time>2022-01-14T21:33:29.692Z</time>
      </trkpt>
      <trkpt lat="47.88311" lon="-4.1085">
        <ele>5.99467974363</ele>
        <time>2022-01-14T21:33:37.985Z</time>
      </trkpt>
      <trkpt lat="47.8826" lon="-4.10753">
        <ele>4.80456269222</ele>
        <time>2022-01-14T21:33:46.292Z</time>
      </trkpt>
      <trkpt lat="47.88208" lon="-4.10657">
        <ele>3.872738142</ele>
        <time>2022-01-14T21:33:54.612Z</time>
      </trkpt>
      <trkpt lat="47.88153" lon="-4.10556">
        <ele>3.56658008569</ele>
        <time>2022-01-14T21:34:02.946Z</time>
      </trkpt>
      <trkpt lat="47.8813" lon="-4.10535">
        <ele>2.96898133638</ele>
        <time>2022-01-14T21:34:11.284Z</time>
      </trkpt>
      <trkpt lat="47.88114" lon="-4.10533">
        <ele>2.60317650505</ele>
        <time>2022-01-14T21:34:19.625Z</time>
      </trkpt>
      <trkpt lat="47.8811" lon="-4.10534">
        <ele>2.54478179499</ele>
        <time>2022-01-14T21:34:27.966Z</time>
      </trkpt>
      <trkpt lat="47.88104" lon="-4.10532">
        <ele>2.71956754181</ele>
        <time>2022-01-14T21:34:36.308Z</time>
      </trkpt>
      <trkpt lat="47.88098" lon="-4.10527">
        <ele>3.1357808567</ele>
        <time>2022-01-14T21:34:44.651Z</time>
      </trkpt>
      <trkpt lat="47.88095" lon="-4.1052">
        <ele>3.80291816885</ele>
        <time>2022-01-14T21:34:52.995Z</time>
      </trkpt>
      <trkpt lat="47.88096" lon="-4.10499">
        <ele>4.70655852932</ele>
        <time>2022-01-14T21:35:01.342Z</time>
      </trkpt>
      <trkpt lat="47.8811" lon="-4.10482">
        <ele>5.94765793162</ele>
        <time>2022-01-14T21:35:09.692Z</time>
      </trkpt>
      <trkpt lat="47.88121" lon="-4.10452">
        <ele>7.44981613627</ele>
        <time>2022-01-14T21:35:18.045Z</time>
      </trkpt>
      <trkpt lat="47.88128" lon="-4.10438">
        <ele>9.08717162132</ele>
        <time>2022-01-14T21:35:26.400Z</time>
      </trkpt>
      <trkpt lat="47.88142" lon="-4.10428">
        <ele>10.90287162028</ele>
        <time>2022-01-14T21:35:34.758Z</time>
      </trkpt>
      <trkpt lat="47.88204" lon="-4.10369">
        <ele>13.03994619828</ele>
        <time>2022-01-14T21:35:43.127Z</time>
      </trkpt>
      <trkpt lat="47.88263" lon="-4.10318">
        <ele>14.78929599442</ele>
        <time>2022-01-14T21:35:51.507Z</time>
      </trkpt>
      <trkpt lat="47.88323" lon="-4.10266">
        <ele>16.83244549421</ele>
        <time>2022-01-14T21:35:59.898Z</time>
      </trkpt>
      <trkpt lat="47.88382" lon="-4.10215">
        <ele>18.84966018305</ele>
        <time>2022-01-14T21:36:08.300Z</time>
      </trkpt>
      <trkpt lat="47.88441" lon="-4.10163">
        <ele>20.73995710683</ele>
        <time>2022-01-14T21:36:16.713Z</time>
      </trkpt>
      <trkpt lat="47.88501" lon="-4.10118">
        <ele>22.44804587679</ele>
        <time>2022-01-14T21:36:25.137Z</time>
      </trkpt>
      <trkpt lat="47.88574" lon="-4.10072">
        <ele>24.06007048547</ele>
        <time>2022-01-14T21:36:33.574Z</time>
      </trkpt>
      <trkpt lat="47.88624" lon="-4.10035">
        <ele>25.45122187449</ele>
        <time>2022-01-14T21:36:42.020Z</time>
      </trkpt>
      <trkpt lat="47.88674" lon="-4.09998">
        <ele>26.78513169626</ele>
        <time>2022-01-14T21:36:50.475Z</time>
      </trkpt>
      <trkpt lat="47.88705" lon="-4.09969">
        <ele>27.89371442137</ele>
        <time>2022-01-14T21:36:58.936Z</time>
      </trkpt>
      <trkpt lat="47.88745" lon="-4.09932">
        <ele>28.82826625346</ele>
        <time>2022-01-14T21:37:07.404Z</time>
      </trkpt>
      <trkpt lat="47.88784" lon="-4.09895">
        <ele>29.69657937214</ele>
        <time>2022-01-14T21:37:15.879Z</time>
      </trkpt>
      <trkpt lat="47.88851" lon="-4.09829">
        <ele>30.71997714877</ele>
        <time>2022-01-14T21:37:24.367Z</time>
      </trkpt>
      <trkpt lat="47.88918" lon="-4.09762">
        <ele>31.53760449183</ele>
        <time>2022-01-14T21:37:32.868Z</time>
      </trkpt>
      <trkpt lat="47.88977" lon="-4.09712">
        <ele>32.17308216141</ele>
        <time>2022-01-14T21:37:41.380Z</time>
      </trkpt>
      <trkpt lat="47.89031" lon="-4.09662">
        <ele>32.38190147197</ele>
        <time>2022-01-14T21:37:49.902Z</time>
      </trkpt>
      <trkpt lat="47.89086" lon="-4.09613">
        <ele>32.66201247884</ele>
        <time>2022-01-14T21:37:58.435Z</time>
      </trkpt>
      <trkpt lat="47.8914" lon="-4.09563">
        <ele>33.08459111462</ele>
        <time>2022-01-14T21:38:06.978Z</time>
      </trkpt>
      <trkpt lat="47.89162" lon="-4.09537">
        <ele>33.31134209153</ele>
        <time>2022-01-14T21:38:15.525Z</time>
      </trkpt>
      <trkpt lat="47.89203" lon="-4.09474">
        <ele>33.50555036722</ele>
        <time>2022-01-14T21:38:24.082Z</time>
      </trkpt>
      <trkpt lat="47.89245" lon="-4.094">
        <ele>33.78828053515</ele>
        <time>2022-01-14T21:38:32.649Z</time>
      </trkpt>
      <trkpt lat="47.89286" lon="-4.09326">
        <ele>34.01200619656</ele>
        <time>2022-01-14T21:38:41.226Z</time>
      </trkpt>
      <trkpt lat="47.89286" lon="-4.09327">
        <ele>34.16573413102</ele>
        <time>2022-01-14T21:38:49.804Z</time>
      </trkpt>
      <trkpt lat="47.89297" lon="-4.09308">
        <ele>34.32082965283</ele>
        <time>2022-01-14T21:38:58.384Z</time>
      </trkpt>
      <trkpt lat="47.89331" lon="-4.09232">
        <ele>34.40484932604</ele>
        <time>2022-01-14T21:39:06.974Z</time>
      </trkpt>
      <trkpt lat="47.89366" lon="-4.09156">
        <ele>34.54021409589</ele>
        <time>2022-01-14T21:39:15.574Z</time>
      </trkpt>
      <trkpt lat="47.894" lon="-4.0908">
        <ele>34.88528836328</ele>
        <time>2022-01-14T21:39:24.184Z</time>
      </trkpt>
      <trkpt lat="47.89397" lon="-4.09067">
        <ele>35.17208253878</ele>
        <time>2022-01-14T21:39:32.795Z</time>
      </trkpt>
      <trkpt lat="47.894" lon="-4.09057">
        <ele>35.51505902366</ele>
        <time>2022-01-14T21:39:41.408Z</time>
      </trkpt>
      <trkpt lat="47.89405" lon="-4.09051">
        <ele>35.9023712629</ele>
        <time>2022-01-14T21:39:50.022Z</time>
      </trkpt>
      <trkpt lat="47.89412" lon="-4.09051">
        <ele>36.32390579152</ele>
        <time>2022-01-14T21:39:58.637Z</time>
      </trkpt>
      <trkpt lat="47.89424" lon="-4.0902">
        <ele>36.81331862251</ele>
        <time>2022-01-14T21:40:07.256Z</time>
      </trkpt>
      <trkpt lat="47.8947" lon="-4.08922">
        <ele>37.36505816936</ele>
        <time>2022-01-14T21:40:15.887Z</time>
      </trkpt>
      <trkpt lat="47.89516" lon="-4.08823">
        <ele>37.7804634512</ele>
        <time>2022-01-14T21:40:24.531Z</time>
      </trkpt>
      <trkpt lat="47.89562" lon="-4.08746">
        <ele>38.20124667079</ele>
        <time>2022-01-14T21:40:33.186Z</time>
      </trkpt>
      <trkpt lat="47.89625" lon="-4.08651">
        <ele>38.30637811843</ele>
        <time>2022-01-14T21:40:41.856Z</time>
      </trkpt>
      <trkpt lat="47.89691" lon="-4.08571">
        <ele>38.48237090714</ele>
        <time>2022-01-14T21:40:50.539Z</time>
      </trkpt>
      <trkpt lat="47.89743" lon="-4.08514">
        <ele>38.72538535342</ele>
        <time>2022-01-14T21:40:59.233Z</time>
      </trkpt>
      <trkpt lat="47.89783" lon="-4.08453">
        <ele>38.75414218891</ele>
        <time>2022-01-14T21:41:07.936Z</time>
      </trkpt>
      <trkpt lat="47.89811" lon="-4.084">
        <ele>38.60222923019</ele>
        <time>2022-01-14T21:41:16.646Z</time>
      </trkpt>
      <trkpt lat="47.89838" lon="-4.08347">
        <ele>38.34281403331</ele>
        <time>2022-01-14T21:41:25.363Z</time>
      </trkpt>
      <trkpt lat="47.89899" lon="-4.08253">
        <ele>38.10687482812</ele>
        <time>2022-01-14T21:41:34.094Z</time>
      </trkpt>
      <trkpt lat="47.8995" lon="-4.08181">
        <ele>37.7552585046</ele>
        <time>2022-01-14T21:41:42.837Z</time>
      </trkpt>
      <trkpt lat="47.89975" lon="-4.08148">
        <ele>37.56383882513</ele>
        <time>2022-01-14T21:41:51.585Z</time>
      </trkpt>
      <trkpt lat="47.90026" lon="-4.08097">
        <ele>37.38452461917</ele>
        <time>2022-01-14T21:42:00.343Z</time>
      </trkpt>
      <trkpt lat="47.90077" lon="-4.08047">
        <ele>37.2809164411</ele>
        <time>2022-01-14T21:42:09.111Z</time>
      </trkpt>
      <trkpt lat="47.90128" lon="-4.07996">
        <ele>37.2061433219</ele>
        <time>2022-01-14T21:42:17.889Z</time>
      </trkpt>
      <trkpt lat="47.90194" lon="-4.0793">
        <ele>37.18251910612</ele>
        <time>2022-01-14T21:42:26.679Z</time>
      </trkpt>
      <trkpt lat="47.90265" lon="-4.07857">
        <ele>37.10720654013</ele>
        <time>2022-01-14T21:42:35.483Z</time>
      </trkpt>
      <trkpt lat="47.90335" lon="-4.07784">
        <ele>37.0830992614</ele>
        <time>2022-01-14T21:42:44.301Z</time>
      </trkpt>
      <trkpt lat="47.90383" lon="-4.07744">
        <ele>37.02928019814</ele>
        <time>2022-01-14T21:42:53.128Z</time>
      </trkpt>
      <trkpt lat="47.90456" lon="-4.07691">
        <ele>36.93194572777</ele>
        <time>2022-01-14T21:43:01.968Z</time>
      </trkpt>
      <trkpt lat="47.9052" lon="-4.07649">
        <ele>36.77504076217</ele>
        <time>2022-01-14T21:43:10.819Z</time>
      </trkpt>
      <trkpt lat="47.90583" lon="-4.07606">
        <ele>36.56025743018</ele>
        <time>2022-01-14T21:43:19.681Z</time>
      </trkpt>
      <trkpt lat="47.90647" lon="-4.07564">
        <ele>36.45738998929</ele>
        <time>2022-01-14T21:43:28.554Z</time>
      </trkpt>
      <trkpt lat="47.90699" lon="-4.07527">
        <ele>36.58006506869</ele>
        <time>2022-01-14T21:43:37.436Z</time>
      </trkpt>
      <trkpt lat="47.90751" lon="-4.07489">
        <ele>36.70676664385</ele>
        <time>2022-01-14T21:43:46.328Z</time>
      </trkpt>
      <trkpt lat="47.90796" lon="-4.07446">
        <ele>36.97607122869</ele>
        <time>2022-01-14T21:43:55.228Z</time>
      </trkpt>
      <trkpt lat="47.9084" lon="-4.07402">
        <ele>37.18157316461</ele>
        <time>2022-01-14T21:44:04.137Z</time>
      </trkpt>
      <trkpt lat="47.90864" lon="-4.07381">
        <ele>37.57030597476</ele>
        <time>2022-01-14T21:44:13.050Z</time>
      </trkpt>
      <trkpt lat="47.90908" lon="-4.07332">
        <ele>38.06954898773</ele>
        <time>2022-01-14T21:44:21.972Z</time>
      </trkpt>
      <trkpt lat="47.90949" lon="-4.07298">
        <ele>38.76673506166</ele>
        <time>2022-01-14T21:44:30.901Z</time>
      </trkpt>
      <trkpt lat="47.90972" lon="-4.07284">
        <ele>39.46639605647</ele>
        <time>2022-01-14T21:44:39.834Z</time>
      </trkpt>
      <trkpt lat="47.91021" lon="-4.07261">
        <ele>40.25505999682</ele>
        <time>2022-01-14T21:44:48.776Z</time>
      </trkpt>
      <trkpt lat="47.91056" lon="-4.07252">
        <ele>41.11805070619</ele>
        <time>2022-01-14T21:44:57.723Z</time>
      </trkpt>
      <trkpt lat="47.91113" lon="-4.07245">
        <ele>42.0988349813</ele>
        <time>2022-01-14T21:45:06.679Z</time>
      </trkpt>
      <trkpt lat="47.9118" lon="-4.07242">
        <ele>42.9949637824</ele>
        <time>2022-01-14T21:45:15.646Z</time>
      </trkpt>
      <trkpt lat="47.91247" lon="-4.07238">
        <ele>43.80295496598</ele>
        <time>2022-01-14T21:45:24.624Z</time>
      </trkpt>
      <trkpt lat="47.91269" lon="-4.07235">
        <ele>44.34231936752</ele>
        <time>2022-01-14T21:45:33.605Z</time>
      </trkpt>
      <trkpt lat="47.91288" lon="-4.0723">
        <ele>44.73259147744</ele>
        <time>2022-01-14T21:45:42.590Z</time>
      </trkpt>
      <trkpt lat="47.91344" lon="-4.07204">
        <ele>44.89902588455</ele>
        <time>2022-01-14T21:45:51.584Z</time>
      </trkpt>
      <trkpt lat="47.91399" lon="-4.07177">
        <ele>45.08420688785</ele>
        <time>2022-01-14T21:46:00.587Z</time>
      </trkpt>
      <trkpt lat="47.91475" lon="-4.07157">
        <ele>45.10105435983</ele>
        <time>2022-01-14T21:46:09.603Z</time>
      </trkpt>
      <trkpt lat="47.91551" lon="-4.07136">
        <ele>45.25379234302</ele>
        <time>2022-01-14T21:46:18.631Z</time>
      </trkpt>
      <trkpt lat="47.91605" lon="-4.07111">
        <ele>45.3617431874</ele>
        <time>2022-01-14T21:46:27.668Z</time>
      </trkpt>
      <trkpt lat="47.91644" lon="-4.07084">
        <ele>45.4263205027</ele>
        <time>2022-01-14T21:46:36.712Z</time>
      </trkpt>
      <trkpt lat="47.91643" lon="-4.07084">
        <ele>45.45244558316</ele>
        <time>2022-01-14T21:46:45.756Z</time>
      </trkpt>
      <trkpt lat="47.91704" lon="-4.07044">
        <ele>45.54918672191</ele>
        <time>2022-01-14T21:46:54.811Z</time>
      </trkpt>
      <trkpt lat="47.91721" lon="-4.07038">
        <ele>45.57620535469</ele>
        <time>2022-01-14T21:47:03.869Z</time>
      </trkpt>
      <trkpt lat="47.91796" lon="-4.07029">
        <ele>45.48907638672</ele>
        <time>2022-01-14T21:47:12.939Z</time>
      </trkpt>
      <trkpt lat="47.91822" lon="-4.07033">
        <ele>45.522620278</ele>
        <time>2022-01-14T21:47:22.013Z</time>
      </trkpt>
      <trkpt lat="47.91866" lon="-4.0706">
        <ele>45.51880352262</ele>
        <time>2022-01-14T21:47:31.094Z</time>
      </trkpt>
      <trkpt lat="47.9194" lon="-4.07102">
        <ele>45.69613009079</ele>
        <time>2022-01-14T21:47:40.188Z</time>
      </trkpt>
      <trkpt lat="47.92013" lon="-4.07144">
        <ele>45.74950552757</ele>
        <time>2022-01-14T21:47:49.295Z</time>
      </trkpt>
      <trkpt lat="47.92073" lon="-4.07165">
        <ele>45.9093718236</ele>
        <time>2022-01-14T21:47:58.411Z</time>
      </trkpt>
      <trkpt lat="47.92134" lon="-4.07182">
        <ele>46.02771302268</ele>
        <time>2022-01-14T21:48:07.537Z</time>
      </trkpt>
      <trkpt lat="47.92203" lon="-4.07195">
        <ele>46.07676774195</ele>
        <time>2022-01-14T21:48:16.675Z</time>
      </trkpt>
      <trkpt lat="47.92282" lon="-4.07202">
        <ele>46.02095879825</ele>
        <time>2022-01-14T21:48:25.825Z</time>
      </trkpt>
      <trkpt lat="47.92282" lon="-4.07202">
        <ele>45.76766217183</ele>
        <time>2022-01-14T21:48:34.975Z</time>
      </trkpt>
      <trkpt lat="47.92283" lon="-4.07202">
        <ele>45.30291038803</ele>
        <time>2022-01-14T21:48:44.125Z</time>
      </trkpt>
      <trkpt lat="47.92283" lon="-4.07202">
        <ele>44.57859163524</ele>
        <time>2022-01-14T21:48:53.275Z</time>
      </trkpt>
      <trkpt lat="47.92363" lon="-4.07208">
        <ele>43.59545009487</ele>
        <time>2022-01-14T21:49:02.438Z</time>
      </trkpt>
      <trkpt lat="47.92443" lon="-4.07215">
        <ele>42.1958232872</ele>
        <time>2022-01-14T21:49:11.614Z</time>
      </trkpt>
      <trkpt lat="47.92488" lon="-4.07217">
        <ele>40.42340542484</ele>
        <time>2022-01-14T21:49:20.797Z</time>
      </trkpt>
      <trkpt lat="47.92533" lon="-4.07219">
        <ele>38.19793163039</ele>
        <time>2022-01-14T21:49:29.987Z</time>
      </trkpt>
      <trkpt lat="47.92559" lon="-4.07216">
        <ele>35.74795445126</ele>
        <time>2022-01-14T21:49:39.182Z</time>
      </trkpt>
      <trkpt lat="47.92602" lon="-4.07207">
        <ele>32.98155430017</ele>
        <time>2022-01-14T21:49:48.384Z</time>
      </trkpt>
      <trkpt lat="47.92654" lon="-4.0718">
        <ele>29.93401514922</ele>
        <time>2022-01-14T21:49:57.594Z</time>
      </trkpt>
      <trkpt lat="47.92732" lon="-4.07145">
        <ele>26.62016644494</ele>
        <time>2022-01-14T21:50:06.817Z</time>
      </trkpt>
      <trkpt lat="47.9281" lon="-4.07111">
        <ele>23.09890398043</ele>
        <time>2022-01-14T21:50:16.053Z</time>
      </trkpt>
      <trkpt lat="47.92888" lon="-4.07076">
        <ele>19.58114751916</ele>
        <time>2022-01-14T21:50:25.302Z</time>
      </trkpt>
      <trkpt lat="47.92966" lon="-4.07041">
        <ele>16.31257437891</ele>
        <time>2022-01-14T21:50:34.565Z</time>
      </trkpt>
      <trkpt lat="47.93034" lon="-4.0701">
        <ele>13.28133778101</ele>
        <time>2022-01-14T21:50:43.839Z</time>
      </trkpt>
      <trkpt lat="47.93116" lon="-4.0697">
        <ele>10.31911808823</ele>
        <time>2022-01-14T21:50:53.127Z</time>
      </trkpt>
      <trkpt lat="47.93178" lon="-4.06929">
        <ele>7.72843075368</ele>
        <time>2022-01-14T21:51:02.426Z</time>
      </trkpt>
      <trkpt lat="47.93191" lon="-4.06914">
        <ele>5.44870601233</ele>
        <time>2022-01-14T21:51:11.727Z</time>
      </trkpt>
      <trkpt lat="47.93201" lon="-4.06894">
        <ele>3.49097160163</ele>
        <time>2022-01-14T21:51:21.031Z</time>
      </trkpt>
      <trkpt lat="47.93198" lon="-4.06879">
        <ele>1.89222650533</ele>
        <time>2022-01-14T21:51:30.337Z</time>
      </trkpt>
      <trkpt lat="47.93201" lon="-4.06867">
        <ele>0.59135239913</ele>
        <time>2022-01-14T21:51:39.644Z</time>
      </trkpt>
      <trkpt lat="47.93207" lon="-4.06856">
        <ele>-0.39195664045</ele>
        <time>2022-01-14T21:51:48.953Z</time>
      </trkpt>
      <trkpt lat="47.93218" lon="-4.0685">
        <ele>-1.04307565534</ele>
        <time>2022-01-14T21:51:58.263Z</time>
      </trkpt>
      <trkpt lat="47.93227" lon="-4.0685">
        <ele>-1.37926611993</ele>
        <time>2022-01-14T21:52:07.575Z</time>
      </trkpt>
      <trkpt lat="47.93233" lon="-4.06855">
        <ele>-1.42129426602</ele>
        <time>2022-01-14T21:52:16.888Z</time>
      </trkpt>
      <trkpt lat="47.93248" lon="-4.06886">
        <ele>-1.20797645997</ele>
        <time>2022-01-14T21:52:26.205Z</time>
      </trkpt>
      <trkpt lat="47.93253" lon="-4.06888">
        <ele>-0.69880723199</ele>
        <time>2022-01-14T21:52:35.523Z</time>
      </trkpt>
      <trkpt lat="47.9327" lon="-4.06894">
        <ele>0.07664121129</ele>
        <time>2022-01-14T21:52:44.844Z</time>
      </trkpt>
      <trkpt lat="47.9328" lon="-4.06886">
        <ele>1.07657785399</ele>
        <time>2022-01-14T21:52:54.166Z</time>
      </trkpt>
      <trkpt lat="47.93289" lon="-4.06867">
        <ele>2.3164626692</ele>
        <time>2022-01-14T21:53:03.491Z</time>
      </trkpt>
      <trkpt lat="47.93294" lon="-4.0686">
        <ele>3.80149336152</ele>
        <time>2022-01-14T21:53:12.817Z</time>
      </trkpt>
      <trkpt lat="47.93349" lon="-4.06887">
        <ele>5.56902901085</ele>
        <time>2022-01-14T21:53:22.152Z</time>
      </trkpt>
      <trkpt lat="47.93403" lon="-4.06915">
        <ele>7.63445610397</ele>
        <time>2022-01-14T21:53:31.497Z</time>
      </trkpt>
      <trkpt lat="47.9346" lon="-4.06939">
        <ele>9.68161481874</ele>
        <time>2022-01-14T21:53:40.851Z</time>
      </trkpt>
      <trkpt lat="47.93524" lon="-4.06961">
        <ele>11.88867975071</ele>
        <time>2022-01-14T21:53:50.216Z</time>
      </trkpt>
      <trkpt lat="47.93595" lon="-4.06991">
        <ele>13.83364209213</ele>
        <time>2022-01-14T21:53:59.592Z</time>
      </trkpt>
      <trkpt lat="47.93668" lon="-4.07013">
        <ele>15.78977691024</ele>
        <time>2022-01-14T21:54:08.980Z</time>
      </trkpt>
      <trkpt lat="47.9374" lon="-4.07036">
        <ele>17.57140777331</ele>
        <time>2022-01-14T21:54:18.380Z</time>
      </trkpt>
      <trkpt lat="47.938" lon="-4.07057">
        <ele>18.96651763366</ele>
        <time>2022-01-14T21:54:27.790Z</time>
      </trkpt>
      <trkpt lat="47.93862" lon="-4.07078">
        <ele>20.31669334122</ele>
        <time>2022-01-14T21:54:37.210Z</time>
      </trkpt>
      <trkpt lat="47.93924" lon="-4.07099">
        <ele>21.28829208269</ele>
        <time>2022-01-14T21:54:46.640Z</time>
      </trkpt>
      <trkpt lat="47.93986" lon="-4.0712">
        <ele>22.26133550716</ele>
        <time>2022-01-14T21:54:56.080Z</time>
      </trkpt>
      <trkpt lat="47.94031" lon="-4.0714">
        <ele>22.91735559518</ele>
        <time>2022-01-14T21:55:05.528Z</time>
      </trkpt>
      <trkpt lat="47.94082" lon="-4.07166">
        <ele>23.29870425811</ele>
        <time>2022-01-14T21:55:14.985Z</time>
      </trkpt>
      <trkpt lat="47.94132" lon="-4.07192">
        <ele>23.62729928883</ele>
        <time>2022-01-14T21:55:24.450Z</time>
      </trkpt>
      <trkpt lat="47.94197" lon="-4.0723">
        <ele>23.78741057933</ele>
        <time>2022-01-14T21:55:33.926Z</time>
      </trkpt>
      <trkpt lat="47.94262" lon="-4.07268">
        <ele>23.58309874804</ele>
        <time>2022-01-14T21:55:43.413Z</time>
      </trkpt>
      <trkpt lat="47.94321" lon="-4.07301">
        <ele>22.85444230438</ele>
        <time>2022-01-14T21:55:52.911Z</time>
      </trkpt>
      <trkpt lat="47.94386" lon="-4.07324">
        <ele>22.0984955955</ele>
        <time>2022-01-14T21:56:02.419Z</time>
      </trkpt>
      <trkpt lat="47.94459" lon="-4.07344">
        <ele>21.10136187221</ele>
        <time>2022-01-14T21:56:11.939Z</time>
      </trkpt>
      <trkpt lat="47.94533" lon="-4.07363">
        <ele>19.93398836744</ele>
        <time>2022-01-14T21:56:21.471Z</time>
      </trkpt>
      <trkpt lat="47.94606" lon="-4.07383">
        <ele>18.39102531274</ele>
        <time>2022-01-14T21:56:31.015Z</time>
      </trkpt>
      <trkpt lat="47.94654" lon="-4.07395">
        <ele>16.98756722744</ele>
        <time>2022-01-14T21:56:40.567Z</time>
      </trkpt>
      <trkpt lat="47.94703" lon="-4.07407">
        <ele>15.46139786331</ele>
        <time>2022-01-14T21:56:50.127Z</time>
      </trkpt>
      <trkpt lat="47.94753" lon="-4.0742">
        <ele>13.75859352185</ele>
        <time>2022-01-14T21:56:59.695Z</time>
      </trkpt>
      <trkpt lat="47.94803" lon="-4.07434">
        <ele>12.15728563721</ele>
        <time>2022-01-14T21:57:09.271Z</time>
      </trkpt>
      <trkpt lat="47.94846" lon="-4.07454">
        <ele>10.64106051025</ele>
        <time>2022-01-14T21:57:18.854Z</time>
      </trkpt>
      <trkpt lat="47.94913" lon="-4.07496">
        <ele>9.21836323195</ele>
        <time>2022-01-14T21:57:28.449Z</time>
      </trkpt>
      <trkpt lat="47.9498" lon="-4.07538">
        <ele>7.93185072146</ele>
        <time>2022-01-14T21:57:38.056Z</time>
      </trkpt>
      <trkpt lat="47.95044" lon="-4.07575">
        <ele>6.87672064082</ele>
        <time>2022-01-14T21:57:47.673Z</time>
      </trkpt>
      <trkpt lat="47.95107" lon="-4.07613">
        <ele>5.98729138556</ele>
        <time>2022-01-14T21:57:57.301Z</time>
      </trkpt>
      <trkpt lat="47.95127" lon="-4.07627">
        <ele>5.17950919402</ele>
        <time>2022-01-14T21:58:06.933Z</time>
      </trkpt>
      <trkpt lat="47.95149" lon="-4.07646">
        <ele>4.44941987725</ele>
        <time>2022-01-14T21:58:16.569Z</time>
      </trkpt>
      <trkpt lat="47.95173" lon="-4.0767">
        <ele>3.79359020304</ele>
        <time>2022-01-14T21:58:26.210Z</time>
      </trkpt>
      <trkpt lat="47.95176" lon="-4.07668">
        <ele>3.28130670374</ele>
        <time>2022-01-14T21:58:35.851Z</time>
      </trkpt>
      <trkpt lat="47.95205" lon="-4.07698">
        <ele>2.78422315949</ele>
        <time>2022-01-14T21:58:45.498Z</time>
      </trkpt>
      <trkpt lat="47.95204" lon="-4.07702">
        <ele>2.45521852358</ele>
        <time>2022-01-14T21:58:55.145Z</time>
      </trkpt>
      <trkpt lat="47.95243" lon="-4.07743">
        <ele>2.17569587827</ele>
        <time>2022-01-14T21:59:04.800Z</time>
      </trkpt>
      <trkpt lat="47.95282" lon="-4.07785">
        <ele>2.04018732004</ele>
        <time>2022-01-14T21:59:14.463Z</time>
      </trkpt>
      <trkpt lat="47.95283" lon="-4.07783">
        <ele>2.11295200454</ele>
        <time>2022-01-14T21:59:24.126Z</time>
      </trkpt>
      <trkpt lat="47.95349" lon="-4.07848">
        <ele>2.58914483203</ele>
        <time>2022-01-14T21:59:33.802Z</time>
      </trkpt>
      <trkpt lat="47.95414" lon="-4.07914">
        <ele>2.88126101872</ele>
        <time>2022-01-14T21:59:43.490Z</time>
      </trkpt>
      <trkpt lat="47.9548" lon="-4.07979">
        <ele>3.38445278301</ele>
        <time>2022-01-14T21:59:53.191Z</time>
      </trkpt>
      <trkpt lat="47.95538" lon="-4.08036">
        <ele>3.98325995147</ele>
        <time>2022-01-14T22:00:02.903Z</time>
      </trkpt>
      <trkpt lat="47.95595" lon="-4.08094">
        <ele>4.80744972798</ele>
        <time>2022-01-14T22:00:12.626Z</time>
      </trkpt>
      <trkpt lat="47.95653" lon="-4.08151">
        <ele>5.95740842314</ele>
        <time>2022-01-14T22:00:22.360Z</time>
      </trkpt>
      <trkpt lat="47.9571" lon="-4.08209">
        <ele>7.19355853607</ele>
        <time>2022-01-14T22:00:32.105Z</time>
      </trkpt>
      <trkpt lat="47.95734" lon="-4.08228">
        <ele>8.51556378854</ele>
        <time>2022-01-14T22:00:41.855Z</time>
      </trkpt>
      <trkpt lat="47.9576" lon="-4.08245">
        <ele>9.99754492558</ele>
        <time>2022-01-14T22:00:51.609Z</time>
      </trkpt>
      <trkpt lat="47.95786" lon="-4.08259">
        <ele>11.74680159104</ele>
        <time>2022-01-14T22:01:01.368Z</time>
      </trkpt>
      <trkpt lat="47.95817" lon="-4.08272">
        <ele>13.60636406147</ele>
        <time>2022-01-14T22:01:11.132Z</time>
      </trkpt>
      <trkpt lat="47.95845" lon="-4.08277">
        <ele>15.43108315786</ele>
        <time>2022-01-14T22:01:20.900Z</time>
      </trkpt>
      <trkpt lat="47.95899" lon="-4.08277">
        <ele>17.36046113928</ele>
        <time>2022-01-14T22:01:30.677Z</time>
      </trkpt>
      <trkpt lat="47.95952" lon="-4.08277">
        <ele>19.40534021571</ele>
        <time>2022-01-14T22:01:40.462Z</time>
      </trkpt>
      <trkpt lat="47.95987" lon="-4.08279">
        <ele>21.33693845965</ele>
        <time>2022-01-14T22:01:50.253Z</time>
      </trkpt>
      <trkpt lat="47.96047" lon="-4.08291">
        <ele>23.13863984213</ele>
        <time>2022-01-14T22:02:00.054Z</time>
      </trkpt>
      <trkpt lat="47.96106" lon="-4.08302">
        <ele>24.95954531297</ele>
        <time>2022-01-14T22:02:09.864Z</time>
      </trkpt>
      <trkpt lat="47.96166" lon="-4.08314">
        <ele>26.55121514934</ele>
        <time>2022-01-14T22:02:19.684Z</time>
      </trkpt>
      <trkpt lat="47.96191" lon="-4.08322">
        <ele>28.08244779248</ele>
        <time>2022-01-14T22:02:29.508Z</time>
      </trkpt>
      <trkpt lat="47.96222" lon="-4.08326">
        <ele>29.50885318133</ele>
        <time>2022-01-14T22:02:39.337Z</time>
      </trkpt>
      <trkpt lat="47.96281" lon="-4.08334">
        <ele>30.92813429721</ele>
        <time>2022-01-14T22:02:49.175Z</time>
      </trkpt>
      <trkpt lat="47.963" lon="-4.0834">
        <ele>32.06108954152</ele>
        <time>2022-01-14T22:02:59.017Z</time>
      </trkpt>
      <trkpt lat="47.96329" lon="-4.0834">
        <ele>33.09620558006</ele>
        <time>2022-01-14T22:03:08.863Z</time>
      </trkpt>
      <trkpt lat="47.96337" lon="-4.08337">
        <ele>34.03145034738</ele>
        <time>2022-01-14T22:03:18.710Z</time>
      </trkpt>
      <trkpt lat="47.96345" lon="-4.08327">
        <ele>34.91106825217</ele>
        <time>2022-01-14T22:03:28.559Z</time>
      </trkpt>
      <trkpt lat="47.96351" lon="-4.08326">
        <ele>35.76441587161</ele>
        <time>2022-01-14T22:03:38.409Z</time>
      </trkpt>
      <trkpt lat="47.96362" lon="-4.08328">
        <ele>36.61989986305</ele>
        <time>2022-01-14T22:03:48.261Z</time>
      </trkpt>
      <trkpt lat="47.96367" lon="-4.08333">
        <ele>37.50966164367</ele>
        <time>2022-01-14T22:03:58.114Z</time>
      </trkpt>
      <trkpt lat="47.96371" lon="-4.08343">
        <ele>38.46110308845</ele>
        <time>2022-01-14T22:04:07.968Z</time>
      </trkpt>
      <trkpt lat="47.96382" lon="-4.0835">
        <ele>39.47080369219</ele>
        <time>2022-01-14T22:04:17.824Z</time>
      </trkpt>
      <trkpt lat="47.96415" lon="-4.08357">
        <ele>40.5331807328</ele>
        <time>2022-01-14T22:04:27.685Z</time>
      </trkpt>
      <trkpt lat="47.9645" lon="-4.08371">
        <ele>41.61925611803</ele>
        <time>2022-01-14T22:04:37.552Z</time>
      </trkpt>
      <trkpt lat="47.9653" lon="-4.08386">
        <ele>42.76245984197</ele>
        <time>2022-01-14T22:04:47.432Z</time>
      </trkpt>
      <trkpt lat="47.96611" lon="-4.08402">
        <ele>44.04997947847</ele>
        <time>2022-01-14T22:04:57.325Z</time>
      </trkpt>
      <trkpt lat="47.96691" lon="-4.08417">
        <ele>45.11248821647</ele>
        <time>2022-01-14T22:05:07.231Z</time>
      </trkpt>
      <trkpt lat="47.96729" lon="-4.08428">
        <ele>46.03957755477</ele>
        <time>2022-01-14T22:05:17.143Z</time>
      </trkpt>
      <trkpt lat="47.96774" lon="-4.08446">
        <ele>46.77760392253</ele>
        <time>2022-01-14T22:05:27.063Z</time>
      </trkpt>
      <trkpt lat="47.96837" lon="-4.08474">
        <ele>47.18686794253</ele>
        <time>2022-01-14T22:05:36.993Z</time>
      </trkpt>
      <trkpt lat="47.96879" lon="-4.08502">
        <ele>47.23461658295</ele>
        <time>2022-01-14T22:05:46.931Z</time>
      </trkpt>
      <trkpt lat="47.9692" lon="-4.0853">
        <ele>47.08376149207</ele>
        <time>2022-01-14T22:05:56.876Z</time>
      </trkpt>
      <trkpt lat="47.96981" lon="-4.08572">
        <ele>46.69368217661</ele>
        <time>2022-01-14T22:06:06.832Z</time>
      </trkpt>
      <trkpt lat="47.97037" lon="-4.08606">
        <ele>46.28264872014</ele>
        <time>2022-01-14T22:06:16.797Z</time>
      </trkpt>
      <trkpt lat="47.97093" lon="-4.0864">
        <ele>45.46082337323</ele>
        <time>2022-01-14T22:06:26.772Z</time>
      </trkpt>
      <trkpt lat="47.97169" lon="-4.08677">
        <ele>44.31129117966</ele>
        <time>2022-01-14T22:06:36.760Z</time>
      </trkpt>
      <trkpt lat="47.97252" lon="-4.08718">
        <ele>42.92452983978</ele>
        <time>2022-01-14T22:06:46.762Z</time>
      </trkpt>
      <trkpt lat="47.97266" lon="-4.08727">
        <ele>41.89769974654</ele>
        <time>2022-01-14T22:06:56.766Z</time>
      </trkpt>
      <trkpt lat="47.97289" lon="-4.08748">
        <ele>40.92944870252</ele>
        <time>2022-01-14T22:07:06.775Z</time>
      </trkpt>
      <trkpt lat="47.97297" lon="-4.08747">
        <ele>39.99320597092</ele>
        <time>2022-01-14T22:07:16.785Z</time>
      </trkpt>
      <trkpt lat="47.973" lon="-4.08744">
        <ele>39.09680799568</ele>
        <time>2022-01-14T22:07:26.795Z</time>
      </trkpt>
      <trkpt lat="47.97312" lon="-4.08744">
        <ele>38.24877872801</ele>
        <time>2022-01-14T22:07:36.807Z</time>
      </trkpt>
      <trkpt lat="47.97317" lon="-4.08744">
        <ele>37.41429023785</ele>
        <time>2022-01-14T22:07:46.820Z</time>
      </trkpt>
      <trkpt lat="47.97323" lon="-4.08751">
        <ele>36.58004927149</ele>
        <time>2022-01-14T22:07:56.834Z</time>
      </trkpt>
      <trkpt lat="47.9733" lon="-4.08767">
        <ele>35.73583184195</ele>
        <time>2022-01-14T22:08:06.850Z</time>
      </trkpt>
      <trkpt lat="47.97329" lon="-4.08786">
        <ele>34.7859380504</ele>
        <time>2022-01-14T22:08:16.868Z</time>
      </trkpt>
      <trkpt lat="47.97321" lon="-4.088">
        <ele>33.69517159374</ele>
        <time>2022-01-14T22:08:26.888Z</time>
      </trkpt>
      <trkpt lat="47.97322" lon="-4.08828">
        <ele>32.52000821757</ele>
        <time>2022-01-14T22:08:36.911Z</time>
      </trkpt>
      <trkpt lat="47.97339" lon="-4.08913">
        <ele>31.07474613467</ele>
        <time>2022-01-14T22:08:46.944Z</time>
      </trkpt>
      <trkpt lat="47.97356" lon="-4.08969">
        <ele>29.74580152481</ele>
        <time>2022-01-14T22:08:56.984Z</time>
      </trkpt>
      <trkpt lat="47.97382" lon="-4.09028">
        <ele>28.23611323304</ele>
        <time>2022-01-14T22:09:07.031Z</time>
      </trkpt>
      <trkpt lat="47.97401" lon="-4.09063">
        <ele>26.77008166626</ele>
        <time>2022-01-14T22:09:17.083Z</time>
      </trkpt>
      <trkpt lat="47.97456" lon="-4.09138">
        <ele>24.99187420909</ele>
        <time>2022-01-14T22:09:27.147Z</time>
      </trkpt>
      <trkpt lat="47.97502" lon="-4.0918">
        <ele>23.58088692688</ele>
        <time>2022-01-14T22:09:37.220Z</time>
      </trkpt>
      <trkpt lat="47.97547" lon="-4.09211">
        <ele>22.3654207972</ele>
        <time>2022-01-14T22:09:47.301Z</time>
      </trkpt>
      <trkpt lat="47.97601" lon="-4.09244">
        <ele>20.82303354663</ele>
        <time>2022-01-14T22:09:57.391Z</time>
      </trkpt>
      <trkpt lat="47.97654" lon="-4.09278">
        <ele>19.33164758799</ele>
        <time>2022-01-14T22:10:07.490Z</time>
      </trkpt>
      <trkpt lat="47.97708" lon="-4.09313">
        <ele>18.11261691517</ele>
        <time>2022-01-14T22:10:17.599Z</time>
      </trkpt>
      <trkpt lat="47.97762" lon="-4.09349">
        <ele>16.97828333975</ele>
        <time>2022-01-14T22:10:27.717Z</time>
      </trkpt>
      <trkpt lat="47.97785" lon="-4.09363">
        <ele>16.00882985773</ele>
        <time>2022-01-14T22:10:37.839Z</time>
      </trkpt>
      <trkpt lat="47.97825" lon="-4.09399">
        <ele>14.90083660135</ele>
        <time>2022-01-14T22:10:47.968Z</time>
      </trkpt>
      <trkpt lat="47.97864" lon="-4.09436">
        <ele>14.09245368117</ele>
        <time>2022-01-14T22:10:58.105Z</time>
      </trkpt>
      <trkpt lat="47.97872" lon="-4.0944">
        <ele>13.48513926067</ele>
        <time>2022-01-14T22:11:08.243Z</time>
      </trkpt>
      <trkpt lat="47.97887" lon="-4.0944">
        <ele>13.00594702962</ele>
        <time>2022-01-14T22:11:18.384Z</time>
      </trkpt>
      <trkpt lat="47.97894" lon="-4.09437">
        <ele>12.66361700666</ele>
        <time>2022-01-14T22:11:28.526Z</time>
      </trkpt>
      <trkpt lat="47.97902" lon="-4.09424">
        <ele>12.48322980969</ele>
        <time>2022-01-14T22:11:38.670Z</time>
      </trkpt>
      <trkpt lat="47.97913" lon="-4.09416">
        <ele>12.39682430088</ele>
        <time>2022-01-14T22:11:48.816Z</time>
      </trkpt>
      <trkpt lat="47.97921" lon="-4.09415">
        <ele>12.39805668659</ele>
        <time>2022-01-14T22:11:58.963Z</time>
      </trkpt>
      <trkpt lat="47.97929" lon="-4.09415">
        <ele>12.50647688814</ele>
        <time>2022-01-14T22:12:09.111Z</time>
      </trkpt>
      <trkpt lat="47.97944" lon="-4.09421">
        <ele>12.69685613467</ele>
        <time>2022-01-14T22:12:19.262Z</time>
      </trkpt>
      <trkpt lat="47.97952" lon="-4.09432">
        <ele>12.99179704886</ele>
        <time>2022-01-14T22:12:29.414Z</time>
      </trkpt>
      <trkpt lat="47.9796" lon="-4.09452">
        <ele>13.33290972547</ele>
        <time>2022-01-14T22:12:39.569Z</time>
      </trkpt>
      <trkpt lat="47.97961" lon="-4.09467">
        <ele>13.74782689297</ele>
        <time>2022-01-14T22:12:49.726Z</time>
      </trkpt>
      <trkpt lat="47.97959" lon="-4.0949">
        <ele>14.2361787173</ele>
        <time>2022-01-14T22:12:59.885Z</time>
      </trkpt>
      <trkpt lat="47.97951" lon="-4.09508">
        <ele>14.81658445111</ele>
        <time>2022-01-14T22:13:10.046Z</time>
      </trkpt>
      <trkpt lat="47.97942" lon="-4.09517">
        <ele>15.4349038742</ele>
        <time>2022-01-14T22:13:20.209Z</time>
      </trkpt>
      <trkpt lat="47.97939" lon="-4.09555">
        <ele>16.19287409235</ele>
        <time>2022-01-14T22:13:30.376Z</time>
      </trkpt>
      <trkpt lat="47.97941" lon="-4.09567">
        <ele>16.88753505588</ele>
        <time>2022-01-14T22:13:40.545Z</time>
      </trkpt>
      <trkpt lat="47.97966" lon="-4.09659">
        <ele>17.43215947235</ele>
        <time>2022-01-14T22:13:50.724Z</time>
      </trkpt>
      <trkpt lat="47.9799" lon="-4.0976">
        <ele>18.27449247199</ele>
        <time>2022-01-14T22:14:00.915Z</time>
      </trkpt>
      <trkpt lat="47.98009" lon="-4.09853">
        <ele>18.88991852114</ele>
        <time>2022-01-14T22:14:11.116Z</time>
      </trkpt>
      <trkpt lat="47.9803" lon="-4.09953">
        <ele>19.65168608413</ele>
        <time>2022-01-14T22:14:21.328Z</time>
      </trkpt>
      <trkpt lat="47.98036" lon="-4.10006">
        <ele>20.10022180442</ele>
        <time>2022-01-14T22:14:31.546Z</time>
      </trkpt>
      <trkpt lat="47.98039" lon="-4.10069">
        <ele>20.65445292987</ele>
        <time>2022-01-14T22:14:41.771Z</time>
      </trkpt>
      <trkpt lat="47.98029" lon="-4.10191">
        <ele>20.8772999441</ele>
        <time>2022-01-14T22:14:52.009Z</time>
      </trkpt>
      <trkpt lat="47.98019" lon="-4.10313">
        <ele>21.12141039052</ele>
        <time>2022-01-14T22:15:02.260Z</time>
      </trkpt>
      <trkpt lat="47.98009" lon="-4.10417">
        <ele>21.61760800912</ele>
        <time>2022-01-14T22:15:12.523Z</time>
      </trkpt>
      <trkpt lat="47.97999" lon="-4.1052">
        <ele>22.01490503173</ele>
        <time>2022-01-14T22:15:22.797Z</time>
      </trkpt>
      <trkpt lat="47.97994" lon="-4.10592">
        <ele>22.49517991795</ele>
        <time>2022-01-14T22:15:33.079Z</time>
      </trkpt>
      <trkpt lat="47.97995" lon="-4.10653">
        <ele>23.01328958195</ele>
        <time>2022-01-14T22:15:43.367Z</time>
      </trkpt>
      <trkpt lat="47.98003" lon="-4.10707">
        <ele>23.21211297979</ele>
        <time>2022-01-14T22:15:53.661Z</time>
      </trkpt>
      <trkpt lat="47.98018" lon="-4.10759">
        <ele>23.2629701981</ele>
        <time>2022-01-14T22:16:03.961Z</time>
      </trkpt>
      <trkpt lat="47.98037" lon="-4.10806">
        <ele>23.12834042111</ele>
        <time>2022-01-14T22:16:14.267Z</time>
      </trkpt>
      <trkpt lat="47.98063" lon="-4.1085">
        <ele>22.78895812093</ele>
        <time>2022-01-14T22:16:24.580Z</time>
      </trkpt>
      <trkpt lat="47.98084" lon="-4.10876">
        <ele>22.19647231085</ele>
        <time>2022-01-14T22:16:34.897Z</time>
      </trkpt>
      <trkpt lat="47.98101" lon="-4.10893">
        <ele>21.49138441783</ele>
        <time>2022-01-14T22:16:45.217Z</time>
      </trkpt>
      <trkpt lat="47.98158" lon="-4.10945">
        <ele>20.56089912841</ele>
        <time>2022-01-14T22:16:55.548Z</time>
      </trkpt>
      <trkpt lat="47.98158" lon="-4.10944">
        <ele>19.37511840524</ele>
        <time>2022-01-14T22:17:05.879Z</time>
      </trkpt>
      <trkpt lat="47.98226" lon="-4.11005">
        <ele>17.85144613563</ele>
        <time>2022-01-14T22:17:16.223Z</time>
      </trkpt>
      <trkpt lat="47.98293" lon="-4.11065">
        <ele>16.24739421958</ele>
        <time>2022-01-14T22:17:26.579Z</time>
      </trkpt>
      <trkpt lat="47.98361" lon="-4.11126">
        <ele>14.27562668781</ele>
        <time>2022-01-14T22:17:36.948Z</time>
      </trkpt>
      <trkpt lat="47.98428" lon="-4.11187">
        <ele>12.61422346505</ele>
        <time>2022-01-14T22:17:47.329Z</time>
      </trkpt>
      <trkpt lat="47.98489" lon="-4.1123">
        <ele>11.29803342413</ele>
        <time>2022-01-14T22:17:57.721Z</time>
      </trkpt>
      <trkpt lat="47.98512" lon="-4.11245">
        <ele>10.01991104861</ele>
        <time>2022-01-14T22:18:08.117Z</time>
      </trkpt>
      <trkpt lat="47.98527" lon="-4.11247">
        <ele>8.89786373713</ele>
        <time>2022-01-14T22:18:18.516Z</time>
      </trkpt>
      <trkpt lat="47.98544" lon="-4.11245">
        <ele>7.97364899412</ele>
        <time>2022-01-14T22:18:28.917Z</time>
      </trkpt>
      <trkpt lat="47.98556" lon="-4.1124">
        <ele>7.26843185023</ele>
        <time>2022-01-14T22:18:39.320Z</time>
      </trkpt>
      <trkpt lat="47.98565" lon="-4.1123">
        <ele>6.76489165047</ele>
        <time>2022-01-14T22:18:49.725Z</time>
      </trkpt>
      <trkpt lat="47.98574" lon="-4.11209">
        <ele>6.47117884115</ele>
        <time>2022-01-14T22:19:00.133Z</time>
      </trkpt>
      <trkpt lat="47.98576" lon="-4.11191">
        <ele>6.41448391325</ele>
        <time>2022-01-14T22:19:10.543Z</time>
      </trkpt>
      <trkpt lat="47.98575" lon="-4.11179">
        <ele>6.48893686063</ele>
        <time>2022-01-14T22:19:20.954Z</time>
      </trkpt>
      <trkpt lat="47.98572" lon="-4.11169">
        <ele>6.63428743832</ele>
        <time>2022-01-14T22:19:31.366Z</time>
      </trkpt>
      <trkpt lat="47.98564" lon="-4.11155">
        <ele>6.86178724654</ele>
        <time>2022-01-14T22:19:41.780Z</time>
      </trkpt>
      <trkpt lat="47.98555" lon="-4.11146">
        <ele>7.15230010472</ele>
        <time>2022-01-14T22:19:52.196Z</time>
      </trkpt>
      <trkpt lat="47.98544" lon="-4.11144">
        <ele>7.40252322411</ele>
        <time>2022-01-14T22:20:02.614Z</time>
      </trkpt>
      <trkpt lat="47.98531" lon="-4.11144">
        <ele>7.66369169971</ele>
        <time>2022-01-14T22:20:13.034Z</time>
      </trkpt>
      <trkpt lat="47.98517" lon="-4.11151">
        <ele>7.91405606368</ele>
        <time>2022-01-14T22:20:23.456Z</time>
      </trkpt>
      <trkpt lat="47.98507" lon="-4.1116">
        <ele>8.10990909464</ele>
        <time>2022-01-14T22:20:33.880Z</time>
      </trkpt>
      <trkpt lat="47.98498" lon="-4.11174">
        <ele>8.25511408924</ele>
        <time>2022-01-14T22:20:44.306Z</time>
      </trkpt>
      <trkpt lat="47.98483" lon="-4.11213">
        <ele>8.33695201483</ele>
        <time>2022-01-14T22:20:54.737Z</time>
      </trkpt>
      <trkpt lat="47.98468" lon="-4.11268">
        <ele>8.41955841811</ele>
        <time>2022-01-14T22:21:05.174Z</time>
      </trkpt>
      <trkpt lat="47.98456" lon="-4.11319">
        <ele>8.43674752909</ele>
        <time>2022-01-14T22:21:15.617Z</time>
      </trkpt>
      <trkpt lat="47.98456" lon="-4.1132">
        <ele>8.35433028089</ele>
        <time>2022-01-14T22:21:26.060Z</time>
      </trkpt>
      <trkpt lat="47.98434" lon="-4.11413">
        <ele>8.29627194304</ele>
        <time>2022-01-14T22:21:36.514Z</time>
      </trkpt>
      <trkpt lat="47.98412" lon="-4.11505">
        <ele>7.85489854535</ele>
        <time>2022-01-14T22:21:46.978Z</time>
      </trkpt>
      <trkpt lat="47.98396" lon="-4.11632">
        <ele>7.31989360747</ele>
        <time>2022-01-14T22:21:57.456Z</time>
      </trkpt>
      <trkpt lat="47.98379" lon="-4.11758">
        <ele>7.46816807085</ele>
        <time>2022-01-14T22:22:07.948Z</time>
      </trkpt>
      <trkpt lat="47.98372" lon="-4.11808">
        <ele>7.21776378266</ele>
        <time>2022-01-14T22:22:18.446Z</time>
      </trkpt>
      <trkpt lat="47.98363" lon="-4.11838">
        <ele>6.94424994778</ele>
        <time>2022-01-14T22:22:28.947Z</time>
      </trkpt>
      <trkpt lat="47.98351" lon="-4.11869">
        <ele>6.68871752971</ele>
        <time>2022-01-14T22:22:39.452Z</time>
      </trkpt>
      <trkpt lat="47.98329" lon="-4.11906">
        <ele>6.35782397885</ele>
        <time>2022-01-14T22:22:49.962Z</time>
      </trkpt>
      <trkpt lat="47.98284" lon="-4.11955">
        <ele>5.96426460431</ele>
        <time>2022-01-14T22:23:00.481Z</time>
      </trkpt>
      <trkpt lat="47.98237" lon="-4.11985">
        <ele>5.71972015427</ele>
        <time>2022-01-14T22:23:11.008Z</time>
      </trkpt>
      <trkpt lat="47.98236" lon="-4.11985">
        <ele>5.44610245165</ele>
        <time>2022-01-14T22:23:21.536Z</time>
      </trkpt>
      <trkpt lat="47.98194" lon="-4.12013">
        <ele>5.14022683395</ele>
        <time>2022-01-14T22:23:32.071Z</time>
      </trkpt>
      <trkpt lat="47.98151" lon="-4.1204">
        <ele>4.95799697628</ele>
        <time>2022-01-14T22:23:42.613Z</time>
      </trkpt>
      <trkpt lat="47.9808" lon="-4.12088">
        <ele>4.76410863027</ele>
        <time>2022-01-14T22:23:53.168Z</time>
      </trkpt>
      <trkpt lat="47.98009" lon="-4.12136">
        <ele>4.56719938021</ele>
        <time>2022-01-14T22:24:03.735Z</time>
      </trkpt>
      <trkpt lat="47.98002" lon="-4.12153">
        <ele>4.47256579131</ele>
        <time>2022-01-14T22:24:14.305Z</time>
      </trkpt>
      <trkpt lat="47.98" lon="-4.12173">
        <ele>4.45999931193</ele>
        <time>2022-01-14T22:24:24.877Z</time>
      </trkpt>
      <trkpt lat="47.98009" lon="-4.12192">
        <ele>4.47159585529</ele>
        <time>2022-01-14T22:24:35.451Z</time>
      </trkpt>
      <trkpt lat="47.98011" lon="-4.12206">
        <ele>4.50339019522</ele>
        <time>2022-01-14T22:24:46.027Z</time>
      </trkpt>
      <trkpt lat="47.98008" lon="-4.12238">
        <ele>4.60014902059</ele>
        <time>2022-01-14T22:24:56.606Z</time>
      </trkpt>
      <trkpt lat="47.97999" lon="-4.1226">
        <ele>4.74831115397</ele>
        <time>2022-01-14T22:25:07.188Z</time>
      </trkpt>
      <trkpt lat="47.97994" lon="-4.12265">
        <ele>5.0516285495</ele>
        <time>2022-01-14T22:25:17.771Z</time>
      </trkpt>
      <trkpt lat="47.97978" lon="-4.12275">
        <ele>5.47087498033</ele>
        <time>2022-01-14T22:25:28.357Z</time>
      </trkpt>
      <trkpt lat="47.9796" lon="-4.12268">
        <ele>6.08450613971</ele>
        <time>2022-01-14T22:25:38.946Z</time>
      </trkpt>
      <trkpt lat="47.97946" lon="-4.12277">
        <ele>6.9196897845</ele>
        <time>2022-01-14T22:25:49.537Z</time>
      </trkpt>
      <trkpt lat="47.97938" lon="-4.12289">
        <ele>7.9359239454</ele>
        <time>2022-01-14T22:26:00.130Z</time>
      </trkpt>
      <trkpt lat="47.97925" lon="-4.12328">
        <ele>9.12772711561</ele>
        <time>2022-01-14T22:26:10.728Z</time>
      </trkpt>
      <trkpt lat="47.97914" lon="-4.12368">
        <ele>10.6175508068</ele>
        <time>2022-01-14T22:26:21.330Z</time>
      </trkpt>
      <trkpt lat="47.97906" lon="-4.12419">
        <ele>12.35535966443</ele>
        <time>2022-01-14T22:26:31.938Z</time>
      </trkpt>
      <trkpt lat="47.97905" lon="-4.12419">
        <ele>13.9254790248</ele>
        <time>2022-01-14T22:26:42.546Z</time>
      </trkpt>
      <trkpt lat="47.97892" lon="-4.12523">
        <ele>15.73957294924</ele>
        <time>2022-01-14T22:26:53.165Z</time>
      </trkpt>
      <trkpt lat="47.97879" lon="-4.12626">
        <ele>17.31162097638</ele>
        <time>2022-01-14T22:27:03.796Z</time>
      </trkpt>
      <trkpt lat="47.97868" lon="-4.12705">
        <ele>19.08804181096</ele>
        <time>2022-01-14T22:27:14.435Z</time>
      </trkpt>
      <trkpt lat="47.97856" lon="-4.12783">
        <ele>20.48836344687</ele>
        <time>2022-01-14T22:27:25.083Z</time>
      </trkpt>
      <trkpt lat="47.97844" lon="-4.12849">
        <ele>21.71966638988</ele>
        <time>2022-01-14T22:27:35.738Z</time>
      </trkpt>
      <trkpt lat="47.97832" lon="-4.12915">
        <ele>22.76627643243</ele>
        <time>2022-01-14T22:27:46.401Z</time>
      </trkpt>
      <trkpt lat="47.97813" lon="-4.13006">
        <ele>23.82905399001</ele>
        <time>2022-01-14T22:27:57.074Z</time>
      </trkpt>
      <trkpt lat="47.97801" lon="-4.13082">
        <ele>24.47366500859</ele>
        <time>2022-01-14T22:28:07.755Z</time>
      </trkpt>
      <trkpt lat="47.97787" lon="-4.13148">
        <ele>25.01314108931</ele>
        <time>2022-01-14T22:28:18.444Z</time>
      </trkpt>
      <trkpt lat="47.97773" lon="-4.13214">
        <ele>25.51508211791</ele>
        <time>2022-01-14T22:28:29.140Z</time>
      </trkpt>
      <trkpt lat="47.9775" lon="-4.1329">
        <ele>26.15907010527</ele>
        <time>2022-01-14T22:28:39.845Z</time>
      </trkpt>
      <trkpt lat="47.97727" lon="-4.13366">
        <ele>26.70903436228</ele>
        <time>2022-01-14T22:28:50.559Z</time>
      </trkpt>
      <trkpt lat="47.97706" lon="-4.1342">
        <ele>27.23521646121</ele>
        <time>2022-01-14T22:29:01.280Z</time>
      </trkpt>
      <trkpt lat="47.97656" lon="-4.13527">
        <ele>28.05894633928</ele>
        <time>2022-01-14T22:29:12.015Z</time>
      </trkpt>
      <trkpt lat="47.97621" lon="-4.13594">
        <ele>28.87945604271</ele>
        <time>2022-01-14T22:29:22.759Z</time>
      </trkpt>
      <trkpt lat="47.97611" lon="-4.13645">
        <ele>29.3528545605</ele>
        <time>2022-01-14T22:29:33.509Z</time>
      </trkpt>
      <trkpt lat="47.97611" lon="-4.13646">
        <ele>29.98390730018</ele>
        <time>2022-01-14T22:29:44.259Z</time>
      </trkpt>
      <trkpt lat="47.9761" lon="-4.13677">
        <ele>30.65558339738</ele>
        <time>2022-01-14T22:29:55.012Z</time>
      </trkpt>
      <trkpt lat="47.97617" lon="-4.13733">
        <ele>31.43497879493</ele>
        <time>2022-01-14T22:30:05.771Z</time>
      </trkpt>
      <trkpt lat="47.97617" lon="-4.13733">
        <ele>32.41921282491</ele>
        <time>2022-01-14T22:30:16.530Z</time>
      </trkpt>
      <trkpt lat="47.97617" lon="-4.13734">
        <ele>33.5859063763</ele>
        <time>2022-01-14T22:30:27.289Z</time>
      </trkpt>
      <trkpt lat="47.97617" lon="-4.13734">
        <ele>34.96041303535</ele>
        <time>2022-01-14T22:30:38.048Z</time>
      </trkpt>
      <trkpt lat="47.97644" lon="-4.13853">
        <ele>36.64346911345</ele>
        <time>2022-01-14T22:30:48.821Z</time>
      </trkpt>
      <trkpt lat="47.97671" lon="-4.13973">
        <ele>38.71687554407</ele>
        <time>2022-01-14T22:30:59.608Z</time>
      </trkpt>
      <trkpt lat="47.97696" lon="-4.14081">
        <ele>40.73886480723</ele>
        <time>2022-01-14T22:31:10.407Z</time>
      </trkpt>
      <trkpt lat="47.97705" lon="-4.14132">
        <ele>42.97717716679</ele>
        <time>2022-01-14T22:31:21.212Z</time>
      </trkpt>
      <trkpt lat="47.97707" lon="-4.14179">
        <ele>45.32366990773</ele>
        <time>2022-01-14T22:31:32.022Z</time>
      </trkpt>
      <trkpt lat="47.97703" lon="-4.14247">
        <ele>47.67307450325</ele>
        <time>2022-01-14T22:31:42.839Z</time>
      </trkpt>
      <trkpt lat="47.97699" lon="-4.14315">
        <ele>49.80005601121</ele>
        <time>2022-01-14T22:31:53.663Z</time>
      </trkpt>
      <trkpt lat="47.97692" lon="-4.14423">
        <ele>52.24410030613</ele>
        <time>2022-01-14T22:32:04.499Z</time>
      </trkpt>
      <trkpt lat="47.97685" lon="-4.14531">
        <ele>54.50662778463</ele>
        <time>2022-01-14T22:32:15.347Z</time>
      </trkpt>
      <trkpt lat="47.97678" lon="-4.14639">
        <ele>56.27563999145</ele>
        <time>2022-01-14T22:32:26.206Z</time>
      </trkpt>
      <trkpt lat="47.97671" lon="-4.14715">
        <ele>58.2326434179</ele>
        <time>2022-01-14T22:32:37.073Z</time>
      </trkpt>
      <trkpt lat="47.97663" lon="-4.1479">
        <ele>59.93465165475</ele>
        <time>2022-01-14T22:32:47.949Z</time>
      </trkpt>
      <trkpt lat="47.97662" lon="-4.14872">
        <ele>61.05822423729</ele>
        <time>2022-01-14T22:32:58.834Z</time>
      </trkpt>
      <trkpt lat="47.97666" lon="-4.14916">
        <ele>62.03133836736</ele>
        <time>2022-01-14T22:33:09.723Z</time>
      </trkpt>
      <trkpt lat="47.9768" lon="-4.15016">
        <ele>63.20530716045</ele>
        <time>2022-01-14T22:33:20.623Z</time>
      </trkpt>
      <trkpt lat="47.97693" lon="-4.15116">
        <ele>63.77769166712</ele>
        <time>2022-01-14T22:33:31.534Z</time>
      </trkpt>
      <trkpt lat="47.9771" lon="-4.15224">
        <ele>64.33907756733</ele>
        <time>2022-01-14T22:33:42.457Z</time>
      </trkpt>
      <trkpt lat="47.9773" lon="-4.15328">
        <ele>65.03720363246</ele>
        <time>2022-01-14T22:33:53.392Z</time>
      </trkpt>
      <trkpt lat="47.9775" lon="-4.15433">
        <ele>65.71357296229</ele>
        <time>2022-01-14T22:34:04.339Z</time>
      </trkpt>
      <trkpt lat="47.97769" lon="-4.1553">
        <ele>66.27592373988</ele>
        <time>2022-01-14T22:34:15.296Z</time>
      </trkpt>
      <trkpt lat="47.97787" lon="-4.15627">
        <ele>66.93812252866</ele>
        <time>2022-01-14T22:34:26.264Z</time>
      </trkpt>
      <trkpt lat="47.97792" lon="-4.15674">
        <ele>67.77731129315</ele>
        <time>2022-01-14T22:34:37.237Z</time>
      </trkpt>
      <trkpt lat="47.97792" lon="-4.15719">
        <ele>68.63183606086</ele>
        <time>2022-01-14T22:34:48.215Z</time>
      </trkpt>
      <trkpt lat="47.97784" lon="-4.15833">
        <ele>69.49930541093</ele>
        <time>2022-01-14T22:34:59.205Z</time>
      </trkpt>
      <trkpt lat="47.97777" lon="-4.15947">
        <ele>70.18722497614</ele>
        <time>2022-01-14T22:35:10.208Z</time>
      </trkpt>
      <trkpt lat="47.97769" lon="-4.16061">
        <ele>71.08137863553</ele>
        <time>2022-01-14T22:35:21.223Z</time>
      </trkpt>
      <trkpt lat="47.97764" lon="-4.161">
        <ele>72.01628721562</ele>
        <time>2022-01-14T22:35:32.242Z</time>
      </trkpt>
      <trkpt lat="47.97751" lon="-4.1618">
        <ele>73.0332224719</ele>
        <time>2022-01-14T22:35:43.270Z</time>
      </trkpt>
      <trkpt lat="47.97738" lon="-4.1626">
        <ele>73.9658193066</ele>
        <time>2022-01-14T22:35:54.307Z</time>
      </trkpt>
      <trkpt lat="47.97728" lon="-4.16336">
        <ele>74.99326165763</ele>
        <time>2022-01-14T22:36:05.352Z</time>
      </trkpt>
      <trkpt lat="47.97728" lon="-4.16394">
        <ele>76.13628162425</ele>
        <time>2022-01-14T22:36:16.404Z</time>
      </trkpt>
      <trkpt lat="47.97732" lon="-4.16434">
        <ele>77.36475742111</ele>
        <time>2022-01-14T22:36:27.460Z</time>
      </trkpt>
      <trkpt lat="47.9775" lon="-4.16552">
        <ele>78.83549503748</ele>
        <time>2022-01-14T22:36:38.529Z</time>
      </trkpt>
      <trkpt lat="47.97767" lon="-4.16669">
        <ele>80.28360669567</ele>
        <time>2022-01-14T22:36:49.611Z</time>
      </trkpt>
      <trkpt lat="47.97785" lon="-4.16787">
        <ele>81.86809393429</ele>
        <time>2022-01-14T22:37:00.706Z</time>
      </trkpt>
      <trkpt lat="47.97799" lon="-4.16884">
        <ele>83.36490391223</ele>
        <time>2022-01-14T22:37:11.812Z</time>
      </trkpt>
      <trkpt lat="47.97812" lon="-4.16982">
        <ele>85.04650114734</ele>
        <time>2022-01-14T22:37:22.928Z</time>
      </trkpt>
      <trkpt lat="47.97826" lon="-4.17079">
        <ele>86.69080011045</ele>
        <time>2022-01-14T22:37:34.055Z</time>
      </trkpt>
      <trkpt lat="47.9784" lon="-4.17159">
        <ele>88.28254208569</ele>
        <time>2022-01-14T22:37:45.191Z</time>
      </trkpt>
      <trkpt lat="47.97851" lon="-4.17203">
        <ele>89.68834780618</ele>
        <time>2022-01-14T22:37:56.332Z</time>
      </trkpt>
      <trkpt lat="47.97881" lon="-4.17295">
        <ele>91.17101875622</ele>
        <time>2022-01-14T22:38:07.484Z</time>
      </trkpt>
      <trkpt lat="47.97889" lon="-4.1733">
        <ele>92.43586229126</ele>
        <time>2022-01-14T22:38:18.640Z</time>
      </trkpt>
      <trkpt lat="47.97893" lon="-4.17368">
        <ele>93.41293273927</ele>
        <time>2022-01-14T22:38:29.800Z</time>
      </trkpt>
      <trkpt lat="47.97894" lon="-4.17368">
        <ele>94.19573297976</ele>
        <time>2022-01-14T22:38:40.960Z</time>
      </trkpt>
      <trkpt lat="47.97902" lon="-4.17465">
        <ele>94.79991094708</ele>
        <time>2022-01-14T22:38:52.131Z</time>
      </trkpt>
      <trkpt lat="47.9791" lon="-4.17563">
        <ele>95.15461568831</ele>
        <time>2022-01-14T22:39:03.312Z</time>
      </trkpt>
      <trkpt lat="47.97918" lon="-4.17649">
        <ele>95.4235075574</ele>
        <time>2022-01-14T22:39:14.503Z</time>
      </trkpt>
      <trkpt lat="47.97923" lon="-4.17678">
        <ele>95.55828510963</ele>
        <time>2022-01-14T22:39:25.697Z</time>
      </trkpt>
      <trkpt lat="47.97945" lon="-4.17748">
        <ele>95.32063799959</ele>
        <time>2022-01-14T22:39:36.899Z</time>
      </trkpt>
      <trkpt lat="47.97952" lon="-4.1776">
        <ele>95.14174566196</ele>
        <time>2022-01-14T22:39:48.103Z</time>
      </trkpt>
      <trkpt lat="47.97987" lon="-4.17807">
        <ele>94.80456398364</ele>
        <time>2022-01-14T22:39:59.314Z</time>
      </trkpt>
      <trkpt lat="47.98022" lon="-4.17854">
        <ele>94.56873747919</ele>
        <time>2022-01-14T22:40:10.533Z</time>
      </trkpt>
      <trkpt lat="47.98031" lon="-4.17885">
        <ele>94.34809844458</ele>
        <time>2022-01-14T22:40:21.756Z</time>
      </trkpt>
      <trkpt lat="47.98027" lon="-4.17903">
        <ele>94.04594356645</ele>
        <time>2022-01-14T22:40:32.981Z</time>
      </trkpt>
      <trkpt lat="47.98022" lon="-4.17937">
        <ele>93.71001143068</ele>
        <time>2022-01-14T22:40:44.209Z</time>
      </trkpt>
      <trkpt lat="47.98009" lon="-4.18067">
        <ele>93.39316359793</ele>
        <time>2022-01-14T22:40:55.451Z</time>
      </trkpt>
      <trkpt lat="47.97995" lon="-4.18128">
        <ele>92.96843429308</ele>
        <time>2022-01-14T22:41:06.700Z</time>
      </trkpt>
      <trkpt lat="47.9799" lon="-4.18162">
        <ele>92.39289580937</ele>
        <time>2022-01-14T22:41:17.953Z</time>
      </trkpt>
      <trkpt lat="47.97981" lon="-4.18201">
        <ele>91.65544063025</ele>
        <time>2022-01-14T22:41:29.211Z</time>
      </trkpt>
      <trkpt lat="47.97969" lon="-4.18235">
        <ele>90.86982507979</ele>
        <time>2022-01-14T22:41:40.473Z</time>
      </trkpt>
      <trkpt lat="47.97938" lon="-4.18318">
        <ele>90.01849692924</ele>
        <time>2022-01-14T22:41:51.745Z</time>
      </trkpt>
      <trkpt lat="47.97932" lon="-4.18339">
        <ele>89.16147625753</ele>
        <time>2022-01-14T22:42:03.019Z</time>
      </trkpt>
      <trkpt lat="47.97917" lon="-4.18454">
        <ele>88.20060794701</ele>
        <time>2022-01-14T22:42:14.306Z</time>
      </trkpt>
      <trkpt lat="47.97913" lon="-4.1852">
        <ele>87.43817239376</ele>
        <time>2022-01-14T22:42:25.600Z</time>
      </trkpt>
      <trkpt lat="47.97913" lon="-4.18521">
        <ele>86.77764509409</ele>
        <time>2022-01-14T22:42:36.894Z</time>
      </trkpt>
      <trkpt lat="47.97908" lon="-4.1861">
        <ele>86.17633523006</ele>
        <time>2022-01-14T22:42:48.198Z</time>
      </trkpt>
      <trkpt lat="47.97902" lon="-4.18698">
        <ele>85.72100875041</ele>
        <time>2022-01-14T22:42:59.511Z</time>
      </trkpt>
      <trkpt lat="47.97904" lon="-4.18768">
        <ele>85.61918711392</ele>
        <time>2022-01-14T22:43:10.832Z</time>
      </trkpt>
      <trkpt lat="47.97911" lon="-4.18789">
        <ele>85.74335704809</ele>
        <time>2022-01-14T22:43:22.155Z</time>
      </trkpt>
      <trkpt lat="47.97918" lon="-4.18799">
        <ele>86.08657157301</ele>
        <time>2022-01-14T22:43:33.480Z</time>
      </trkpt>
      <trkpt lat="47.97934" lon="-4.18806">
        <ele>86.65414908673</ele>
        <time>2022-01-14T22:43:44.808Z</time>
      </trkpt>
      <trkpt lat="47.98008" lon="-4.188">
        <ele>88.6079240045</ele>
        <time>2022-01-14T22:43:56.147Z</time>
      </trkpt>
      <trkpt lat="47.98073" lon="-4.18793">
        <ele>88.50344277817</ele>
        <time>2022-01-14T22:44:07.497Z</time>
      </trkpt>
      <trkpt lat="47.98138" lon="-4.18785">
        <ele>89.8597229482</ele>
        <time>2022-01-14T22:44:18.857Z</time>
      </trkpt>
      <trkpt lat="47.98189" lon="-4.18783">
        <ele>91.46777638561</ele>
        <time>2022-01-14T22:44:30.225Z</time>
      </trkpt>
      <trkpt lat="47.9824" lon="-4.1878">
        <ele>94.38968961865</ele>
        <time>2022-01-14T22:44:41.602Z</time>
      </trkpt>
      <trkpt lat="47.98321" lon="-4.18783">
        <ele>96.27905286111</ele>
        <time>2022-01-14T22:44:52.992Z</time>
      </trkpt>
      <trkpt lat="47.9839" lon="-4.1879">
        <ele>97.00897913342</ele>
        <time>2022-01-14T22:45:04.393Z</time>
      </trkpt>
      <trkpt lat="47.98459" lon="-4.18797">
        <ele>98.9150196394</ele>
        <time>2022-01-14T22:45:15.805Z</time>
      </trkpt>
      <trkpt lat="47.98527" lon="-4.18804">
        <ele>100.52782148834</ele>
        <time>2022-01-14T22:45:27.228Z</time>
      </trkpt>
      <trkpt lat="47.98596" lon="-4.18811">
        <ele>103.38577785871</ele>
        <time>2022-01-14T22:45:38.662Z</time>
      </trkpt>
      <trkpt lat="47.9865" lon="-4.18815">
        <ele>104.95127361049</ele>
        <time>2022-01-14T22:45:50.104Z</time>
      </trkpt>
      <trkpt lat="47.98702" lon="-4.18813">
        <ele>106.49231581307</ele>
        <time>2022-01-14T22:46:01.555Z</time>
      </trkpt>
      <trkpt lat="47.98744" lon="-4.18808">
        <ele>106.92160875179</ele>
        <time>2022-01-14T22:46:13.012Z</time>
      </trkpt>
      <trkpt lat="47.98806" lon="-4.18803">
        <ele>108.2851835446</ele>
        <time>2022-01-14T22:46:24.479Z</time>
      </trkpt>
      <trkpt lat="47.98867" lon="-4.18799">
        <ele>109.78333004179</ele>
        <time>2022-01-14T22:46:35.956Z</time>
      </trkpt>
      <trkpt lat="47.98929" lon="-4.18794">
        <ele>111.4005666166</ele>
        <time>2022-01-14T22:46:47.443Z</time>
      </trkpt>
      <trkpt lat="47.98986" lon="-4.18792">
        <ele>112.58068563081</ele>
        <time>2022-01-14T22:46:58.939Z</time>
      </trkpt>
      <trkpt lat="47.98998" lon="-4.18794">
        <ele>113.44617501739</ele>
        <time>2022-01-14T22:47:10.437Z</time>
      </trkpt>
      <trkpt lat="47.99074" lon="-4.18807">
        <ele>114.97828540381</ele>
        <time>2022-01-14T22:47:21.947Z</time>
      </trkpt>
      <trkpt lat="47.99111" lon="-4.18818">
        <ele>115.20577985632</ele>
        <time>2022-01-14T22:47:33.463Z</time>
      </trkpt>
      <trkpt lat="47.99168" lon="-4.18851">
        <ele>115.40729038307</ele>
        <time>2022-01-14T22:47:44.989Z</time>
      </trkpt>
      <trkpt lat="47.99191" lon="-4.18867">
        <ele>115.58817804263</ele>
        <time>2022-01-14T22:47:56.519Z</time>
      </trkpt>
      <trkpt lat="47.99229" lon="-4.18898">
        <ele>115.72174868683</ele>
        <time>2022-01-14T22:48:08.056Z</time>
      </trkpt>
      <trkpt lat="47.99255" lon="-4.18926">
        <ele>115.77181443326</ele>
        <time>2022-01-14T22:48:19.598Z</time>
      </trkpt>
      <trkpt lat="47.99318" lon="-4.19011">
        <ele>115.89460725954</ele>
        <time>2022-01-14T22:48:31.154Z</time>
      </trkpt>
      <trkpt lat="47.99364" lon="-4.1908">
        <ele>115.80935024389</ele>
        <time>2022-01-14T22:48:42.720Z</time>
      </trkpt>
      <trkpt lat="47.99409" lon="-4.19149">
        <ele>116.09448272797</ele>
        <time>2022-01-14T22:48:54.297Z</time>
      </trkpt>
      <trkpt lat="47.99453" lon="-4.19207">
        <ele>116.45912767217</ele>
        <time>2022-01-14T22:49:05.883Z</time>
      </trkpt>
      <trkpt lat="47.99478" lon="-4.19238">
        <ele>117.02804805811</ele>
        <time>2022-01-14T22:49:17.474Z</time>
      </trkpt>
      <trkpt lat="47.99546" lon="-4.19296">
        <ele>117.81869826839</ele>
        <time>2022-01-14T22:49:29.078Z</time>
      </trkpt>
      <trkpt lat="47.99578" lon="-4.19317">
        <ele>118.80569850789</ele>
        <time>2022-01-14T22:49:40.688Z</time>
      </trkpt>
      <trkpt lat="47.99607" lon="-4.19332">
        <ele>119.88225009512</ele>
        <time>2022-01-14T22:49:52.302Z</time>
      </trkpt>
      <trkpt lat="47.99667" lon="-4.19358">
        <ele>121.4699512098</ele>
        <time>2022-01-14T22:50:03.926Z</time>
      </trkpt>
      <trkpt lat="47.99727" lon="-4.19384">
        <ele>122.94544285211</ele>
        <time>2022-01-14T22:50:15.561Z</time>
      </trkpt>
      <trkpt lat="47.99787" lon="-4.1941">
        <ele>125.36429365771</ele>
        <time>2022-01-14T22:50:27.206Z</time>
      </trkpt>
      <trkpt lat="47.99845" lon="-4.1943">
        <ele>126.27567327609</ele>
        <time>2022-01-14T22:50:38.860Z</time>
      </trkpt>
      <trkpt lat="47.99857" lon="-4.19428">
        <ele>127.83171995348</ele>
        <time>2022-01-14T22:50:50.516Z</time>
      </trkpt>
      <trkpt lat="47.99862" lon="-4.1942">
        <ele>129.37803373696</ele>
        <time>2022-01-14T22:51:02.173Z</time>
      </trkpt>
      <trkpt lat="47.99868" lon="-4.19416">
        <ele>130.94575646203</ele>
        <time>2022-01-14T22:51:13.831Z</time>
      </trkpt>
      <trkpt lat="47.99874" lon="-4.19414">
        <ele>132.54259879287</ele>
        <time>2022-01-14T22:51:25.490Z</time>
      </trkpt>
      <trkpt lat="47.9988" lon="-4.19415">
        <ele>134.17738758583</ele>
        <time>2022-01-14T22:51:37.150Z</time>
      </trkpt>
      <trkpt lat="47.99908" lon="-4.19447">
        <ele>135.88945264652</ele>
        <time>2022-01-14T22:51:48.816Z</time>
      </trkpt>
      <trkpt lat="47.99913" lon="-4.19451">
        <ele>137.66234974424</ele>
        <time>2022-01-14T22:52:00.483Z</time>
      </trkpt>
      <trkpt lat="47.99969" lon="-4.19477">
        <ele>139.62664295671</ele>
        <time>2022-01-14T22:52:12.159Z</time>
      </trkpt>
      <trkpt lat="48.00025" lon="-4.19503">
        <ele>141.69345215497</ele>
        <time>2022-01-14T22:52:23.844Z</time>
      </trkpt>
      <trkpt lat="48.00087" lon="-4.19529">
        <ele>144.73450908964</ele>
        <time>2022-01-14T22:52:35.540Z</time>
      </trkpt>
      <trkpt lat="48.00132" lon="-4.19543">
        <ele>146.09394970295</ele>
        <time>2022-01-14T22:52:47.243Z</time>
      </trkpt>
      <trkpt lat="48.00183" lon="-4.19558">
        <ele>148.51236135028</ele>
        <time>2022-01-14T22:52:58.954Z</time>
      </trkpt>
      <trkpt lat="48.00234" lon="-4.19573">
        <ele>152.12890171688</ele>
        <time>2022-01-14T22:53:10.674Z</time>
      </trkpt>
      <trkpt lat="48.00263" lon="-4.19578">
        <ele>154.34683455007</ele>
        <time>2022-01-14T22:53:22.398Z</time>
      </trkpt>
      <trkpt lat="48.00326" lon="-4.19597">
        <ele>155.36460284999</ele>
        <time>2022-01-14T22:53:34.133Z</time>
      </trkpt>
      <trkpt lat="48.00389" lon="-4.19615">
        <ele>157.23723284573</ele>
        <time>2022-01-14T22:53:45.878Z</time>
      </trkpt>
      <trkpt lat="48.00452" lon="-4.19634">
        <ele>159.89766107905</ele>
        <time>2022-01-14T22:53:57.633Z</time>
      </trkpt>
      <trkpt lat="48.00504" lon="-4.19651">
        <ele>161.05284785352</ele>
        <time>2022-01-14T22:54:09.397Z</time>
      </trkpt>
      <trkpt lat="48.00555" lon="-4.19662">
        <ele>161.69607227915</ele>
        <time>2022-01-14T22:54:21.169Z</time>
      </trkpt>
      <trkpt lat="48.00585" lon="-4.19665">
        <ele>161.77792795102</ele>
        <time>2022-01-14T22:54:32.946Z</time>
      </trkpt>
      <trkpt lat="48.0061" lon="-4.19658">
        <ele>161.37605950945</ele>
        <time>2022-01-14T22:54:44.727Z</time>
      </trkpt>
      <trkpt lat="48.00619" lon="-4.19658">
        <ele>160.5572716609</ele>
        <time>2022-01-14T22:54:56.509Z</time>
      </trkpt>
      <trkpt lat="48.00642" lon="-4.19648">
        <ele>159.31463718456</ele>
        <time>2022-01-14T22:55:08.295Z</time>
      </trkpt>
      <trkpt lat="48.007" lon="-4.1962">
        <ele>157.48206373043</ele>
        <time>2022-01-14T22:55:20.091Z</time>
      </trkpt>
      <trkpt lat="48.00767" lon="-4.19584">
        <ele>156.16623344116</ele>
        <time>2022-01-14T22:55:31.898Z</time>
      </trkpt>
      <trkpt lat="48.00833" lon="-4.19547">
        <ele>153.65128558406</ele>
        <time>2022-01-14T22:55:43.717Z</time>
      </trkpt>
      <trkpt lat="48.0087" lon="-4.19533">
        <ele>151.75103618419</ele>
        <time>2022-01-14T22:55:55.542Z</time>
      </trkpt>
      <trkpt lat="48.00912" lon="-4.19527">
        <ele>150.93478887377</ele>
        <time>2022-01-14T22:56:07.374Z</time>
      </trkpt>
      <trkpt lat="48.00934" lon="-4.19526">
        <ele>148.25941792953</ele>
        <time>2022-01-14T22:56:19.209Z</time>
      </trkpt>
      <trkpt lat="48.00955" lon="-4.19531">
        <ele>146.69178776197</ele>
        <time>2022-01-14T22:56:31.048Z</time>
      </trkpt>
      <trkpt lat="48.01012" lon="-4.19554">
        <ele>145.22447034309</ele>
        <time>2022-01-14T22:56:42.896Z</time>
      </trkpt>
      <trkpt lat="48.01036" lon="-4.19571">
        <ele>144.02920373004</ele>
        <time>2022-01-14T22:56:54.748Z</time>
      </trkpt>
      <trkpt lat="48.01063" lon="-4.19594">
        <ele>144.47943935425</ele>
        <time>2022-01-14T22:57:06.605Z</time>
      </trkpt>
      <trkpt lat="48.01076" lon="-4.19608">
        <ele>142.1634468802</ele>
        <time>2022-01-14T22:57:18.465Z</time>
      </trkpt>
      <trkpt lat="48.01137" lon="-4.19691">
        <ele>143.70564157535</ele>
        <time>2022-01-14T22:57:30.338Z</time>
      </trkpt>
      <trkpt lat="48.01146" lon="-4.19695">
        <ele>143.59963782497</ele>
        <time>2022-01-14T22:57:42.213Z</time>
      </trkpt>
      <trkpt lat="48.01158" lon="-4.19692">
        <ele>143.66756826811</ele>
        <time>2022-01-14T22:57:54.089Z</time>
      </trkpt>
      <trkpt lat="48.01162" lon="-4.19682">
        <ele>143.84576787021</ele>
        <time>2022-01-14T22:58:05.967Z</time>
      </trkpt>
      <trkpt lat="48.01181" lon="-4.19669">
        <ele>144.15839410148</ele>
        <time>2022-01-14T22:58:17.848Z</time>
      </trkpt>
      <trkpt lat="48.01196" lon="-4.19672">
        <ele>144.53258213389</ele>
        <time>2022-01-14T22:58:29.731Z</time>
      </trkpt>
      <trkpt lat="48.01207" lon="-4.19684">
        <ele>144.90201888463</ele>
        <time>2022-01-14T22:58:41.617Z</time>
      </trkpt>
      <trkpt lat="48.01213" lon="-4.19702">
        <ele>145.35932517458</ele>
        <time>2022-01-14T22:58:53.505Z</time>
      </trkpt>
      <trkpt lat="48.01214" lon="-4.1972">
        <ele>145.78633977692</ele>
        <time>2022-01-14T22:59:05.395Z</time>
      </trkpt>
      <trkpt lat="48.01214" lon="-4.1973">
        <ele>146.18183121491</ele>
        <time>2022-01-14T22:59:17.286Z</time>
      </trkpt>
      <trkpt lat="48.01206" lon="-4.19745">
        <ele>146.13745130682</ele>
        <time>2022-01-14T22:59:29.179Z</time>
      </trkpt>
      <trkpt lat="48.012" lon="-4.19751">
        <ele>146.85471584057</ele>
        <time>2022-01-14T22:59:41.073Z</time>
      </trkpt>
      <trkpt lat="48.01196" lon="-4.1977">
        <ele>147.17543871661</ele>
        <time>2022-01-14T22:59:52.969Z</time>
      </trkpt>
      <trkpt lat="48.01195" lon="-4.19787">
        <ele>147.50857246743</ele>
        <time>2022-01-14T23:00:04.867Z</time>
      </trkpt>
      <trkpt lat="48.01201" lon="-4.19836">
        <ele>147.92157218305</ele>
        <time>2022-01-14T23:00:16.770Z</time>
      </trkpt>
      <trkpt lat="48.01223" lon="-4.1995">
        <ele>148.17425848026</ele>
        <time>2022-01-14T23:00:28.686Z</time>
      </trkpt>
      <trkpt lat="48.01246" lon="-4.20059">
        <ele>148.35488003386</ele>
        <time>2022-01-14T23:00:40.614Z</time>
      </trkpt>
      <trkpt lat="48.01269" lon="-4.20168">
        <ele>148.57062484784</ele>
        <time>2022-01-14T23:00:52.555Z</time>
      </trkpt>
      <trkpt lat="48.01291" lon="-4.20277">
        <ele>148.70903731104</ele>
        <time>2022-01-14T23:01:04.508Z</time>
      </trkpt>
      <trkpt lat="48.01314" lon="-4.20386">
        <ele>149.19290204992</ele>
        <time>2022-01-14T23:01:16.473Z</time>
      </trkpt>
      <trkpt lat="48.01337" lon="-4.20495">
        <ele>149.57495893133</ele>
        <time>2022-01-14T23:01:28.450Z</time>
      </trkpt>
      <trkpt lat="48.01356" lon="-4.20605">
        <ele>149.6920099734</ele>
        <time>2022-01-14T23:01:40.440Z</time>
      </trkpt>
      <trkpt lat="48.01375" lon="-4.20714">
        <ele>149.65446919414</ele>
        <time>2022-01-14T23:01:52.442Z</time>
      </trkpt>
      <trkpt lat="48.01394" lon="-4.20824">
        <ele>149.32127292578</ele>
        <time>2022-01-14T23:02:04.456Z</time>
      </trkpt>
      <trkpt lat="48.01412" lon="-4.2091">
        <ele>148.60174752211</ele>
        <time>2022-01-14T23:02:16.480Z</time>
      </trkpt>
      <trkpt lat="48.01432" lon="-4.20991">
        <ele>147.63571748871</ele>
        <time>2022-01-14T23:02:28.513Z</time>
      </trkpt>
      <trkpt lat="48.01452" lon="-4.21072">
        <ele>146.48727234125</ele>
        <time>2022-01-14T23:02:40.555Z</time>
      </trkpt>
      <trkpt lat="48.01462" lon="-4.21108">
        <ele>145.47624687826</ele>
        <time>2022-01-14T23:02:52.601Z</time>
      </trkpt>
      <trkpt lat="48.01481" lon="-4.21169">
        <ele>144.41166763035</ele>
        <time>2022-01-14T23:03:04.655Z</time>
      </trkpt>
      <trkpt lat="48.015" lon="-4.2123">
        <ele>143.45710922467</ele>
        <time>2022-01-14T23:03:16.716Z</time>
      </trkpt>
      <trkpt lat="48.01522" lon="-4.21294">
        <ele>142.62323087838</ele>
        <time>2022-01-14T23:03:28.785Z</time>
      </trkpt>
      <trkpt lat="48.0156" lon="-4.21398">
        <ele>142.25359766008</ele>
        <time>2022-01-14T23:03:40.866Z</time>
      </trkpt>
      <trkpt lat="48.01586" lon="-4.21458">
        <ele>141.97760978335</ele>
        <time>2022-01-14T23:03:52.955Z</time>
      </trkpt>
      <trkpt lat="48.01611" lon="-4.21518">
        <ele>141.86378663453</ele>
        <time>2022-01-14T23:04:05.052Z</time>
      </trkpt>
      <trkpt lat="48.01643" lon="-4.21584">
        <ele>141.73421611191</ele>
        <time>2022-01-14T23:04:17.157Z</time>
      </trkpt>
      <trkpt lat="48.01688" lon="-4.21669">
        <ele>141.53754851527</ele>
        <time>2022-01-14T23:04:29.274Z</time>
      </trkpt>
      <trkpt lat="48.01733" lon="-4.21753">
        <ele>141.80581220444</ele>
        <time>2022-01-14T23:04:41.402Z</time>
      </trkpt>
      <trkpt lat="48.01777" lon="-4.21838">
        <ele>141.92488907441</ele>
        <time>2022-01-14T23:04:53.542Z</time>
      </trkpt>
      <trkpt lat="48.01822" lon="-4.21922">
        <ele>143.15940211222</ele>
        <time>2022-01-14T23:05:05.694Z</time>
      </trkpt>
      <trkpt lat="48.01867" lon="-4.22007">
        <ele>144.56910622086</ele>
        <time>2022-01-14T23:05:17.857Z</time>
      </trkpt>
      <trkpt lat="48.0191" lon="-4.22074">
        <ele>145.81830148168</ele>
        <time>2022-01-14T23:05:30.030Z</time>
      </trkpt>
      <trkpt lat="48.01952" lon="-4.22142">
        <ele>147.32699218587</ele>
        <time>2022-01-14T23:05:42.213Z</time>
      </trkpt>
      <trkpt lat="48.0199" lon="-4.22192">
        <ele>148.67131799706</ele>
        <time>2022-01-14T23:05:54.404Z</time>
      </trkpt>
      <trkpt lat="48.02027" lon="-4.22243">
        <ele>149.7901199807</ele>
        <time>2022-01-14T23:06:06.603Z</time>
      </trkpt>
      <trkpt lat="48.02058" lon="-4.22281">
        <ele>150.75900413218</ele>
        <time>2022-01-14T23:06:18.809Z</time>
      </trkpt>
      <trkpt lat="48.02088" lon="-4.22311">
        <ele>151.43256165212</ele>
        <time>2022-01-14T23:06:31.020Z</time>
      </trkpt>
      <trkpt lat="48.02125" lon="-4.22344">
        <ele>151.59963077225</ele>
        <time>2022-01-14T23:06:43.238Z</time>
      </trkpt>
      <trkpt lat="48.02159" lon="-4.2237">
        <ele>151.65134096901</ele>
        <time>2022-01-14T23:06:55.462Z</time>
      </trkpt>
      <trkpt lat="48.02177" lon="-4.2238">
        <ele>151.52629102856</ele>
        <time>2022-01-14T23:07:07.690Z</time>
      </trkpt>
      <trkpt lat="48.02207" lon="-4.22397">
        <ele>151.34297839692</ele>
        <time>2022-01-14T23:07:19.923Z</time>
      </trkpt>
      <trkpt lat="48.02267" lon="-4.22424">
        <ele>151.07623837419</ele>
        <time>2022-01-14T23:07:32.166Z</time>
      </trkpt>
      <trkpt lat="48.02311" lon="-4.22451">
        <ele>150.46805288614</ele>
        <time>2022-01-14T23:07:44.416Z</time>
      </trkpt>
      <trkpt lat="48.02355" lon="-4.22478">
        <ele>149.82847757171</ele>
        <time>2022-01-14T23:07:56.674Z</time>
      </trkpt>
      <trkpt lat="48.0236" lon="-4.22452">
        <ele>149.58740590634</ele>
        <time>2022-01-14T23:08:08.935Z</time>
      </trkpt>
      <trkpt lat="48.0236" lon="-4.22448">
        <ele>149.50778676278</ele>
        <time>2022-01-14T23:08:21.196Z</time>
      </trkpt>
      <trkpt lat="48.02355" lon="-4.22435">
        <ele>149.52443679284</ele>
        <time>2022-01-14T23:08:33.459Z</time>
      </trkpt>
      <trkpt lat="48.02334" lon="-4.22401">
        <ele>149.57198549437</ele>
        <time>2022-01-14T23:08:45.727Z</time>
      </trkpt>
      <trkpt lat="48.02307" lon="-4.22351">
        <ele>149.17562527318</ele>
        <time>2022-01-14T23:08:58.002Z</time>
      </trkpt>
      <trkpt lat="48.02262" lon="-4.22245">
        <ele>148.45562452571</ele>
        <time>2022-01-14T23:09:10.290Z</time>
      </trkpt>
      <trkpt lat="48.02217" lon="-4.22139">
        <ele>147.15793113984</ele>
        <time>2022-01-14T23:09:22.592Z</time>
      </trkpt>
      <trkpt lat="48.02173" lon="-4.22034">
        <ele>146.93661770962</ele>
        <time>2022-01-14T23:09:34.907Z</time>
      </trkpt>
      <trkpt lat="48.02128" lon="-4.21928">
        <ele>145.00543674496</ele>
        <time>2022-01-14T23:09:47.236Z</time>
      </trkpt>
      <trkpt lat="48.02083" lon="-4.21823">
        <ele>142.90198620428</ele>
        <time>2022-01-14T23:09:59.578Z</time>
      </trkpt>
    </trkseg>
  </trk>
</gpx>